<?xml version="1.0" encoding="utf-8"?>
<gpx xmlns:xsi="http://www.w3.org/2001/XMLSchema-instance" xmlns:xsd="http://www.w3.org/2001/XMLSchema" version="1.1" creator="Shapelink.com" xmlns="http://www.topografix.com/GPX/1/1" xmlns:gpxtpx="http://www.garmin.com/xmlschemas/TrackPointExtension/v1">
  <metadata>
    <name>Bicicleta de montaña 9.94 km, 2019-09-29</name>
    <desc></desc>
    <author><name>Peter Littke</name></author> 
    <time>2019-09-29T14:39:57Z</time>
  </metadata>
  <trk>
    <name>Bicicleta de montaña 9.94 km, 2019-09-29</name>
    <trkseg>
      <trkpt lat="59.174675" lon="18.139704">
        <ele>44</ele>
        <time>2019-09-29T14:40:48Z</time>
      </trkpt>
      <trkpt lat="59.174722" lon="18.139538">
        <ele>46</ele>
        <time>2019-09-29T14:40:51Z</time>
      </trkpt>
      <trkpt lat="59.174751" lon="18.139371">
        <ele>49</ele>
        <time>2019-09-29T14:40:52Z</time>
      </trkpt>
      <trkpt lat="59.174698" lon="18.13899">
        <ele>54</ele>
        <time>2019-09-29T14:40:59Z</time>
      </trkpt>
      <trkpt lat="59.174604" lon="18.13896">
        <ele>50</ele>
        <time>2019-09-29T14:41:03Z</time>
      </trkpt>
      <trkpt lat="59.174514" lon="18.138922">
        <ele>43</ele>
        <time>2019-09-29T14:41:06Z</time>
      </trkpt>
      <trkpt lat="59.174402" lon="18.138902">
        <ele>46</ele>
        <time>2019-09-29T14:41:09Z</time>
      </trkpt>
      <trkpt lat="59.17429" lon="18.138892">
        <ele>44</ele>
        <time>2019-09-29T14:41:11Z</time>
      </trkpt>
      <trkpt lat="59.174188" lon="18.138915">
        <ele>46</ele>
        <time>2019-09-29T14:41:13Z</time>
      </trkpt>
      <trkpt lat="59.174063" lon="18.138953">
        <ele>50</ele>
        <time>2019-09-29T14:41:16Z</time>
      </trkpt>
      <trkpt lat="59.173973" lon="18.138847">
        <ele>49</ele>
        <time>2019-09-29T14:41:19Z</time>
      </trkpt>
      <trkpt lat="59.173858" lon="18.138747">
        <ele>46</ele>
        <time>2019-09-29T14:41:22Z</time>
      </trkpt>
      <trkpt lat="59.17376" lon="18.13866">
        <ele>45</ele>
        <time>2019-09-29T14:41:25Z</time>
      </trkpt>
      <trkpt lat="59.173654" lon="18.13858">
        <ele>45</ele>
        <time>2019-09-29T14:41:28Z</time>
      </trkpt>
      <trkpt lat="59.173567" lon="18.138488">
        <ele>44</ele>
        <time>2019-09-29T14:41:31Z</time>
      </trkpt>
      <trkpt lat="59.17344" lon="18.138396">
        <ele>43</ele>
        <time>2019-09-29T14:41:34Z</time>
      </trkpt>
      <trkpt lat="59.173323" lon="18.138337">
        <ele>44</ele>
        <time>2019-09-29T14:41:36Z</time>
      </trkpt>
      <trkpt lat="59.173221" lon="18.138278">
        <ele>45</ele>
        <time>2019-09-29T14:41:38Z</time>
      </trkpt>
      <trkpt lat="59.173128" lon="18.1382">
        <ele>45</ele>
        <time>2019-09-29T14:41:40Z</time>
      </trkpt>
      <trkpt lat="59.172995" lon="18.138129">
        <ele>45</ele>
        <time>2019-09-29T14:41:42Z</time>
      </trkpt>
      <trkpt lat="59.172906" lon="18.138081">
        <ele>46</ele>
        <time>2019-09-29T14:41:43Z</time>
      </trkpt>
      <trkpt lat="59.172751" lon="18.137999">
        <ele>46</ele>
        <time>2019-09-29T14:41:45Z</time>
      </trkpt>
      <trkpt lat="59.172594" lon="18.137924">
        <ele>45</ele>
        <time>2019-09-29T14:41:47Z</time>
      </trkpt>
      <trkpt lat="59.172443" lon="18.13784">
        <ele>45</ele>
        <time>2019-09-29T14:41:49Z</time>
      </trkpt>
      <trkpt lat="59.172282" lon="18.137749">
        <ele>44</ele>
        <time>2019-09-29T14:41:51Z</time>
      </trkpt>
      <trkpt lat="59.172114" lon="18.137665">
        <ele>43</ele>
        <time>2019-09-29T14:41:53Z</time>
      </trkpt>
      <trkpt lat="59.17196" lon="18.137586">
        <ele>42</ele>
        <time>2019-09-29T14:41:55Z</time>
      </trkpt>
      <trkpt lat="59.171811" lon="18.137506">
        <ele>42</ele>
        <time>2019-09-29T14:41:57Z</time>
      </trkpt>
      <trkpt lat="59.171674" lon="18.137419">
        <ele>41</ele>
        <time>2019-09-29T14:41:59Z</time>
      </trkpt>
      <trkpt lat="59.17154" lon="18.137341">
        <ele>41</ele>
        <time>2019-09-29T14:42:01Z</time>
      </trkpt>
      <trkpt lat="59.171408" lon="18.137268">
        <ele>41</ele>
        <time>2019-09-29T14:42:03Z</time>
      </trkpt>
      <trkpt lat="59.171284" lon="18.137195">
        <ele>41</ele>
        <time>2019-09-29T14:42:05Z</time>
      </trkpt>
      <trkpt lat="59.171154" lon="18.137108">
        <ele>41</ele>
        <time>2019-09-29T14:42:07Z</time>
      </trkpt>
      <trkpt lat="59.171038" lon="18.13704">
        <ele>41</ele>
        <time>2019-09-29T14:42:09Z</time>
      </trkpt>
      <trkpt lat="59.170913" lon="18.136972">
        <ele>40</ele>
        <time>2019-09-29T14:42:11Z</time>
      </trkpt>
      <trkpt lat="59.170792" lon="18.136904">
        <ele>40</ele>
        <time>2019-09-29T14:42:13Z</time>
      </trkpt>
      <trkpt lat="59.170678" lon="18.136836">
        <ele>40</ele>
        <time>2019-09-29T14:42:15Z</time>
      </trkpt>
      <trkpt lat="59.170558" lon="18.136758">
        <ele>40</ele>
        <time>2019-09-29T14:42:17Z</time>
      </trkpt>
      <trkpt lat="59.170443" lon="18.136696">
        <ele>39</ele>
        <time>2019-09-29T14:42:19Z</time>
      </trkpt>
      <trkpt lat="59.170336" lon="18.136644">
        <ele>39</ele>
        <time>2019-09-29T14:42:21Z</time>
      </trkpt>
      <trkpt lat="59.170239" lon="18.1366">
        <ele>39</ele>
        <time>2019-09-29T14:42:23Z</time>
      </trkpt>
      <trkpt lat="59.170124" lon="18.136556">
        <ele>39</ele>
        <time>2019-09-29T14:42:25Z</time>
      </trkpt>
      <trkpt lat="59.170022" lon="18.136522">
        <ele>40</ele>
        <time>2019-09-29T14:42:27Z</time>
      </trkpt>
      <trkpt lat="59.1699" lon="18.13648">
        <ele>40</ele>
        <time>2019-09-29T14:42:29Z</time>
      </trkpt>
      <trkpt lat="59.16979" lon="18.136436">
        <ele>40</ele>
        <time>2019-09-29T14:42:31Z</time>
      </trkpt>
      <trkpt lat="59.169683" lon="18.13638">
        <ele>39</ele>
        <time>2019-09-29T14:42:33Z</time>
      </trkpt>
      <trkpt lat="59.169576" lon="18.136322">
        <ele>39</ele>
        <time>2019-09-29T14:42:35Z</time>
      </trkpt>
      <trkpt lat="59.169476" lon="18.136286">
        <ele>39</ele>
        <time>2019-09-29T14:42:37Z</time>
      </trkpt>
      <trkpt lat="59.169372" lon="18.136244">
        <ele>38</ele>
        <time>2019-09-29T14:42:39Z</time>
      </trkpt>
      <trkpt lat="59.169271" lon="18.136198">
        <ele>38</ele>
        <time>2019-09-29T14:42:41Z</time>
      </trkpt>
      <trkpt lat="59.169162" lon="18.136138">
        <ele>38</ele>
        <time>2019-09-29T14:42:43Z</time>
      </trkpt>
      <trkpt lat="59.169048" lon="18.136076">
        <ele>38</ele>
        <time>2019-09-29T14:42:45Z</time>
      </trkpt>
      <trkpt lat="59.168935" lon="18.136022">
        <ele>38</ele>
        <time>2019-09-29T14:42:47Z</time>
      </trkpt>
      <trkpt lat="59.168818" lon="18.135954">
        <ele>38</ele>
        <time>2019-09-29T14:42:49Z</time>
      </trkpt>
      <trkpt lat="59.168706" lon="18.135886">
        <ele>38</ele>
        <time>2019-09-29T14:42:51Z</time>
      </trkpt>
      <trkpt lat="59.168592" lon="18.135818">
        <ele>37</ele>
        <time>2019-09-29T14:42:53Z</time>
      </trkpt>
      <trkpt lat="59.168481" lon="18.13573">
        <ele>37</ele>
        <time>2019-09-29T14:42:55Z</time>
      </trkpt>
      <trkpt lat="59.168375" lon="18.135682">
        <ele>38</ele>
        <time>2019-09-29T14:42:57Z</time>
      </trkpt>
      <trkpt lat="59.168269" lon="18.13562">
        <ele>38</ele>
        <time>2019-09-29T14:42:59Z</time>
      </trkpt>
      <trkpt lat="59.168163" lon="18.135558">
        <ele>38</ele>
        <time>2019-09-29T14:43:01Z</time>
      </trkpt>
      <trkpt lat="59.16805" lon="18.135486">
        <ele>39</ele>
        <time>2019-09-29T14:43:03Z</time>
      </trkpt>
      <trkpt lat="59.167948" lon="18.135422">
        <ele>39</ele>
        <time>2019-09-29T14:43:05Z</time>
      </trkpt>
      <trkpt lat="59.167853" lon="18.135374">
        <ele>39</ele>
        <time>2019-09-29T14:43:07Z</time>
      </trkpt>
      <trkpt lat="59.167746" lon="18.135299">
        <ele>40</ele>
        <time>2019-09-29T14:43:09Z</time>
      </trkpt>
      <trkpt lat="59.167616" lon="18.135253">
        <ele>41</ele>
        <time>2019-09-29T14:43:11Z</time>
      </trkpt>
      <trkpt lat="59.167504" lon="18.135181">
        <ele>42</ele>
        <time>2019-09-29T14:43:13Z</time>
      </trkpt>
      <trkpt lat="59.16745" lon="18.135144">
        <ele>42</ele>
        <time>2019-09-29T14:43:14Z</time>
      </trkpt>
      <trkpt lat="59.167398" lon="18.13511">
        <ele>43</ele>
        <time>2019-09-29T14:43:15Z</time>
      </trkpt>
      <trkpt lat="59.167348" lon="18.135076">
        <ele>43</ele>
        <time>2019-09-29T14:43:16Z</time>
      </trkpt>
      <trkpt lat="59.167296" lon="18.135041">
        <ele>43</ele>
        <time>2019-09-29T14:43:17Z</time>
      </trkpt>
      <trkpt lat="59.167246" lon="18.135004">
        <ele>42</ele>
        <time>2019-09-29T14:43:18Z</time>
      </trkpt>
      <trkpt lat="59.167194" lon="18.13497">
        <ele>42</ele>
        <time>2019-09-29T14:43:19Z</time>
      </trkpt>
      <trkpt lat="59.167144" lon="18.134938">
        <ele>42</ele>
        <time>2019-09-29T14:43:20Z</time>
      </trkpt>
      <trkpt lat="59.167093" lon="18.134906">
        <ele>43</ele>
        <time>2019-09-29T14:43:21Z</time>
      </trkpt>
      <trkpt lat="59.167044" lon="18.134874">
        <ele>43</ele>
        <time>2019-09-29T14:43:22Z</time>
      </trkpt>
      <trkpt lat="59.166994" lon="18.134843">
        <ele>43</ele>
        <time>2019-09-29T14:43:23Z</time>
      </trkpt>
      <trkpt lat="59.166942" lon="18.134814">
        <ele>43</ele>
        <time>2019-09-29T14:43:24Z</time>
      </trkpt>
      <trkpt lat="59.166891" lon="18.134783">
        <ele>43</ele>
        <time>2019-09-29T14:43:25Z</time>
      </trkpt>
      <trkpt lat="59.166838" lon="18.134753">
        <ele>43</ele>
        <time>2019-09-29T14:43:26Z</time>
      </trkpt>
      <trkpt lat="59.166786" lon="18.134721">
        <ele>43</ele>
        <time>2019-09-29T14:43:27Z</time>
      </trkpt>
      <trkpt lat="59.166734" lon="18.134689">
        <ele>43</ele>
        <time>2019-09-29T14:43:28Z</time>
      </trkpt>
      <trkpt lat="59.16668" lon="18.134657">
        <ele>44</ele>
        <time>2019-09-29T14:43:29Z</time>
      </trkpt>
      <trkpt lat="59.166628" lon="18.134625">
        <ele>44</ele>
        <time>2019-09-29T14:43:30Z</time>
      </trkpt>
      <trkpt lat="59.166576" lon="18.134595">
        <ele>44</ele>
        <time>2019-09-29T14:43:31Z</time>
      </trkpt>
      <trkpt lat="59.166526" lon="18.134565">
        <ele>44</ele>
        <time>2019-09-29T14:43:32Z</time>
      </trkpt>
      <trkpt lat="59.166482" lon="18.134538">
        <ele>44</ele>
        <time>2019-09-29T14:43:33Z</time>
      </trkpt>
      <trkpt lat="59.166438" lon="18.134509">
        <ele>44</ele>
        <time>2019-09-29T14:43:34Z</time>
      </trkpt>
      <trkpt lat="59.166392" lon="18.134473">
        <ele>44</ele>
        <time>2019-09-29T14:43:35Z</time>
      </trkpt>
      <trkpt lat="59.166341" lon="18.134438">
        <ele>44</ele>
        <time>2019-09-29T14:43:36Z</time>
      </trkpt>
      <trkpt lat="59.166293" lon="18.134405">
        <ele>44</ele>
        <time>2019-09-29T14:43:37Z</time>
      </trkpt>
      <trkpt lat="59.166242" lon="18.134373">
        <ele>44</ele>
        <time>2019-09-29T14:43:38Z</time>
      </trkpt>
      <trkpt lat="59.166192" lon="18.134339">
        <ele>44</ele>
        <time>2019-09-29T14:43:39Z</time>
      </trkpt>
      <trkpt lat="59.166142" lon="18.134304">
        <ele>44</ele>
        <time>2019-09-29T14:43:40Z</time>
      </trkpt>
      <trkpt lat="59.166096" lon="18.13427">
        <ele>44</ele>
        <time>2019-09-29T14:43:41Z</time>
      </trkpt>
      <trkpt lat="59.166046" lon="18.134239">
        <ele>44</ele>
        <time>2019-09-29T14:43:42Z</time>
      </trkpt>
      <trkpt lat="59.165996" lon="18.134208">
        <ele>44</ele>
        <time>2019-09-29T14:43:43Z</time>
      </trkpt>
      <trkpt lat="59.165946" lon="18.134174">
        <ele>44</ele>
        <time>2019-09-29T14:43:44Z</time>
      </trkpt>
      <trkpt lat="59.165896" lon="18.134138">
        <ele>44</ele>
        <time>2019-09-29T14:43:45Z</time>
      </trkpt>
      <trkpt lat="59.165846" lon="18.134104">
        <ele>44</ele>
        <time>2019-09-29T14:43:46Z</time>
      </trkpt>
      <trkpt lat="59.165794" lon="18.134072">
        <ele>44</ele>
        <time>2019-09-29T14:43:47Z</time>
      </trkpt>
      <trkpt lat="59.165746" lon="18.134041">
        <ele>44</ele>
        <time>2019-09-29T14:43:48Z</time>
      </trkpt>
      <trkpt lat="59.165697" lon="18.134008">
        <ele>44</ele>
        <time>2019-09-29T14:43:49Z</time>
      </trkpt>
      <trkpt lat="59.165646" lon="18.133972">
        <ele>45</ele>
        <time>2019-09-29T14:43:50Z</time>
      </trkpt>
      <trkpt lat="59.165597" lon="18.133939">
        <ele>44</ele>
        <time>2019-09-29T14:43:51Z</time>
      </trkpt>
      <trkpt lat="59.165546" lon="18.133906">
        <ele>44</ele>
        <time>2019-09-29T14:43:52Z</time>
      </trkpt>
      <trkpt lat="59.165494" lon="18.133877">
        <ele>44</ele>
        <time>2019-09-29T14:43:53Z</time>
      </trkpt>
      <trkpt lat="59.165442" lon="18.133846">
        <ele>44</ele>
        <time>2019-09-29T14:43:54Z</time>
      </trkpt>
      <trkpt lat="59.165387" lon="18.133815">
        <ele>44</ele>
        <time>2019-09-29T14:43:55Z</time>
      </trkpt>
      <trkpt lat="59.165334" lon="18.133783">
        <ele>44</ele>
        <time>2019-09-29T14:43:56Z</time>
      </trkpt>
      <trkpt lat="59.165282" lon="18.13375">
        <ele>44</ele>
        <time>2019-09-29T14:43:57Z</time>
      </trkpt>
      <trkpt lat="59.16523" lon="18.13372">
        <ele>44</ele>
        <time>2019-09-29T14:43:58Z</time>
      </trkpt>
      <trkpt lat="59.165176" lon="18.133691">
        <ele>44</ele>
        <time>2019-09-29T14:43:59Z</time>
      </trkpt>
      <trkpt lat="59.165121" lon="18.133663">
        <ele>44</ele>
        <time>2019-09-29T14:44:00Z</time>
      </trkpt>
      <trkpt lat="59.165068" lon="18.133636">
        <ele>44</ele>
        <time>2019-09-29T14:44:01Z</time>
      </trkpt>
      <trkpt lat="59.165014" lon="18.133609">
        <ele>44</ele>
        <time>2019-09-29T14:44:02Z</time>
      </trkpt>
      <trkpt lat="59.164958" lon="18.133577">
        <ele>44</ele>
        <time>2019-09-29T14:44:03Z</time>
      </trkpt>
      <trkpt lat="59.164902" lon="18.133545">
        <ele>44</ele>
        <time>2019-09-29T14:44:04Z</time>
      </trkpt>
      <trkpt lat="59.16485" lon="18.133517">
        <ele>44</ele>
        <time>2019-09-29T14:44:05Z</time>
      </trkpt>
      <trkpt lat="59.164802" lon="18.13349">
        <ele>44</ele>
        <time>2019-09-29T14:44:06Z</time>
      </trkpt>
      <trkpt lat="59.16476" lon="18.13347">
        <ele>44</ele>
        <time>2019-09-29T14:44:07Z</time>
      </trkpt>
      <trkpt lat="59.164709" lon="18.133447">
        <ele>44</ele>
        <time>2019-09-29T14:44:08Z</time>
      </trkpt>
      <trkpt lat="59.16466" lon="18.133422">
        <ele>44</ele>
        <time>2019-09-29T14:44:09Z</time>
      </trkpt>
      <trkpt lat="59.164608" lon="18.133395">
        <ele>44</ele>
        <time>2019-09-29T14:44:10Z</time>
      </trkpt>
      <trkpt lat="59.164554" lon="18.133371">
        <ele>44</ele>
        <time>2019-09-29T14:44:11Z</time>
      </trkpt>
      <trkpt lat="59.164501" lon="18.133353">
        <ele>44</ele>
        <time>2019-09-29T14:44:12Z</time>
      </trkpt>
      <trkpt lat="59.164452" lon="18.133336">
        <ele>44</ele>
        <time>2019-09-29T14:44:13Z</time>
      </trkpt>
      <trkpt lat="59.164403" lon="18.133324">
        <ele>44</ele>
        <time>2019-09-29T14:44:14Z</time>
      </trkpt>
      <trkpt lat="59.164356" lon="18.133322">
        <ele>45</ele>
        <time>2019-09-29T14:44:15Z</time>
      </trkpt>
      <trkpt lat="59.16431" lon="18.133325">
        <ele>45</ele>
        <time>2019-09-29T14:44:16Z</time>
      </trkpt>
      <trkpt lat="59.164266" lon="18.133332">
        <ele>45</ele>
        <time>2019-09-29T14:44:17Z</time>
      </trkpt>
      <trkpt lat="59.164222" lon="18.133343">
        <ele>45</ele>
        <time>2019-09-29T14:44:18Z</time>
      </trkpt>
      <trkpt lat="59.16418" lon="18.133358">
        <ele>45</ele>
        <time>2019-09-29T14:44:19Z</time>
      </trkpt>
      <trkpt lat="59.16414" lon="18.133378">
        <ele>45</ele>
        <time>2019-09-29T14:44:20Z</time>
      </trkpt>
      <trkpt lat="59.164102" lon="18.133404">
        <ele>45</ele>
        <time>2019-09-29T14:44:21Z</time>
      </trkpt>
      <trkpt lat="59.164066" lon="18.133433">
        <ele>45</ele>
        <time>2019-09-29T14:44:22Z</time>
      </trkpt>
      <trkpt lat="59.164032" lon="18.133463">
        <ele>46</ele>
        <time>2019-09-29T14:44:23Z</time>
      </trkpt>
      <trkpt lat="59.163996" lon="18.133493">
        <ele>46</ele>
        <time>2019-09-29T14:44:24Z</time>
      </trkpt>
      <trkpt lat="59.163958" lon="18.133513">
        <ele>46</ele>
        <time>2019-09-29T14:44:25Z</time>
      </trkpt>
      <trkpt lat="59.16392" lon="18.133515">
        <ele>46</ele>
        <time>2019-09-29T14:44:26Z</time>
      </trkpt>
      <trkpt lat="59.163882" lon="18.133492">
        <ele>46</ele>
        <time>2019-09-29T14:44:27Z</time>
      </trkpt>
      <trkpt lat="59.163846" lon="18.13345">
        <ele>46</ele>
        <time>2019-09-29T14:44:28Z</time>
      </trkpt>
      <trkpt lat="59.16381" lon="18.133399">
        <ele>46</ele>
        <time>2019-09-29T14:44:29Z</time>
      </trkpt>
      <trkpt lat="59.163776" lon="18.133341">
        <ele>46</ele>
        <time>2019-09-29T14:44:30Z</time>
      </trkpt>
      <trkpt lat="59.16374" lon="18.133286">
        <ele>46</ele>
        <time>2019-09-29T14:44:31Z</time>
      </trkpt>
      <trkpt lat="59.163703" lon="18.13323">
        <ele>46</ele>
        <time>2019-09-29T14:44:32Z</time>
      </trkpt>
      <trkpt lat="59.163664" lon="18.133173">
        <ele>46</ele>
        <time>2019-09-29T14:44:33Z</time>
      </trkpt>
      <trkpt lat="59.163625" lon="18.133123">
        <ele>46</ele>
        <time>2019-09-29T14:44:34Z</time>
      </trkpt>
      <trkpt lat="59.163583" lon="18.133076">
        <ele>46</ele>
        <time>2019-09-29T14:44:35Z</time>
      </trkpt>
      <trkpt lat="59.163541" lon="18.133036">
        <ele>46</ele>
        <time>2019-09-29T14:44:36Z</time>
      </trkpt>
      <trkpt lat="59.163496" lon="18.133002">
        <ele>47</ele>
        <time>2019-09-29T14:44:37Z</time>
      </trkpt>
      <trkpt lat="59.16345" lon="18.132969">
        <ele>47</ele>
        <time>2019-09-29T14:44:38Z</time>
      </trkpt>
      <trkpt lat="59.163404" lon="18.132936">
        <ele>47</ele>
        <time>2019-09-29T14:44:39Z</time>
      </trkpt>
      <trkpt lat="59.163357" lon="18.132904">
        <ele>47</ele>
        <time>2019-09-29T14:44:40Z</time>
      </trkpt>
      <trkpt lat="59.163312" lon="18.132865">
        <ele>47</ele>
        <time>2019-09-29T14:44:41Z</time>
      </trkpt>
      <trkpt lat="59.163265" lon="18.132821">
        <ele>47</ele>
        <time>2019-09-29T14:44:42Z</time>
      </trkpt>
      <trkpt lat="59.163218" lon="18.132788">
        <ele>47</ele>
        <time>2019-09-29T14:44:43Z</time>
      </trkpt>
      <trkpt lat="59.16317" lon="18.132774">
        <ele>47</ele>
        <time>2019-09-29T14:44:44Z</time>
      </trkpt>
      <trkpt lat="59.163124" lon="18.132774">
        <ele>47</ele>
        <time>2019-09-29T14:44:45Z</time>
      </trkpt>
      <trkpt lat="59.163082" lon="18.132776">
        <ele>47</ele>
        <time>2019-09-29T14:44:46Z</time>
      </trkpt>
      <trkpt lat="59.163048" lon="18.132777">
        <ele>47</ele>
        <time>2019-09-29T14:44:47Z</time>
      </trkpt>
      <trkpt lat="59.163014" lon="18.132769">
        <ele>47</ele>
        <time>2019-09-29T14:44:48Z</time>
      </trkpt>
      <trkpt lat="59.162978" lon="18.132755">
        <ele>47</ele>
        <time>2019-09-29T14:44:49Z</time>
      </trkpt>
      <trkpt lat="59.162937" lon="18.132747">
        <ele>47</ele>
        <time>2019-09-29T14:44:50Z</time>
      </trkpt>
      <trkpt lat="59.162898" lon="18.13274">
        <ele>47</ele>
        <time>2019-09-29T14:44:51Z</time>
      </trkpt>
      <trkpt lat="59.16286" lon="18.132728">
        <ele>47</ele>
        <time>2019-09-29T14:44:52Z</time>
      </trkpt>
      <trkpt lat="59.162814" lon="18.132712">
        <ele>47</ele>
        <time>2019-09-29T14:44:53Z</time>
      </trkpt>
      <trkpt lat="59.162773" lon="18.132694">
        <ele>48</ele>
        <time>2019-09-29T14:44:54Z</time>
      </trkpt>
      <trkpt lat="59.162722" lon="18.132678">
        <ele>48</ele>
        <time>2019-09-29T14:44:55Z</time>
      </trkpt>
      <trkpt lat="59.162682" lon="18.132663">
        <ele>48</ele>
        <time>2019-09-29T14:44:56Z</time>
      </trkpt>
      <trkpt lat="59.162646" lon="18.132651">
        <ele>48</ele>
        <time>2019-09-29T14:44:57Z</time>
      </trkpt>
      <trkpt lat="59.162609" lon="18.132644">
        <ele>48</ele>
        <time>2019-09-29T14:44:58Z</time>
      </trkpt>
      <trkpt lat="59.162488" lon="18.132622">
        <ele>48</ele>
        <time>2019-09-29T14:45:01Z</time>
      </trkpt>
      <trkpt lat="59.16239" lon="18.132602">
        <ele>48</ele>
        <time>2019-09-29T14:45:03Z</time>
      </trkpt>
      <trkpt lat="59.162345" lon="18.13259">
        <ele>48</ele>
        <time>2019-09-29T14:45:04Z</time>
      </trkpt>
      <trkpt lat="59.16225" lon="18.132564">
        <ele>48</ele>
        <time>2019-09-29T14:45:06Z</time>
      </trkpt>
      <trkpt lat="59.162173" lon="18.132537">
        <ele>49</ele>
        <time>2019-09-29T14:45:08Z</time>
      </trkpt>
      <trkpt lat="59.162132" lon="18.132524">
        <ele>49</ele>
        <time>2019-09-29T14:45:09Z</time>
      </trkpt>
      <trkpt lat="59.16209" lon="18.132509">
        <ele>49</ele>
        <time>2019-09-29T14:45:10Z</time>
      </trkpt>
      <trkpt lat="59.162047" lon="18.13249">
        <ele>49</ele>
        <time>2019-09-29T14:45:11Z</time>
      </trkpt>
      <trkpt lat="59.162006" lon="18.132453">
        <ele>49</ele>
        <time>2019-09-29T14:45:12Z</time>
      </trkpt>
      <trkpt lat="59.161964" lon="18.132406">
        <ele>49</ele>
        <time>2019-09-29T14:45:13Z</time>
      </trkpt>
      <trkpt lat="59.161929" lon="18.132357">
        <ele>49</ele>
        <time>2019-09-29T14:45:14Z</time>
      </trkpt>
      <trkpt lat="59.161894" lon="18.132315">
        <ele>49</ele>
        <time>2019-09-29T14:45:15Z</time>
      </trkpt>
      <trkpt lat="59.161853" lon="18.132277">
        <ele>49</ele>
        <time>2019-09-29T14:45:16Z</time>
      </trkpt>
      <trkpt lat="59.161809" lon="18.132246">
        <ele>49</ele>
        <time>2019-09-29T14:45:17Z</time>
      </trkpt>
      <trkpt lat="59.161762" lon="18.132227">
        <ele>49</ele>
        <time>2019-09-29T14:45:18Z</time>
      </trkpt>
      <trkpt lat="59.161712" lon="18.132216">
        <ele>49</ele>
        <time>2019-09-29T14:45:19Z</time>
      </trkpt>
      <trkpt lat="59.161664" lon="18.132206">
        <ele>49</ele>
        <time>2019-09-29T14:45:20Z</time>
      </trkpt>
      <trkpt lat="59.161619" lon="18.132197">
        <ele>49</ele>
        <time>2019-09-29T14:45:21Z</time>
      </trkpt>
      <trkpt lat="59.161575" lon="18.13219">
        <ele>49</ele>
        <time>2019-09-29T14:45:22Z</time>
      </trkpt>
      <trkpt lat="59.161534" lon="18.132188">
        <ele>49</ele>
        <time>2019-09-29T14:45:23Z</time>
      </trkpt>
      <trkpt lat="59.161492" lon="18.132189">
        <ele>49</ele>
        <time>2019-09-29T14:45:24Z</time>
      </trkpt>
      <trkpt lat="59.161445" lon="18.132192">
        <ele>50</ele>
        <time>2019-09-29T14:45:25Z</time>
      </trkpt>
      <trkpt lat="59.161399" lon="18.132193">
        <ele>50</ele>
        <time>2019-09-29T14:45:26Z</time>
      </trkpt>
      <trkpt lat="59.161356" lon="18.132196">
        <ele>50</ele>
        <time>2019-09-29T14:45:27Z</time>
      </trkpt>
      <trkpt lat="59.161315" lon="18.132202">
        <ele>50</ele>
        <time>2019-09-29T14:45:28Z</time>
      </trkpt>
      <trkpt lat="59.161276" lon="18.132214">
        <ele>50</ele>
        <time>2019-09-29T14:45:29Z</time>
      </trkpt>
      <trkpt lat="59.161238" lon="18.132232">
        <ele>50</ele>
        <time>2019-09-29T14:45:30Z</time>
      </trkpt>
      <trkpt lat="59.161204" lon="18.132259">
        <ele>50</ele>
        <time>2019-09-29T14:45:31Z</time>
      </trkpt>
      <trkpt lat="59.161175" lon="18.132289">
        <ele>50</ele>
        <time>2019-09-29T14:45:32Z</time>
      </trkpt>
      <trkpt lat="59.161145" lon="18.132311">
        <ele>50</ele>
        <time>2019-09-29T14:45:33Z</time>
      </trkpt>
      <trkpt lat="59.161119" lon="18.132311">
        <ele>50</ele>
        <time>2019-09-29T14:45:34Z</time>
      </trkpt>
      <trkpt lat="59.161092" lon="18.132292">
        <ele>50</ele>
        <time>2019-09-29T14:45:35Z</time>
      </trkpt>
      <trkpt lat="59.161062" lon="18.132262">
        <ele>50</ele>
        <time>2019-09-29T14:45:36Z</time>
      </trkpt>
      <trkpt lat="59.161036" lon="18.132217">
        <ele>50</ele>
        <time>2019-09-29T14:45:37Z</time>
      </trkpt>
      <trkpt lat="59.161006" lon="18.132154">
        <ele>50</ele>
        <time>2019-09-29T14:45:38Z</time>
      </trkpt>
      <trkpt lat="59.160971" lon="18.132071">
        <ele>50</ele>
        <time>2019-09-29T14:45:39Z</time>
      </trkpt>
      <trkpt lat="59.160927" lon="18.131981">
        <ele>50</ele>
        <time>2019-09-29T14:45:40Z</time>
      </trkpt>
      <trkpt lat="59.160878" lon="18.13189">
        <ele>49</ele>
        <time>2019-09-29T14:45:41Z</time>
      </trkpt>
      <trkpt lat="59.160821" lon="18.131793">
        <ele>49</ele>
        <time>2019-09-29T14:45:42Z</time>
      </trkpt>
      <trkpt lat="59.160754" lon="18.131704">
        <ele>48</ele>
        <time>2019-09-29T14:45:43Z</time>
      </trkpt>
      <trkpt lat="59.160684" lon="18.13163">
        <ele>47</ele>
        <time>2019-09-29T14:45:44Z</time>
      </trkpt>
      <trkpt lat="59.160614" lon="18.13158">
        <ele>47</ele>
        <time>2019-09-29T14:45:45Z</time>
      </trkpt>
      <trkpt lat="59.160544" lon="18.131554">
        <ele>47</ele>
        <time>2019-09-29T14:45:46Z</time>
      </trkpt>
      <trkpt lat="59.160473" lon="18.131542">
        <ele>46</ele>
        <time>2019-09-29T14:45:47Z</time>
      </trkpt>
      <trkpt lat="59.160404" lon="18.131535">
        <ele>46</ele>
        <time>2019-09-29T14:45:48Z</time>
      </trkpt>
      <trkpt lat="59.160339" lon="18.131541">
        <ele>46</ele>
        <time>2019-09-29T14:45:49Z</time>
      </trkpt>
      <trkpt lat="59.160277" lon="18.131557">
        <ele>46</ele>
        <time>2019-09-29T14:45:50Z</time>
      </trkpt>
      <trkpt lat="59.160216" lon="18.131581">
        <ele>46</ele>
        <time>2019-09-29T14:45:51Z</time>
      </trkpt>
      <trkpt lat="59.160163" lon="18.131618">
        <ele>46</ele>
        <time>2019-09-29T14:45:52Z</time>
      </trkpt>
      <trkpt lat="59.160113" lon="18.13167">
        <ele>46</ele>
        <time>2019-09-29T14:45:53Z</time>
      </trkpt>
      <trkpt lat="59.160063" lon="18.131718">
        <ele>46</ele>
        <time>2019-09-29T14:45:54Z</time>
      </trkpt>
      <trkpt lat="59.160021" lon="18.131758">
        <ele>46</ele>
        <time>2019-09-29T14:45:55Z</time>
      </trkpt>
      <trkpt lat="59.159983" lon="18.131796">
        <ele>46</ele>
        <time>2019-09-29T14:45:56Z</time>
      </trkpt>
      <trkpt lat="59.159954" lon="18.131832">
        <ele>46</ele>
        <time>2019-09-29T14:45:57Z</time>
      </trkpt>
      <trkpt lat="59.159924" lon="18.131859">
        <ele>46</ele>
        <time>2019-09-29T14:45:58Z</time>
      </trkpt>
      <trkpt lat="59.159896" lon="18.13187">
        <ele>46</ele>
        <time>2019-09-29T14:45:59Z</time>
      </trkpt>
      <trkpt lat="59.159864" lon="18.13186">
        <ele>47</ele>
        <time>2019-09-29T14:46:00Z</time>
      </trkpt>
      <trkpt lat="59.15984" lon="18.131831">
        <ele>47</ele>
        <time>2019-09-29T14:46:01Z</time>
      </trkpt>
      <trkpt lat="59.159829" lon="18.131783">
        <ele>47</ele>
        <time>2019-09-29T14:46:02Z</time>
      </trkpt>
      <trkpt lat="59.159826" lon="18.131725">
        <ele>47</ele>
        <time>2019-09-29T14:46:03Z</time>
      </trkpt>
      <trkpt lat="59.159827" lon="18.131663">
        <ele>47</ele>
        <time>2019-09-29T14:46:04Z</time>
      </trkpt>
      <trkpt lat="59.159826" lon="18.131602">
        <ele>47</ele>
        <time>2019-09-29T14:46:05Z</time>
      </trkpt>
      <trkpt lat="59.159824" lon="18.131541">
        <ele>47</ele>
        <time>2019-09-29T14:46:06Z</time>
      </trkpt>
      <trkpt lat="59.159821" lon="18.13148">
        <ele>47</ele>
        <time>2019-09-29T14:46:07Z</time>
      </trkpt>
      <trkpt lat="59.159816" lon="18.131422">
        <ele>47</ele>
        <time>2019-09-29T14:46:08Z</time>
      </trkpt>
      <trkpt lat="59.15981" lon="18.13136">
        <ele>47</ele>
        <time>2019-09-29T14:46:09Z</time>
      </trkpt>
      <trkpt lat="59.159805" lon="18.131298">
        <ele>47</ele>
        <time>2019-09-29T14:46:10Z</time>
      </trkpt>
      <trkpt lat="59.159801" lon="18.131238">
        <ele>48</ele>
        <time>2019-09-29T14:46:11Z</time>
      </trkpt>
      <trkpt lat="59.159797" lon="18.131178">
        <ele>48</ele>
        <time>2019-09-29T14:46:12Z</time>
      </trkpt>
      <trkpt lat="59.159792" lon="18.13112">
        <ele>48</ele>
        <time>2019-09-29T14:46:13Z</time>
      </trkpt>
      <trkpt lat="59.159788" lon="18.13106">
        <ele>48</ele>
        <time>2019-09-29T14:46:14Z</time>
      </trkpt>
      <trkpt lat="59.159784" lon="18.131004">
        <ele>48</ele>
        <time>2019-09-29T14:46:15Z</time>
      </trkpt>
      <trkpt lat="59.159782" lon="18.13095">
        <ele>48</ele>
        <time>2019-09-29T14:46:16Z</time>
      </trkpt>
      <trkpt lat="59.159781" lon="18.1309">
        <ele>48</ele>
        <time>2019-09-29T14:46:17Z</time>
      </trkpt>
      <trkpt lat="59.159779" lon="18.130844">
        <ele>48</ele>
        <time>2019-09-29T14:46:18Z</time>
      </trkpt>
      <trkpt lat="59.159775" lon="18.130788">
        <ele>48</ele>
        <time>2019-09-29T14:46:19Z</time>
      </trkpt>
      <trkpt lat="59.15977" lon="18.130722">
        <ele>48</ele>
        <time>2019-09-29T14:46:20Z</time>
      </trkpt>
      <trkpt lat="59.159763" lon="18.130648">
        <ele>48</ele>
        <time>2019-09-29T14:46:21Z</time>
      </trkpt>
      <trkpt lat="59.159753" lon="18.13057">
        <ele>48</ele>
        <time>2019-09-29T14:46:22Z</time>
      </trkpt>
      <trkpt lat="59.159737" lon="18.130504">
        <ele>48</ele>
        <time>2019-09-29T14:46:23Z</time>
      </trkpt>
      <trkpt lat="59.159711" lon="18.13047">
        <ele>48</ele>
        <time>2019-09-29T14:46:24Z</time>
      </trkpt>
      <trkpt lat="59.15968" lon="18.130464">
        <ele>48</ele>
        <time>2019-09-29T14:46:25Z</time>
      </trkpt>
      <trkpt lat="59.159654" lon="18.130446">
        <ele>48</ele>
        <time>2019-09-29T14:46:26Z</time>
      </trkpt>
      <trkpt lat="59.159643" lon="18.130396">
        <ele>48</ele>
        <time>2019-09-29T14:46:27Z</time>
      </trkpt>
      <trkpt lat="59.159652" lon="18.130326">
        <ele>48</ele>
        <time>2019-09-29T14:46:28Z</time>
      </trkpt>
      <trkpt lat="59.159671" lon="18.130264">
        <ele>47</ele>
        <time>2019-09-29T14:46:29Z</time>
      </trkpt>
      <trkpt lat="59.159708" lon="18.130238">
        <ele>47</ele>
        <time>2019-09-29T14:46:30Z</time>
      </trkpt>
      <trkpt lat="59.159753" lon="18.130232">
        <ele>47</ele>
        <time>2019-09-29T14:46:31Z</time>
      </trkpt>
      <trkpt lat="59.159841" lon="18.130208">
        <ele>47</ele>
        <time>2019-09-29T14:46:33Z</time>
      </trkpt>
      <trkpt lat="59.159892" lon="18.130176">
        <ele>47</ele>
        <time>2019-09-29T14:46:34Z</time>
      </trkpt>
      <trkpt lat="59.159948" lon="18.130144">
        <ele>47</ele>
        <time>2019-09-29T14:46:35Z</time>
      </trkpt>
      <trkpt lat="59.16001" lon="18.130116">
        <ele>47</ele>
        <time>2019-09-29T14:46:36Z</time>
      </trkpt>
      <trkpt lat="59.160074" lon="18.130092">
        <ele>47</ele>
        <time>2019-09-29T14:46:37Z</time>
      </trkpt>
      <trkpt lat="59.16014" lon="18.130072">
        <ele>47</ele>
        <time>2019-09-29T14:46:38Z</time>
      </trkpt>
      <trkpt lat="59.160207" lon="18.13007">
        <ele>47</ele>
        <time>2019-09-29T14:46:39Z</time>
      </trkpt>
      <trkpt lat="59.160277" lon="18.130074">
        <ele>47</ele>
        <time>2019-09-29T14:46:40Z</time>
      </trkpt>
      <trkpt lat="59.160347" lon="18.13009">
        <ele>47</ele>
        <time>2019-09-29T14:46:41Z</time>
      </trkpt>
      <trkpt lat="59.160413" lon="18.130104">
        <ele>47</ele>
        <time>2019-09-29T14:46:42Z</time>
      </trkpt>
      <trkpt lat="59.160473" lon="18.130122">
        <ele>47</ele>
        <time>2019-09-29T14:46:43Z</time>
      </trkpt>
      <trkpt lat="59.160529" lon="18.130128">
        <ele>47</ele>
        <time>2019-09-29T14:46:44Z</time>
      </trkpt>
      <trkpt lat="59.160583" lon="18.130114">
        <ele>47</ele>
        <time>2019-09-29T14:46:45Z</time>
      </trkpt>
      <trkpt lat="59.160632" lon="18.130086">
        <ele>46</ele>
        <time>2019-09-29T14:46:46Z</time>
      </trkpt>
      <trkpt lat="59.160675" lon="18.130052">
        <ele>46</ele>
        <time>2019-09-29T14:46:47Z</time>
      </trkpt>
      <trkpt lat="59.160712" lon="18.130014">
        <ele>46</ele>
        <time>2019-09-29T14:46:48Z</time>
      </trkpt>
      <trkpt lat="59.160743" lon="18.129978">
        <ele>46</ele>
        <time>2019-09-29T14:46:49Z</time>
      </trkpt>
      <trkpt lat="59.16077" lon="18.129928">
        <ele>46</ele>
        <time>2019-09-29T14:46:50Z</time>
      </trkpt>
      <trkpt lat="59.160802" lon="18.129878">
        <ele>46</ele>
        <time>2019-09-29T14:46:51Z</time>
      </trkpt>
      <trkpt lat="59.160832" lon="18.129828">
        <ele>46</ele>
        <time>2019-09-29T14:46:52Z</time>
      </trkpt>
      <trkpt lat="59.160859" lon="18.12979">
        <ele>46</ele>
        <time>2019-09-29T14:46:53Z</time>
      </trkpt>
      <trkpt lat="59.160887" lon="18.129776">
        <ele>46</ele>
        <time>2019-09-29T14:46:54Z</time>
      </trkpt>
      <trkpt lat="59.160914" lon="18.129788">
        <ele>46</ele>
        <time>2019-09-29T14:46:55Z</time>
      </trkpt>
      <trkpt lat="59.160937" lon="18.12982">
        <ele>47</ele>
        <time>2019-09-29T14:46:56Z</time>
      </trkpt>
      <trkpt lat="59.160955" lon="18.129858">
        <ele>47</ele>
        <time>2019-09-29T14:46:57Z</time>
      </trkpt>
      <trkpt lat="59.161034" lon="18.13">
        <ele>47</ele>
        <time>2019-09-29T14:47:00Z</time>
      </trkpt>
      <trkpt lat="59.161126" lon="18.130098">
        <ele>47</ele>
        <time>2019-09-29T14:47:02Z</time>
      </trkpt>
      <trkpt lat="59.161222" lon="18.13017">
        <ele>46</ele>
        <time>2019-09-29T14:47:04Z</time>
      </trkpt>
      <trkpt lat="59.161313" lon="18.130198">
        <ele>46</ele>
        <time>2019-09-29T14:47:06Z</time>
      </trkpt>
      <trkpt lat="59.161411" lon="18.13021">
        <ele>46</ele>
        <time>2019-09-29T14:47:08Z</time>
      </trkpt>
      <trkpt lat="59.16154" lon="18.130183">
        <ele>46</ele>
        <time>2019-09-29T14:47:10Z</time>
      </trkpt>
      <trkpt lat="59.161667" lon="18.130154">
        <ele>46</ele>
        <time>2019-09-29T14:47:12Z</time>
      </trkpt>
      <trkpt lat="59.161719" lon="18.130141">
        <ele>46</ele>
        <time>2019-09-29T14:47:13Z</time>
      </trkpt>
      <trkpt lat="59.161767" lon="18.130139">
        <ele>45</ele>
        <time>2019-09-29T14:47:14Z</time>
      </trkpt>
      <trkpt lat="59.161814" lon="18.130149">
        <ele>45</ele>
        <time>2019-09-29T14:47:15Z</time>
      </trkpt>
      <trkpt lat="59.161862" lon="18.13017">
        <ele>45</ele>
        <time>2019-09-29T14:47:16Z</time>
      </trkpt>
      <trkpt lat="59.161903" lon="18.130211">
        <ele>45</ele>
        <time>2019-09-29T14:47:17Z</time>
      </trkpt>
      <trkpt lat="59.161927" lon="18.130276">
        <ele>45</ele>
        <time>2019-09-29T14:47:18Z</time>
      </trkpt>
      <trkpt lat="59.161934" lon="18.130346">
        <ele>45</ele>
        <time>2019-09-29T14:47:19Z</time>
      </trkpt>
      <trkpt lat="59.16193" lon="18.130413">
        <ele>45</ele>
        <time>2019-09-29T14:47:20Z</time>
      </trkpt>
      <trkpt lat="59.161916" lon="18.130471">
        <ele>44</ele>
        <time>2019-09-29T14:47:21Z</time>
      </trkpt>
      <trkpt lat="59.161894" lon="18.130522">
        <ele>44</ele>
        <time>2019-09-29T14:47:22Z</time>
      </trkpt>
      <trkpt lat="59.161868" lon="18.130562">
        <ele>44</ele>
        <time>2019-09-29T14:47:23Z</time>
      </trkpt>
      <trkpt lat="59.161843" lon="18.130588">
        <ele>43</ele>
        <time>2019-09-29T14:47:24Z</time>
      </trkpt>
      <trkpt lat="59.161817" lon="18.130608">
        <ele>43</ele>
        <time>2019-09-29T14:47:25Z</time>
      </trkpt>
      <trkpt lat="59.161795" lon="18.130621">
        <ele>43</ele>
        <time>2019-09-29T14:47:26Z</time>
      </trkpt>
      <trkpt lat="59.161773" lon="18.130638">
        <ele>43</ele>
        <time>2019-09-29T14:47:27Z</time>
      </trkpt>
      <trkpt lat="59.161754" lon="18.130653">
        <ele>43</ele>
        <time>2019-09-29T14:47:28Z</time>
      </trkpt>
      <trkpt lat="59.161736" lon="18.130668">
        <ele>43</ele>
        <time>2019-09-29T14:47:29Z</time>
      </trkpt>
      <trkpt lat="59.161715" lon="18.13069">
        <ele>42</ele>
        <time>2019-09-29T14:47:31Z</time>
      </trkpt>
      <trkpt lat="59.161708" lon="18.130698">
        <ele>42</ele>
        <time>2019-09-29T14:47:37Z</time>
      </trkpt>
      <trkpt lat="59.161731" lon="18.130786">
        <ele>43</ele>
        <time>2019-09-29T14:52:49Z</time>
      </trkpt>
      <trkpt lat="59.161726" lon="18.130793">
        <ele>43</ele>
        <time>2019-09-29T14:52:49Z</time>
      </trkpt>
      <trkpt lat="59.161709" lon="18.130817">
        <ele>43</ele>
        <time>2019-09-29T14:52:52Z</time>
      </trkpt>
      <trkpt lat="59.161695" lon="18.130843">
        <ele>43</ele>
        <time>2019-09-29T14:52:54Z</time>
      </trkpt>
      <trkpt lat="59.161681" lon="18.130873">
        <ele>43</ele>
        <time>2019-09-29T14:52:56Z</time>
      </trkpt>
      <trkpt lat="59.161668" lon="18.130915">
        <ele>42</ele>
        <time>2019-09-29T14:52:59Z</time>
      </trkpt>
      <trkpt lat="59.161676" lon="18.130951">
        <ele>42</ele>
        <time>2019-09-29T14:53:02Z</time>
      </trkpt>
      <trkpt lat="59.161698" lon="18.130933">
        <ele>42</ele>
        <time>2019-09-29T14:53:04Z</time>
      </trkpt>
      <trkpt lat="59.161714" lon="18.130877">
        <ele>42</ele>
        <time>2019-09-29T14:53:06Z</time>
      </trkpt>
      <trkpt lat="59.161724" lon="18.130824">
        <ele>42</ele>
        <time>2019-09-29T14:53:08Z</time>
      </trkpt>
      <trkpt lat="59.161732" lon="18.13078">
        <ele>42</ele>
        <time>2019-09-29T14:53:10Z</time>
      </trkpt>
      <trkpt lat="59.161742" lon="18.13075">
        <ele>41</ele>
        <time>2019-09-29T14:53:12Z</time>
      </trkpt>
      <trkpt lat="59.161757" lon="18.130722">
        <ele>41</ele>
        <time>2019-09-29T14:53:14Z</time>
      </trkpt>
      <trkpt lat="59.161778" lon="18.130682">
        <ele>41</ele>
        <time>2019-09-29T14:53:16Z</time>
      </trkpt>
      <trkpt lat="59.161792" lon="18.130658">
        <ele>41</ele>
        <time>2019-09-29T14:53:17Z</time>
      </trkpt>
      <trkpt lat="59.161809" lon="18.130632">
        <ele>41</ele>
        <time>2019-09-29T14:53:18Z</time>
      </trkpt>
      <trkpt lat="59.161829" lon="18.130602">
        <ele>41</ele>
        <time>2019-09-29T14:53:19Z</time>
      </trkpt>
      <trkpt lat="59.161853" lon="18.130578">
        <ele>41</ele>
        <time>2019-09-29T14:53:20Z</time>
      </trkpt>
      <trkpt lat="59.161876" lon="18.130554">
        <ele>40</ele>
        <time>2019-09-29T14:53:21Z</time>
      </trkpt>
      <trkpt lat="59.161897" lon="18.130518">
        <ele>40</ele>
        <time>2019-09-29T14:53:22Z</time>
      </trkpt>
      <trkpt lat="59.16192" lon="18.130476">
        <ele>40</ele>
        <time>2019-09-29T14:53:23Z</time>
      </trkpt>
      <trkpt lat="59.161946" lon="18.130434">
        <ele>40</ele>
        <time>2019-09-29T14:53:24Z</time>
      </trkpt>
      <trkpt lat="59.161976" lon="18.130398">
        <ele>40</ele>
        <time>2019-09-29T14:53:25Z</time>
      </trkpt>
      <trkpt lat="59.162009" lon="18.13037">
        <ele>40</ele>
        <time>2019-09-29T14:53:26Z</time>
      </trkpt>
      <trkpt lat="59.162043" lon="18.130352">
        <ele>40</ele>
        <time>2019-09-29T14:53:27Z</time>
      </trkpt>
      <trkpt lat="59.162077" lon="18.130338">
        <ele>40</ele>
        <time>2019-09-29T14:53:28Z</time>
      </trkpt>
      <trkpt lat="59.162112" lon="18.130328">
        <ele>39</ele>
        <time>2019-09-29T14:53:29Z</time>
      </trkpt>
      <trkpt lat="59.162148" lon="18.13033">
        <ele>39</ele>
        <time>2019-09-29T14:53:30Z</time>
      </trkpt>
      <trkpt lat="59.162185" lon="18.130338">
        <ele>39</ele>
        <time>2019-09-29T14:53:31Z</time>
      </trkpt>
      <trkpt lat="59.162222" lon="18.130348">
        <ele>39</ele>
        <time>2019-09-29T14:53:32Z</time>
      </trkpt>
      <trkpt lat="59.162259" lon="18.130358">
        <ele>39</ele>
        <time>2019-09-29T14:53:33Z</time>
      </trkpt>
      <trkpt lat="59.162295" lon="18.130366">
        <ele>39</ele>
        <time>2019-09-29T14:53:34Z</time>
      </trkpt>
      <trkpt lat="59.162331" lon="18.130374">
        <ele>39</ele>
        <time>2019-09-29T14:53:35Z</time>
      </trkpt>
      <trkpt lat="59.162366" lon="18.130384">
        <ele>39</ele>
        <time>2019-09-29T14:53:36Z</time>
      </trkpt>
      <trkpt lat="59.162397" lon="18.130414">
        <ele>39</ele>
        <time>2019-09-29T14:53:37Z</time>
      </trkpt>
      <trkpt lat="59.162418" lon="18.13046">
        <ele>38</ele>
        <time>2019-09-29T14:53:38Z</time>
      </trkpt>
      <trkpt lat="59.162432" lon="18.130506">
        <ele>38</ele>
        <time>2019-09-29T14:53:39Z</time>
      </trkpt>
      <trkpt lat="59.162439" lon="18.130548">
        <ele>38</ele>
        <time>2019-09-29T14:53:40Z</time>
      </trkpt>
      <trkpt lat="59.162445" lon="18.130586">
        <ele>38</ele>
        <time>2019-09-29T14:53:41Z</time>
      </trkpt>
      <trkpt lat="59.16245" lon="18.130628">
        <ele>38</ele>
        <time>2019-09-29T14:53:42Z</time>
      </trkpt>
      <trkpt lat="59.162452" lon="18.13067">
        <ele>37</ele>
        <time>2019-09-29T14:53:43Z</time>
      </trkpt>
      <trkpt lat="59.162452" lon="18.130706">
        <ele>37</ele>
        <time>2019-09-29T14:53:44Z</time>
      </trkpt>
      <trkpt lat="59.162447" lon="18.130756">
        <ele>37</ele>
        <time>2019-09-29T14:53:46Z</time>
      </trkpt>
      <trkpt lat="59.162442" lon="18.130776">
        <ele>37</ele>
        <time>2019-09-29T14:53:51Z</time>
      </trkpt>
      <trkpt lat="59.162419" lon="18.130683">
        <ele>38</ele>
        <time>2019-09-29T15:12:01Z</time>
      </trkpt>
      <trkpt lat="59.162417" lon="18.130637">
        <ele>38</ele>
        <time>2019-09-29T15:12:03Z</time>
      </trkpt>
      <trkpt lat="59.162409" lon="18.130588">
        <ele>38</ele>
        <time>2019-09-29T15:12:03Z</time>
      </trkpt>
      <trkpt lat="59.162396" lon="18.130537">
        <ele>38</ele>
        <time>2019-09-29T15:12:04Z</time>
      </trkpt>
      <trkpt lat="59.162379" lon="18.13049">
        <ele>38</ele>
        <time>2019-09-29T15:12:05Z</time>
      </trkpt>
      <trkpt lat="59.16236" lon="18.130445">
        <ele>38</ele>
        <time>2019-09-29T15:12:06Z</time>
      </trkpt>
      <trkpt lat="59.162341" lon="18.130405">
        <ele>38</ele>
        <time>2019-09-29T15:12:07Z</time>
      </trkpt>
      <trkpt lat="59.162318" lon="18.130372">
        <ele>38</ele>
        <time>2019-09-29T15:12:08Z</time>
      </trkpt>
      <trkpt lat="59.162293" lon="18.130349">
        <ele>38</ele>
        <time>2019-09-29T15:12:09Z</time>
      </trkpt>
      <trkpt lat="59.162267" lon="18.130335">
        <ele>38</ele>
        <time>2019-09-29T15:12:10Z</time>
      </trkpt>
      <trkpt lat="59.162237" lon="18.130321">
        <ele>38</ele>
        <time>2019-09-29T15:12:11Z</time>
      </trkpt>
      <trkpt lat="59.162204" lon="18.130306">
        <ele>38</ele>
        <time>2019-09-29T15:12:12Z</time>
      </trkpt>
      <trkpt lat="59.16217" lon="18.130289">
        <ele>38</ele>
        <time>2019-09-29T15:12:13Z</time>
      </trkpt>
      <trkpt lat="59.162135" lon="18.130274">
        <ele>38</ele>
        <time>2019-09-29T15:12:14Z</time>
      </trkpt>
      <trkpt lat="59.162098" lon="18.130261">
        <ele>38</ele>
        <time>2019-09-29T15:12:15Z</time>
      </trkpt>
      <trkpt lat="59.16206" lon="18.13025">
        <ele>38</ele>
        <time>2019-09-29T15:12:16Z</time>
      </trkpt>
      <trkpt lat="59.162023" lon="18.130237">
        <ele>38</ele>
        <time>2019-09-29T15:12:17Z</time>
      </trkpt>
      <trkpt lat="59.161985" lon="18.130219">
        <ele>38</ele>
        <time>2019-09-29T15:12:18Z</time>
      </trkpt>
      <trkpt lat="59.161946" lon="18.1302">
        <ele>38</ele>
        <time>2019-09-29T15:12:19Z</time>
      </trkpt>
      <trkpt lat="59.161906" lon="18.130183">
        <ele>38</ele>
        <time>2019-09-29T15:12:20Z</time>
      </trkpt>
      <trkpt lat="59.161863" lon="18.130165">
        <ele>38</ele>
        <time>2019-09-29T15:12:21Z</time>
      </trkpt>
      <trkpt lat="59.161817" lon="18.130147">
        <ele>38</ele>
        <time>2019-09-29T15:12:23Z</time>
      </trkpt>
      <trkpt lat="59.161768" lon="18.130133">
        <ele>38</ele>
        <time>2019-09-29T15:12:23Z</time>
      </trkpt>
      <trkpt lat="59.16172" lon="18.130129">
        <ele>38</ele>
        <time>2019-09-29T15:12:24Z</time>
      </trkpt>
      <trkpt lat="59.161673" lon="18.130131">
        <ele>38</ele>
        <time>2019-09-29T15:12:25Z</time>
      </trkpt>
      <trkpt lat="59.161627" lon="18.130139">
        <ele>39</ele>
        <time>2019-09-29T15:12:26Z</time>
      </trkpt>
      <trkpt lat="59.161582" lon="18.130154">
        <ele>39</ele>
        <time>2019-09-29T15:12:27Z</time>
      </trkpt>
      <trkpt lat="59.161542" lon="18.130172">
        <ele>39</ele>
        <time>2019-09-29T15:12:28Z</time>
      </trkpt>
      <trkpt lat="59.161509" lon="18.130189">
        <ele>39</ele>
        <time>2019-09-29T15:12:29Z</time>
      </trkpt>
      <trkpt lat="59.16148" lon="18.130205">
        <ele>39</ele>
        <time>2019-09-29T15:12:30Z</time>
      </trkpt>
      <trkpt lat="59.161451" lon="18.130218">
        <ele>39</ele>
        <time>2019-09-29T15:12:31Z</time>
      </trkpt>
      <trkpt lat="59.161418" lon="18.130218">
        <ele>39</ele>
        <time>2019-09-29T15:12:32Z</time>
      </trkpt>
      <trkpt lat="59.161386" lon="18.130214">
        <ele>39</ele>
        <time>2019-09-29T15:12:33Z</time>
      </trkpt>
      <trkpt lat="59.161355" lon="18.130207">
        <ele>40</ele>
        <time>2019-09-29T15:12:34Z</time>
      </trkpt>
      <trkpt lat="59.161322" lon="18.130196">
        <ele>40</ele>
        <time>2019-09-29T15:12:35Z</time>
      </trkpt>
      <trkpt lat="59.161291" lon="18.130187">
        <ele>40</ele>
        <time>2019-09-29T15:12:36Z</time>
      </trkpt>
      <trkpt lat="59.161261" lon="18.130178">
        <ele>40</ele>
        <time>2019-09-29T15:12:37Z</time>
      </trkpt>
      <trkpt lat="59.161229" lon="18.130168">
        <ele>40</ele>
        <time>2019-09-29T15:12:38Z</time>
      </trkpt>
      <trkpt lat="59.161199" lon="18.130152">
        <ele>40</ele>
        <time>2019-09-29T15:12:39Z</time>
      </trkpt>
      <trkpt lat="59.161172" lon="18.130139">
        <ele>40</ele>
        <time>2019-09-29T15:12:40Z</time>
      </trkpt>
      <trkpt lat="59.161148" lon="18.13013">
        <ele>40</ele>
        <time>2019-09-29T15:12:41Z</time>
      </trkpt>
      <trkpt lat="59.161122" lon="18.130109">
        <ele>41</ele>
        <time>2019-09-29T15:12:42Z</time>
      </trkpt>
      <trkpt lat="59.161099" lon="18.130079">
        <ele>41</ele>
        <time>2019-09-29T15:12:43Z</time>
      </trkpt>
      <trkpt lat="59.161078" lon="18.130051">
        <ele>41</ele>
        <time>2019-09-29T15:12:44Z</time>
      </trkpt>
      <trkpt lat="59.161054" lon="18.130024">
        <ele>41</ele>
        <time>2019-09-29T15:12:45Z</time>
      </trkpt>
      <trkpt lat="59.161033" lon="18.129998">
        <ele>41</ele>
        <time>2019-09-29T15:12:46Z</time>
      </trkpt>
      <trkpt lat="59.161012" lon="18.129973">
        <ele>42</ele>
        <time>2019-09-29T15:12:47Z</time>
      </trkpt>
      <trkpt lat="59.160996" lon="18.12995">
        <ele>42</ele>
        <time>2019-09-29T15:12:48Z</time>
      </trkpt>
      <trkpt lat="59.160978" lon="18.129925">
        <ele>42</ele>
        <time>2019-09-29T15:12:49Z</time>
      </trkpt>
      <trkpt lat="59.160957" lon="18.129898">
        <ele>42</ele>
        <time>2019-09-29T15:12:50Z</time>
      </trkpt>
      <trkpt lat="59.160939" lon="18.129867">
        <ele>43</ele>
        <time>2019-09-29T15:12:51Z</time>
      </trkpt>
      <trkpt lat="59.160913" lon="18.129839">
        <ele>43</ele>
        <time>2019-09-29T15:12:52Z</time>
      </trkpt>
      <trkpt lat="59.160886" lon="18.129811">
        <ele>43</ele>
        <time>2019-09-29T15:12:53Z</time>
      </trkpt>
      <trkpt lat="59.16086" lon="18.12978">
        <ele>43</ele>
        <time>2019-09-29T15:12:54Z</time>
      </trkpt>
      <trkpt lat="59.160836" lon="18.129753">
        <ele>43</ele>
        <time>2019-09-29T15:12:55Z</time>
      </trkpt>
      <trkpt lat="59.160815" lon="18.129725">
        <ele>43</ele>
        <time>2019-09-29T15:12:56Z</time>
      </trkpt>
      <trkpt lat="59.160796" lon="18.129701">
        <ele>43</ele>
        <time>2019-09-29T15:12:57Z</time>
      </trkpt>
      <trkpt lat="59.160774" lon="18.129683">
        <ele>43</ele>
        <time>2019-09-29T15:12:58Z</time>
      </trkpt>
      <trkpt lat="59.160753" lon="18.12967">
        <ele>43</ele>
        <time>2019-09-29T15:12:59Z</time>
      </trkpt>
      <trkpt lat="59.160733" lon="18.129657">
        <ele>43</ele>
        <time>2019-09-29T15:13:00Z</time>
      </trkpt>
      <trkpt lat="59.160702" lon="18.129636">
        <ele>44</ele>
        <time>2019-09-29T15:13:02Z</time>
      </trkpt>
      <trkpt lat="59.160672" lon="18.1296">
        <ele>44</ele>
        <time>2019-09-29T15:13:04Z</time>
      </trkpt>
      <trkpt lat="59.160642" lon="18.129567">
        <ele>45</ele>
        <time>2019-09-29T15:13:06Z</time>
      </trkpt>
      <trkpt lat="59.160614" lon="18.129531">
        <ele>45</ele>
        <time>2019-09-29T15:13:08Z</time>
      </trkpt>
      <trkpt lat="59.160579" lon="18.129504">
        <ele>46</ele>
        <time>2019-09-29T15:13:10Z</time>
      </trkpt>
      <trkpt lat="59.16055" lon="18.129482">
        <ele>47</ele>
        <time>2019-09-29T15:13:12Z</time>
      </trkpt>
      <trkpt lat="59.160521" lon="18.129457">
        <ele>47</ele>
        <time>2019-09-29T15:13:14Z</time>
      </trkpt>
      <trkpt lat="59.160498" lon="18.129441">
        <ele>48</ele>
        <time>2019-09-29T15:13:16Z</time>
      </trkpt>
      <trkpt lat="59.160469" lon="18.129423">
        <ele>48</ele>
        <time>2019-09-29T15:13:18Z</time>
      </trkpt>
      <trkpt lat="59.160441" lon="18.129387">
        <ele>49</ele>
        <time>2019-09-29T15:13:20Z</time>
      </trkpt>
      <trkpt lat="59.160411" lon="18.129352">
        <ele>49</ele>
        <time>2019-09-29T15:13:22Z</time>
      </trkpt>
      <trkpt lat="59.160386" lon="18.129337">
        <ele>49</ele>
        <time>2019-09-29T15:13:24Z</time>
      </trkpt>
      <trkpt lat="59.160364" lon="18.129325">
        <ele>50</ele>
        <time>2019-09-29T15:13:26Z</time>
      </trkpt>
      <trkpt lat="59.160335" lon="18.129312">
        <ele>51</ele>
        <time>2019-09-29T15:13:28Z</time>
      </trkpt>
      <trkpt lat="59.160303" lon="18.12931">
        <ele>51</ele>
        <time>2019-09-29T15:13:30Z</time>
      </trkpt>
      <trkpt lat="59.160281" lon="18.129306">
        <ele>52</ele>
        <time>2019-09-29T15:13:32Z</time>
      </trkpt>
      <trkpt lat="59.16026" lon="18.129321">
        <ele>52</ele>
        <time>2019-09-29T15:13:34Z</time>
      </trkpt>
      <trkpt lat="59.160232" lon="18.129327">
        <ele>52</ele>
        <time>2019-09-29T15:13:36Z</time>
      </trkpt>
      <trkpt lat="59.160207" lon="18.129307">
        <ele>52</ele>
        <time>2019-09-29T15:13:38Z</time>
      </trkpt>
      <trkpt lat="59.160181" lon="18.129282">
        <ele>53</ele>
        <time>2019-09-29T15:13:40Z</time>
      </trkpt>
      <trkpt lat="59.160159" lon="18.129258">
        <ele>52</ele>
        <time>2019-09-29T15:13:42Z</time>
      </trkpt>
      <trkpt lat="59.16014" lon="18.129227">
        <ele>52</ele>
        <time>2019-09-29T15:13:45Z</time>
      </trkpt>
      <trkpt lat="59.16012" lon="18.129197">
        <ele>52</ele>
        <time>2019-09-29T15:13:48Z</time>
      </trkpt>
      <trkpt lat="59.160101" lon="18.129177">
        <ele>52</ele>
        <time>2019-09-29T15:13:52Z</time>
      </trkpt>
      <trkpt lat="59.160086" lon="18.129153">
        <ele>53</ele>
        <time>2019-09-29T15:13:55Z</time>
      </trkpt>
      <trkpt lat="59.160065" lon="18.129147">
        <ele>54</ele>
        <time>2019-09-29T15:13:58Z</time>
      </trkpt>
      <trkpt lat="59.160046" lon="18.129146">
        <ele>54</ele>
        <time>2019-09-29T15:14:02Z</time>
      </trkpt>
      <trkpt lat="59.160026" lon="18.129119">
        <ele>55</ele>
        <time>2019-09-29T15:14:05Z</time>
      </trkpt>
      <trkpt lat="59.160003" lon="18.129088">
        <ele>55</ele>
        <time>2019-09-29T15:14:07Z</time>
      </trkpt>
      <trkpt lat="59.159978" lon="18.129093">
        <ele>56</ele>
        <time>2019-09-29T15:14:09Z</time>
      </trkpt>
      <trkpt lat="59.159949" lon="18.129092">
        <ele>56</ele>
        <time>2019-09-29T15:14:11Z</time>
      </trkpt>
      <trkpt lat="59.15992" lon="18.129089">
        <ele>56</ele>
        <time>2019-09-29T15:14:13Z</time>
      </trkpt>
      <trkpt lat="59.159887" lon="18.129085">
        <ele>57</ele>
        <time>2019-09-29T15:14:15Z</time>
      </trkpt>
      <trkpt lat="59.159855" lon="18.129074">
        <ele>57</ele>
        <time>2019-09-29T15:14:17Z</time>
      </trkpt>
      <trkpt lat="59.159832" lon="18.129066">
        <ele>57</ele>
        <time>2019-09-29T15:14:19Z</time>
      </trkpt>
      <trkpt lat="59.159806" lon="18.129069">
        <ele>57</ele>
        <time>2019-09-29T15:14:21Z</time>
      </trkpt>
      <trkpt lat="59.159779" lon="18.129059">
        <ele>57</ele>
        <time>2019-09-29T15:14:23Z</time>
      </trkpt>
      <trkpt lat="59.159745" lon="18.129036">
        <ele>57</ele>
        <time>2019-09-29T15:14:25Z</time>
      </trkpt>
      <trkpt lat="59.159726" lon="18.129029">
        <ele>57</ele>
        <time>2019-09-29T15:14:26Z</time>
      </trkpt>
      <trkpt lat="59.159706" lon="18.129024">
        <ele>57</ele>
        <time>2019-09-29T15:14:27Z</time>
      </trkpt>
      <trkpt lat="59.159675" lon="18.129005">
        <ele>57</ele>
        <time>2019-09-29T15:14:29Z</time>
      </trkpt>
      <trkpt lat="59.159641" lon="18.128986">
        <ele>57</ele>
        <time>2019-09-29T15:14:31Z</time>
      </trkpt>
      <trkpt lat="59.159609" lon="18.128968">
        <ele>57</ele>
        <time>2019-09-29T15:14:33Z</time>
      </trkpt>
      <trkpt lat="59.159582" lon="18.128962">
        <ele>57</ele>
        <time>2019-09-29T15:14:35Z</time>
      </trkpt>
      <trkpt lat="59.159561" lon="18.128956">
        <ele>57</ele>
        <time>2019-09-29T15:14:37Z</time>
      </trkpt>
      <trkpt lat="59.15954" lon="18.128952">
        <ele>57</ele>
        <time>2019-09-29T15:14:39Z</time>
      </trkpt>
      <trkpt lat="59.159519" lon="18.12894">
        <ele>57</ele>
        <time>2019-09-29T15:14:42Z</time>
      </trkpt>
      <trkpt lat="59.159515" lon="18.128935">
        <ele>58</ele>
        <time>2019-09-29T15:14:47Z</time>
      </trkpt>
      <trkpt lat="59.159469" lon="18.128899">
        <ele>58</ele>
        <time>2019-09-29T15:18:33Z</time>
      </trkpt>
      <trkpt lat="59.159455" lon="18.128889">
        <ele>58</ele>
        <time>2019-09-29T15:18:35Z</time>
      </trkpt>
      <trkpt lat="59.159431" lon="18.128862">
        <ele>58</ele>
        <time>2019-09-29T15:18:36Z</time>
      </trkpt>
      <trkpt lat="59.159408" lon="18.128826">
        <ele>58</ele>
        <time>2019-09-29T15:18:38Z</time>
      </trkpt>
      <trkpt lat="59.159398" lon="18.128812">
        <ele>58</ele>
        <time>2019-09-29T15:18:45Z</time>
      </trkpt>
      <trkpt lat="59.159376" lon="18.128869">
        <ele>56</ele>
        <time>2019-09-29T15:21:05Z</time>
      </trkpt>
      <trkpt lat="59.159359" lon="18.128868">
        <ele>57</ele>
        <time>2019-09-29T15:21:07Z</time>
      </trkpt>
      <trkpt lat="59.159328" lon="18.128846">
        <ele>57</ele>
        <time>2019-09-29T15:21:08Z</time>
      </trkpt>
      <trkpt lat="59.159308" lon="18.128836">
        <ele>57</ele>
        <time>2019-09-29T15:21:09Z</time>
      </trkpt>
      <trkpt lat="59.159287" lon="18.128836">
        <ele>57</ele>
        <time>2019-09-29T15:21:10Z</time>
      </trkpt>
      <trkpt lat="59.159267" lon="18.128838">
        <ele>57</ele>
        <time>2019-09-29T15:21:11Z</time>
      </trkpt>
      <trkpt lat="59.159246" lon="18.128834">
        <ele>57</ele>
        <time>2019-09-29T15:21:12Z</time>
      </trkpt>
      <trkpt lat="59.159222" lon="18.128818">
        <ele>57</ele>
        <time>2019-09-29T15:21:13Z</time>
      </trkpt>
      <trkpt lat="59.159194" lon="18.128806">
        <ele>57</ele>
        <time>2019-09-29T15:21:15Z</time>
      </trkpt>
      <trkpt lat="59.159171" lon="18.128812">
        <ele>57</ele>
        <time>2019-09-29T15:21:16Z</time>
      </trkpt>
      <trkpt lat="59.159144" lon="18.128808">
        <ele>57</ele>
        <time>2019-09-29T15:21:17Z</time>
      </trkpt>
      <trkpt lat="59.159119" lon="18.128794">
        <ele>58</ele>
        <time>2019-09-29T15:21:18Z</time>
      </trkpt>
      <trkpt lat="59.159097" lon="18.128776">
        <ele>58</ele>
        <time>2019-09-29T15:21:19Z</time>
      </trkpt>
      <trkpt lat="59.159075" lon="18.12875">
        <ele>58</ele>
        <time>2019-09-29T15:21:20Z</time>
      </trkpt>
      <trkpt lat="59.159061" lon="18.128728">
        <ele>58</ele>
        <time>2019-09-29T15:21:24Z</time>
      </trkpt>
      <trkpt lat="59.159042" lon="18.128676">
        <ele>58</ele>
        <time>2019-09-29T15:21:28Z</time>
      </trkpt>
      <trkpt lat="59.159036" lon="18.128634">
        <ele>58</ele>
        <time>2019-09-29T15:21:30Z</time>
      </trkpt>
      <trkpt lat="59.159016" lon="18.128598">
        <ele>57</ele>
        <time>2019-09-29T15:21:32Z</time>
      </trkpt>
      <trkpt lat="59.158995" lon="18.128588">
        <ele>57</ele>
        <time>2019-09-29T15:21:34Z</time>
      </trkpt>
      <trkpt lat="59.158963" lon="18.128608">
        <ele>57</ele>
        <time>2019-09-29T15:21:36Z</time>
      </trkpt>
      <trkpt lat="59.158937" lon="18.128606">
        <ele>57</ele>
        <time>2019-09-29T15:21:37Z</time>
      </trkpt>
      <trkpt lat="59.158911" lon="18.12859">
        <ele>57</ele>
        <time>2019-09-29T15:21:38Z</time>
      </trkpt>
      <trkpt lat="59.158887" lon="18.128558">
        <ele>57</ele>
        <time>2019-09-29T15:21:39Z</time>
      </trkpt>
      <trkpt lat="59.158867" lon="18.12853">
        <ele>57</ele>
        <time>2019-09-29T15:21:40Z</time>
      </trkpt>
      <trkpt lat="59.158853" lon="18.128502">
        <ele>57</ele>
        <time>2019-09-29T15:21:41Z</time>
      </trkpt>
      <trkpt lat="59.158835" lon="18.128484">
        <ele>57</ele>
        <time>2019-09-29T15:21:42Z</time>
      </trkpt>
      <trkpt lat="59.158819" lon="18.128468">
        <ele>56</ele>
        <time>2019-09-29T15:21:43Z</time>
      </trkpt>
      <trkpt lat="59.158794" lon="18.128454">
        <ele>56</ele>
        <time>2019-09-29T15:21:45Z</time>
      </trkpt>
      <trkpt lat="59.158787" lon="18.128456">
        <ele>56</ele>
        <time>2019-09-29T15:21:49Z</time>
      </trkpt>
      <trkpt lat="59.158748" lon="18.128383">
        <ele>53</ele>
        <time>2019-09-29T15:24:25Z</time>
      </trkpt>
      <trkpt lat="59.158731" lon="18.128361">
        <ele>53</ele>
        <time>2019-09-29T15:24:26Z</time>
      </trkpt>
      <trkpt lat="59.158716" lon="18.128334">
        <ele>53</ele>
        <time>2019-09-29T15:24:27Z</time>
      </trkpt>
      <trkpt lat="59.1587" lon="18.128299">
        <ele>53</ele>
        <time>2019-09-29T15:24:28Z</time>
      </trkpt>
      <trkpt lat="59.158686" lon="18.128255">
        <ele>53</ele>
        <time>2019-09-29T15:24:29Z</time>
      </trkpt>
      <trkpt lat="59.158674" lon="18.128208">
        <ele>53</ele>
        <time>2019-09-29T15:24:30Z</time>
      </trkpt>
      <trkpt lat="59.158663" lon="18.128165">
        <ele>53</ele>
        <time>2019-09-29T15:24:31Z</time>
      </trkpt>
      <trkpt lat="59.15865" lon="18.128123">
        <ele>53</ele>
        <time>2019-09-29T15:24:32Z</time>
      </trkpt>
      <trkpt lat="59.158634" lon="18.12808">
        <ele>53</ele>
        <time>2019-09-29T15:24:33Z</time>
      </trkpt>
      <trkpt lat="59.158621" lon="18.128035">
        <ele>53</ele>
        <time>2019-09-29T15:24:34Z</time>
      </trkpt>
      <trkpt lat="59.15861" lon="18.127983">
        <ele>53</ele>
        <time>2019-09-29T15:24:35Z</time>
      </trkpt>
      <trkpt lat="59.158598" lon="18.127935">
        <ele>53</ele>
        <time>2019-09-29T15:24:36Z</time>
      </trkpt>
      <trkpt lat="59.158576" lon="18.127899">
        <ele>53</ele>
        <time>2019-09-29T15:24:37Z</time>
      </trkpt>
      <trkpt lat="59.158547" lon="18.127866">
        <ele>53</ele>
        <time>2019-09-29T15:24:38Z</time>
      </trkpt>
      <trkpt lat="59.158518" lon="18.127841">
        <ele>53</ele>
        <time>2019-09-29T15:24:39Z</time>
      </trkpt>
      <trkpt lat="59.158492" lon="18.127822">
        <ele>53</ele>
        <time>2019-09-29T15:24:40Z</time>
      </trkpt>
      <trkpt lat="59.15847" lon="18.127806">
        <ele>54</ele>
        <time>2019-09-29T15:24:41Z</time>
      </trkpt>
      <trkpt lat="59.158444" lon="18.127796">
        <ele>54</ele>
        <time>2019-09-29T15:24:42Z</time>
      </trkpt>
      <trkpt lat="59.158418" lon="18.127788">
        <ele>54</ele>
        <time>2019-09-29T15:24:43Z</time>
      </trkpt>
      <trkpt lat="59.15839" lon="18.127786">
        <ele>54</ele>
        <time>2019-09-29T15:24:44Z</time>
      </trkpt>
      <trkpt lat="59.158366" lon="18.12779">
        <ele>54</ele>
        <time>2019-09-29T15:24:45Z</time>
      </trkpt>
      <trkpt lat="59.15834" lon="18.127798">
        <ele>54</ele>
        <time>2019-09-29T15:24:46Z</time>
      </trkpt>
      <trkpt lat="59.158308" lon="18.127805">
        <ele>54</ele>
        <time>2019-09-29T15:24:47Z</time>
      </trkpt>
      <trkpt lat="59.158274" lon="18.12781">
        <ele>54</ele>
        <time>2019-09-29T15:24:48Z</time>
      </trkpt>
      <trkpt lat="59.15824" lon="18.127821">
        <ele>54</ele>
        <time>2019-09-29T15:24:49Z</time>
      </trkpt>
      <trkpt lat="59.158205" lon="18.127824">
        <ele>54</ele>
        <time>2019-09-29T15:24:50Z</time>
      </trkpt>
      <trkpt lat="59.158163" lon="18.127823">
        <ele>55</ele>
        <time>2019-09-29T15:24:51Z</time>
      </trkpt>
      <trkpt lat="59.158122" lon="18.127824">
        <ele>55</ele>
        <time>2019-09-29T15:24:52Z</time>
      </trkpt>
      <trkpt lat="59.158077" lon="18.127827">
        <ele>55</ele>
        <time>2019-09-29T15:24:53Z</time>
      </trkpt>
      <trkpt lat="59.15803" lon="18.127827">
        <ele>55</ele>
        <time>2019-09-29T15:24:54Z</time>
      </trkpt>
      <trkpt lat="59.157981" lon="18.127814">
        <ele>55</ele>
        <time>2019-09-29T15:24:55Z</time>
      </trkpt>
      <trkpt lat="59.157928" lon="18.12779">
        <ele>55</ele>
        <time>2019-09-29T15:24:56Z</time>
      </trkpt>
      <trkpt lat="59.157871" lon="18.127756">
        <ele>55</ele>
        <time>2019-09-29T15:24:57Z</time>
      </trkpt>
      <trkpt lat="59.157808" lon="18.127716">
        <ele>55</ele>
        <time>2019-09-29T15:24:58Z</time>
      </trkpt>
      <trkpt lat="59.157746" lon="18.127666">
        <ele>55</ele>
        <time>2019-09-29T15:24:59Z</time>
      </trkpt>
      <trkpt lat="59.157688" lon="18.127609">
        <ele>55</ele>
        <time>2019-09-29T15:25:00Z</time>
      </trkpt>
      <trkpt lat="59.157636" lon="18.127548">
        <ele>55</ele>
        <time>2019-09-29T15:25:01Z</time>
      </trkpt>
      <trkpt lat="59.157586" lon="18.127495">
        <ele>55</ele>
        <time>2019-09-29T15:25:02Z</time>
      </trkpt>
      <trkpt lat="59.157537" lon="18.127447">
        <ele>55</ele>
        <time>2019-09-29T15:25:03Z</time>
      </trkpt>
      <trkpt lat="59.157492" lon="18.127407">
        <ele>54</ele>
        <time>2019-09-29T15:25:04Z</time>
      </trkpt>
      <trkpt lat="59.157456" lon="18.127382">
        <ele>54</ele>
        <time>2019-09-29T15:25:05Z</time>
      </trkpt>
      <trkpt lat="59.157429" lon="18.127368">
        <ele>54</ele>
        <time>2019-09-29T15:25:06Z</time>
      </trkpt>
      <trkpt lat="59.157403" lon="18.127346">
        <ele>54</ele>
        <time>2019-09-29T15:25:08Z</time>
      </trkpt>
      <trkpt lat="59.157378" lon="18.127358">
        <ele>54</ele>
        <time>2019-09-29T15:25:10Z</time>
      </trkpt>
      <trkpt lat="59.157366" lon="18.127345">
        <ele>54</ele>
        <time>2019-09-29T15:25:15Z</time>
      </trkpt>
      <trkpt lat="59.157356" lon="18.127315">
        <ele>0</ele>
        <time>2019-09-29T15:25:42Z</time>
      </trkpt>
      <trkpt lat="59.157357" lon="18.127296">
        <ele>53</ele>
        <time>2019-09-29T15:25:44Z</time>
      </trkpt>
      <trkpt lat="59.157355" lon="18.127261">
        <ele>53</ele>
        <time>2019-09-29T15:25:44Z</time>
      </trkpt>
      <trkpt lat="59.157346" lon="18.127201">
        <ele>52</ele>
        <time>2019-09-29T15:25:46Z</time>
      </trkpt>
      <trkpt lat="59.157341" lon="18.127166">
        <ele>52</ele>
        <time>2019-09-29T15:25:47Z</time>
      </trkpt>
      <trkpt lat="59.157332" lon="18.127118">
        <ele>53</ele>
        <time>2019-09-29T15:25:48Z</time>
      </trkpt>
      <trkpt lat="59.157315" lon="18.127078">
        <ele>52</ele>
        <time>2019-09-29T15:25:49Z</time>
      </trkpt>
      <trkpt lat="59.157291" lon="18.12706">
        <ele>53</ele>
        <time>2019-09-29T15:25:50Z</time>
      </trkpt>
      <trkpt lat="59.157264" lon="18.127065">
        <ele>53</ele>
        <time>2019-09-29T15:25:51Z</time>
      </trkpt>
      <trkpt lat="59.157242" lon="18.127068">
        <ele>53</ele>
        <time>2019-09-29T15:25:52Z</time>
      </trkpt>
      <trkpt lat="59.157223" lon="18.12708">
        <ele>53</ele>
        <time>2019-09-29T15:25:53Z</time>
      </trkpt>
      <trkpt lat="59.157205" lon="18.1271">
        <ele>53</ele>
        <time>2019-09-29T15:25:54Z</time>
      </trkpt>
      <trkpt lat="59.157179" lon="18.127132">
        <ele>53</ele>
        <time>2019-09-29T15:25:56Z</time>
      </trkpt>
      <trkpt lat="59.157161" lon="18.127175">
        <ele>53</ele>
        <time>2019-09-29T15:25:58Z</time>
      </trkpt>
      <trkpt lat="59.157158" lon="18.127213">
        <ele>54</ele>
        <time>2019-09-29T15:26:00Z</time>
      </trkpt>
      <trkpt lat="59.157179" lon="18.127206">
        <ele>54</ele>
        <time>2019-09-29T15:26:04Z</time>
      </trkpt>
      <trkpt lat="59.157203" lon="18.127232">
        <ele>54</ele>
        <time>2019-09-29T15:26:06Z</time>
      </trkpt>
      <trkpt lat="59.157221" lon="18.127271">
        <ele>54</ele>
        <time>2019-09-29T15:26:08Z</time>
      </trkpt>
      <trkpt lat="59.157193" lon="18.127276">
        <ele>55</ele>
        <time>2019-09-29T15:26:11Z</time>
      </trkpt>
      <trkpt lat="59.157162" lon="18.127257">
        <ele>55</ele>
        <time>2019-09-29T15:26:13Z</time>
      </trkpt>
      <trkpt lat="59.15714" lon="18.127236">
        <ele>55</ele>
        <time>2019-09-29T15:26:15Z</time>
      </trkpt>
      <trkpt lat="59.157119" lon="18.127257">
        <ele>55</ele>
        <time>2019-09-29T15:26:20Z</time>
      </trkpt>
      <trkpt lat="59.157093" lon="18.127266">
        <ele>56</ele>
        <time>2019-09-29T15:26:22Z</time>
      </trkpt>
      <trkpt lat="59.157119" lon="18.127246">
        <ele>56</ele>
        <time>2019-09-29T15:26:28Z</time>
      </trkpt>
      <trkpt lat="59.157137" lon="18.127193">
        <ele>56</ele>
        <time>2019-09-29T15:26:30Z</time>
      </trkpt>
      <trkpt lat="59.157144" lon="18.127161">
        <ele>55</ele>
        <time>2019-09-29T15:26:31Z</time>
      </trkpt>
      <trkpt lat="59.157156" lon="18.127127">
        <ele>55</ele>
        <time>2019-09-29T15:26:32Z</time>
      </trkpt>
      <trkpt lat="59.157176" lon="18.127087">
        <ele>55</ele>
        <time>2019-09-29T15:26:34Z</time>
      </trkpt>
      <trkpt lat="59.157187" lon="18.127056">
        <ele>55</ele>
        <time>2019-09-29T15:26:36Z</time>
      </trkpt>
      <trkpt lat="59.157195" lon="18.127015">
        <ele>54</ele>
        <time>2019-09-29T15:26:39Z</time>
      </trkpt>
      <trkpt lat="59.157191" lon="18.126981">
        <ele>54</ele>
        <time>2019-09-29T15:26:44Z</time>
      </trkpt>
      <trkpt lat="59.157191" lon="18.126944">
        <ele>54</ele>
        <time>2019-09-29T15:26:48Z</time>
      </trkpt>
      <trkpt lat="59.157192" lon="18.12694">
        <ele>54</ele>
        <time>2019-09-29T15:26:52Z</time>
      </trkpt>
      <trkpt lat="59.15718" lon="18.126872">
        <ele>56</ele>
        <time>2019-09-29T15:29:30Z</time>
      </trkpt>
      <trkpt lat="59.157173" lon="18.126836">
        <ele>56</ele>
        <time>2019-09-29T15:29:30Z</time>
      </trkpt>
      <trkpt lat="59.157151" lon="18.126793">
        <ele>56</ele>
        <time>2019-09-29T15:29:32Z</time>
      </trkpt>
      <trkpt lat="59.157133" lon="18.126787">
        <ele>56</ele>
        <time>2019-09-29T15:29:33Z</time>
      </trkpt>
      <trkpt lat="59.157102" lon="18.126769">
        <ele>56</ele>
        <time>2019-09-29T15:29:35Z</time>
      </trkpt>
      <trkpt lat="59.157077" lon="18.126773">
        <ele>56</ele>
        <time>2019-09-29T15:29:37Z</time>
      </trkpt>
      <trkpt lat="59.15706" lon="18.126789">
        <ele>56</ele>
        <time>2019-09-29T15:29:38Z</time>
      </trkpt>
      <trkpt lat="59.157042" lon="18.12681">
        <ele>56</ele>
        <time>2019-09-29T15:29:39Z</time>
      </trkpt>
      <trkpt lat="59.157022" lon="18.126838">
        <ele>56</ele>
        <time>2019-09-29T15:29:40Z</time>
      </trkpt>
      <trkpt lat="59.156999" lon="18.126864">
        <ele>56</ele>
        <time>2019-09-29T15:29:41Z</time>
      </trkpt>
      <trkpt lat="59.156974" lon="18.126883">
        <ele>56</ele>
        <time>2019-09-29T15:29:42Z</time>
      </trkpt>
      <trkpt lat="59.15695" lon="18.1269">
        <ele>56</ele>
        <time>2019-09-29T15:29:43Z</time>
      </trkpt>
      <trkpt lat="59.15693" lon="18.126924">
        <ele>56</ele>
        <time>2019-09-29T15:29:44Z</time>
      </trkpt>
      <trkpt lat="59.156915" lon="18.126947">
        <ele>56</ele>
        <time>2019-09-29T15:29:45Z</time>
      </trkpt>
      <trkpt lat="59.156891" lon="18.126984">
        <ele>55</ele>
        <time>2019-09-29T15:29:47Z</time>
      </trkpt>
      <trkpt lat="59.156868" lon="18.127012">
        <ele>55</ele>
        <time>2019-09-29T15:29:52Z</time>
      </trkpt>
      <trkpt lat="59.156868" lon="18.127012">
        <ele>54</ele>
        <time>2019-09-29T15:29:58Z</time>
      </trkpt>
      <trkpt lat="59.156793" lon="18.126938">
        <ele>50</ele>
        <time>2019-09-29T15:30:36Z</time>
      </trkpt>
      <trkpt lat="59.156775" lon="18.126921">
        <ele>51</ele>
        <time>2019-09-29T15:30:38Z</time>
      </trkpt>
      <trkpt lat="59.156757" lon="18.126894">
        <ele>51</ele>
        <time>2019-09-29T15:30:38Z</time>
      </trkpt>
      <trkpt lat="59.156734" lon="18.126853">
        <ele>51</ele>
        <time>2019-09-29T15:30:39Z</time>
      </trkpt>
      <trkpt lat="59.156706" lon="18.126802">
        <ele>50</ele>
        <time>2019-09-29T15:30:40Z</time>
      </trkpt>
      <trkpt lat="59.156679" lon="18.126747">
        <ele>50</ele>
        <time>2019-09-29T15:30:41Z</time>
      </trkpt>
      <trkpt lat="59.156654" lon="18.126673">
        <ele>50</ele>
        <time>2019-09-29T15:30:42Z</time>
      </trkpt>
      <trkpt lat="59.156624" lon="18.126587">
        <ele>50</ele>
        <time>2019-09-29T15:30:43Z</time>
      </trkpt>
      <trkpt lat="59.156592" lon="18.12649">
        <ele>50</ele>
        <time>2019-09-29T15:30:44Z</time>
      </trkpt>
      <trkpt lat="59.15656" lon="18.126387">
        <ele>50</ele>
        <time>2019-09-29T15:30:45Z</time>
      </trkpt>
      <trkpt lat="59.156533" lon="18.126275">
        <ele>50</ele>
        <time>2019-09-29T15:30:46Z</time>
      </trkpt>
      <trkpt lat="59.1565" lon="18.126149">
        <ele>50</ele>
        <time>2019-09-29T15:30:47Z</time>
      </trkpt>
      <trkpt lat="59.156474" lon="18.126022">
        <ele>50</ele>
        <time>2019-09-29T15:30:48Z</time>
      </trkpt>
      <trkpt lat="59.156452" lon="18.12589">
        <ele>50</ele>
        <time>2019-09-29T15:30:49Z</time>
      </trkpt>
      <trkpt lat="59.156449" lon="18.125769">
        <ele>50</ele>
        <time>2019-09-29T15:30:50Z</time>
      </trkpt>
      <trkpt lat="59.156456" lon="18.125665">
        <ele>50</ele>
        <time>2019-09-29T15:30:51Z</time>
      </trkpt>
      <trkpt lat="59.156463" lon="18.125559">
        <ele>50</ele>
        <time>2019-09-29T15:30:52Z</time>
      </trkpt>
      <trkpt lat="59.15647" lon="18.125455">
        <ele>50</ele>
        <time>2019-09-29T15:30:53Z</time>
      </trkpt>
      <trkpt lat="59.156474" lon="18.125353">
        <ele>50</ele>
        <time>2019-09-29T15:30:54Z</time>
      </trkpt>
      <trkpt lat="59.15648" lon="18.125269">
        <ele>50</ele>
        <time>2019-09-29T15:30:55Z</time>
      </trkpt>
      <trkpt lat="59.15649" lon="18.125181">
        <ele>50</ele>
        <time>2019-09-29T15:30:56Z</time>
      </trkpt>
      <trkpt lat="59.156504" lon="18.12507">
        <ele>50</ele>
        <time>2019-09-29T15:30:57Z</time>
      </trkpt>
      <trkpt lat="59.15652" lon="18.124961">
        <ele>50</ele>
        <time>2019-09-29T15:30:58Z</time>
      </trkpt>
      <trkpt lat="59.156539" lon="18.12483">
        <ele>50</ele>
        <time>2019-09-29T15:30:59Z</time>
      </trkpt>
      <trkpt lat="59.156553" lon="18.124724">
        <ele>50</ele>
        <time>2019-09-29T15:31:00Z</time>
      </trkpt>
      <trkpt lat="59.156566" lon="18.124632">
        <ele>50</ele>
        <time>2019-09-29T15:31:01Z</time>
      </trkpt>
      <trkpt lat="59.156575" lon="18.12454">
        <ele>49</ele>
        <time>2019-09-29T15:31:02Z</time>
      </trkpt>
      <trkpt lat="59.156582" lon="18.124445">
        <ele>49</ele>
        <time>2019-09-29T15:31:03Z</time>
      </trkpt>
      <trkpt lat="59.156596" lon="18.124343">
        <ele>49</ele>
        <time>2019-09-29T15:31:04Z</time>
      </trkpt>
      <trkpt lat="59.15661" lon="18.124242">
        <ele>49</ele>
        <time>2019-09-29T15:31:05Z</time>
      </trkpt>
      <trkpt lat="59.156621" lon="18.124154">
        <ele>49</ele>
        <time>2019-09-29T15:31:06Z</time>
      </trkpt>
      <trkpt lat="59.156635" lon="18.124054">
        <ele>49</ele>
        <time>2019-09-29T15:31:07Z</time>
      </trkpt>
      <trkpt lat="59.15665" lon="18.123942">
        <ele>49</ele>
        <time>2019-09-29T15:31:08Z</time>
      </trkpt>
      <trkpt lat="59.156664" lon="18.123838">
        <ele>49</ele>
        <time>2019-09-29T15:31:09Z</time>
      </trkpt>
      <trkpt lat="59.156673" lon="18.123726">
        <ele>49</ele>
        <time>2019-09-29T15:31:10Z</time>
      </trkpt>
      <trkpt lat="59.156671" lon="18.12363">
        <ele>49</ele>
        <time>2019-09-29T15:31:11Z</time>
      </trkpt>
      <trkpt lat="59.156665" lon="18.123534">
        <ele>49</ele>
        <time>2019-09-29T15:31:12Z</time>
      </trkpt>
      <trkpt lat="59.156655" lon="18.123444">
        <ele>50</ele>
        <time>2019-09-29T15:31:13Z</time>
      </trkpt>
      <trkpt lat="59.156648" lon="18.12336">
        <ele>50</ele>
        <time>2019-09-29T15:31:14Z</time>
      </trkpt>
      <trkpt lat="59.156642" lon="18.123274">
        <ele>50</ele>
        <time>2019-09-29T15:31:15Z</time>
      </trkpt>
      <trkpt lat="59.156631" lon="18.123196">
        <ele>50</ele>
        <time>2019-09-29T15:31:16Z</time>
      </trkpt>
      <trkpt lat="59.156616" lon="18.123128">
        <ele>50</ele>
        <time>2019-09-29T15:31:17Z</time>
      </trkpt>
      <trkpt lat="59.1566" lon="18.123062">
        <ele>50</ele>
        <time>2019-09-29T15:31:18Z</time>
      </trkpt>
      <trkpt lat="59.156582" lon="18.122994">
        <ele>50</ele>
        <time>2019-09-29T15:31:19Z</time>
      </trkpt>
      <trkpt lat="59.156566" lon="18.12292">
        <ele>50</ele>
        <time>2019-09-29T15:31:20Z</time>
      </trkpt>
      <trkpt lat="59.156551" lon="18.122854">
        <ele>49</ele>
        <time>2019-09-29T15:31:21Z</time>
      </trkpt>
      <trkpt lat="59.156539" lon="18.122782">
        <ele>49</ele>
        <time>2019-09-29T15:31:22Z</time>
      </trkpt>
      <trkpt lat="59.156528" lon="18.122708">
        <ele>49</ele>
        <time>2019-09-29T15:31:23Z</time>
      </trkpt>
      <trkpt lat="59.156519" lon="18.122644">
        <ele>49</ele>
        <time>2019-09-29T15:31:24Z</time>
      </trkpt>
      <trkpt lat="59.156504" lon="18.122582">
        <ele>49</ele>
        <time>2019-09-29T15:31:25Z</time>
      </trkpt>
      <trkpt lat="59.156487" lon="18.122522">
        <ele>49</ele>
        <time>2019-09-29T15:31:26Z</time>
      </trkpt>
      <trkpt lat="59.156471" lon="18.122472">
        <ele>49</ele>
        <time>2019-09-29T15:31:27Z</time>
      </trkpt>
      <trkpt lat="59.156462" lon="18.122428">
        <ele>50</ele>
        <time>2019-09-29T15:31:28Z</time>
      </trkpt>
      <trkpt lat="59.156454" lon="18.122394">
        <ele>50</ele>
        <time>2019-09-29T15:31:29Z</time>
      </trkpt>
      <trkpt lat="59.156445" lon="18.12235">
        <ele>50</ele>
        <time>2019-09-29T15:31:30Z</time>
      </trkpt>
      <trkpt lat="59.156434" lon="18.12231">
        <ele>50</ele>
        <time>2019-09-29T15:31:31Z</time>
      </trkpt>
      <trkpt lat="59.156429" lon="18.12226">
        <ele>50</ele>
        <time>2019-09-29T15:31:32Z</time>
      </trkpt>
      <trkpt lat="59.156426" lon="18.122214">
        <ele>50</ele>
        <time>2019-09-29T15:31:33Z</time>
      </trkpt>
      <trkpt lat="59.156418" lon="18.122172">
        <ele>50</ele>
        <time>2019-09-29T15:31:34Z</time>
      </trkpt>
      <trkpt lat="59.156415" lon="18.122136">
        <ele>50</ele>
        <time>2019-09-29T15:31:35Z</time>
      </trkpt>
      <trkpt lat="59.156408" lon="18.122078">
        <ele>50</ele>
        <time>2019-09-29T15:31:37Z</time>
      </trkpt>
      <trkpt lat="59.156401" lon="18.122032">
        <ele>50</ele>
        <time>2019-09-29T15:31:39Z</time>
      </trkpt>
      <trkpt lat="59.156403" lon="18.121978">
        <ele>50</ele>
        <time>2019-09-29T15:31:42Z</time>
      </trkpt>
      <trkpt lat="59.156409" lon="18.12193">
        <ele>50</ele>
        <time>2019-09-29T15:31:44Z</time>
      </trkpt>
      <trkpt lat="59.156417" lon="18.121884">
        <ele>50</ele>
        <time>2019-09-29T15:31:46Z</time>
      </trkpt>
      <trkpt lat="59.156431" lon="18.12183">
        <ele>50</ele>
        <time>2019-09-29T15:31:48Z</time>
      </trkpt>
      <trkpt lat="59.156441" lon="18.121764">
        <ele>50</ele>
        <time>2019-09-29T15:31:50Z</time>
      </trkpt>
      <trkpt lat="59.156447" lon="18.12171">
        <ele>50</ele>
        <time>2019-09-29T15:31:52Z</time>
      </trkpt>
      <trkpt lat="59.15645" lon="18.121664">
        <ele>50</ele>
        <time>2019-09-29T15:31:55Z</time>
      </trkpt>
      <trkpt lat="59.156449" lon="18.121624">
        <ele>49</ele>
        <time>2019-09-29T15:32:01Z</time>
      </trkpt>
      <trkpt lat="59.156475" lon="18.121558">
        <ele>49</ele>
        <time>2019-09-29T15:32:06Z</time>
      </trkpt>
      <trkpt lat="59.156482" lon="18.121522">
        <ele>49</ele>
        <time>2019-09-29T15:32:13Z</time>
      </trkpt>
      <trkpt lat="59.156507" lon="18.121444">
        <ele>49</ele>
        <time>2019-09-29T15:32:24Z</time>
      </trkpt>
      <trkpt lat="59.156514" lon="18.121401">
        <ele>49</ele>
        <time>2019-09-29T15:32:27Z</time>
      </trkpt>
      <trkpt lat="59.156527" lon="18.121361">
        <ele>49</ele>
        <time>2019-09-29T15:32:30Z</time>
      </trkpt>
      <trkpt lat="59.156531" lon="18.121325">
        <ele>49</ele>
        <time>2019-09-29T15:32:33Z</time>
      </trkpt>
      <trkpt lat="59.156546" lon="18.121302">
        <ele>49</ele>
        <time>2019-09-29T15:32:35Z</time>
      </trkpt>
      <trkpt lat="59.156561" lon="18.121282">
        <ele>49</ele>
        <time>2019-09-29T15:32:37Z</time>
      </trkpt>
      <trkpt lat="59.156578" lon="18.121256">
        <ele>49</ele>
        <time>2019-09-29T15:32:39Z</time>
      </trkpt>
      <trkpt lat="59.156593" lon="18.121223">
        <ele>49</ele>
        <time>2019-09-29T15:32:41Z</time>
      </trkpt>
      <trkpt lat="59.156607" lon="18.121199">
        <ele>49</ele>
        <time>2019-09-29T15:32:43Z</time>
      </trkpt>
      <trkpt lat="59.156606" lon="18.121199">
        <ele>49</ele>
        <time>2019-09-29T15:32:47Z</time>
      </trkpt>
      <trkpt lat="59.156643" lon="18.121111">
        <ele>49</ele>
        <time>2019-09-29T15:33:01Z</time>
      </trkpt>
      <trkpt lat="59.15665" lon="18.121092">
        <ele>49</ele>
        <time>2019-09-29T15:33:01Z</time>
      </trkpt>
      <trkpt lat="59.156662" lon="18.121058">
        <ele>50</ele>
        <time>2019-09-29T15:33:03Z</time>
      </trkpt>
      <trkpt lat="59.156681" lon="18.121012">
        <ele>50</ele>
        <time>2019-09-29T15:33:05Z</time>
      </trkpt>
      <trkpt lat="59.1567" lon="18.120974">
        <ele>50</ele>
        <time>2019-09-29T15:33:07Z</time>
      </trkpt>
      <trkpt lat="59.156717" lon="18.120952">
        <ele>50</ele>
        <time>2019-09-29T15:33:09Z</time>
      </trkpt>
      <trkpt lat="59.156739" lon="18.120926">
        <ele>50</ele>
        <time>2019-09-29T15:33:12Z</time>
      </trkpt>
      <trkpt lat="59.156763" lon="18.120932">
        <ele>50</ele>
        <time>2019-09-29T15:33:15Z</time>
      </trkpt>
      <trkpt lat="59.156782" lon="18.120946">
        <ele>50</ele>
        <time>2019-09-29T15:33:17Z</time>
      </trkpt>
      <trkpt lat="59.156787" lon="18.120896">
        <ele>51</ele>
        <time>2019-09-29T15:33:20Z</time>
      </trkpt>
      <trkpt lat="59.156778" lon="18.120858">
        <ele>51</ele>
        <time>2019-09-29T15:33:23Z</time>
      </trkpt>
      <trkpt lat="59.156771" lon="18.120814">
        <ele>51</ele>
        <time>2019-09-29T15:33:25Z</time>
      </trkpt>
      <trkpt lat="59.156779" lon="18.120772">
        <ele>51</ele>
        <time>2019-09-29T15:33:27Z</time>
      </trkpt>
      <trkpt lat="59.156792" lon="18.120724">
        <ele>51</ele>
        <time>2019-09-29T15:33:29Z</time>
      </trkpt>
      <trkpt lat="59.156817" lon="18.120682">
        <ele>51</ele>
        <time>2019-09-29T15:33:31Z</time>
      </trkpt>
      <trkpt lat="59.156834" lon="18.120658">
        <ele>51</ele>
        <time>2019-09-29T15:33:33Z</time>
      </trkpt>
      <trkpt lat="59.156837" lon="18.120644">
        <ele>51</ele>
        <time>2019-09-29T15:33:39Z</time>
      </trkpt>
      <trkpt lat="59.156926" lon="18.120484">
        <ele>53</ele>
        <time>2019-09-29T15:34:16Z</time>
      </trkpt>
      <trkpt lat="59.156951" lon="18.12046">
        <ele>53</ele>
        <time>2019-09-29T15:34:18Z</time>
      </trkpt>
      <trkpt lat="59.156974" lon="18.12045">
        <ele>53</ele>
        <time>2019-09-29T15:34:20Z</time>
      </trkpt>
      <trkpt lat="59.156995" lon="18.120446">
        <ele>53</ele>
        <time>2019-09-29T15:34:22Z</time>
      </trkpt>
      <trkpt lat="59.157024" lon="18.120448">
        <ele>53</ele>
        <time>2019-09-29T15:34:24Z</time>
      </trkpt>
      <trkpt lat="59.157059" lon="18.120444">
        <ele>53</ele>
        <time>2019-09-29T15:34:26Z</time>
      </trkpt>
      <trkpt lat="59.157077" lon="18.120434">
        <ele>54</ele>
        <time>2019-09-29T15:34:27Z</time>
      </trkpt>
      <trkpt lat="59.157096" lon="18.120422">
        <ele>54</ele>
        <time>2019-09-29T15:34:28Z</time>
      </trkpt>
      <trkpt lat="59.157116" lon="18.120404">
        <ele>54</ele>
        <time>2019-09-29T15:34:29Z</time>
      </trkpt>
      <trkpt lat="59.157134" lon="18.120394">
        <ele>54</ele>
        <time>2019-09-29T15:34:30Z</time>
      </trkpt>
      <trkpt lat="59.157164" lon="18.120388">
        <ele>54</ele>
        <time>2019-09-29T15:34:32Z</time>
      </trkpt>
      <trkpt lat="59.15719" lon="18.120402">
        <ele>54</ele>
        <time>2019-09-29T15:34:34Z</time>
      </trkpt>
      <trkpt lat="59.157208" lon="18.12041">
        <ele>54</ele>
        <time>2019-09-29T15:34:35Z</time>
      </trkpt>
      <trkpt lat="59.157244" lon="18.12042">
        <ele>55</ele>
        <time>2019-09-29T15:34:37Z</time>
      </trkpt>
      <trkpt lat="59.157281" lon="18.120424">
        <ele>55</ele>
        <time>2019-09-29T15:34:39Z</time>
      </trkpt>
      <trkpt lat="59.157314" lon="18.12044">
        <ele>55</ele>
        <time>2019-09-29T15:34:41Z</time>
      </trkpt>
      <trkpt lat="59.157349" lon="18.120468">
        <ele>55</ele>
        <time>2019-09-29T15:34:43Z</time>
      </trkpt>
      <trkpt lat="59.15737" lon="18.12048">
        <ele>55</ele>
        <time>2019-09-29T15:34:44Z</time>
      </trkpt>
      <trkpt lat="59.157393" lon="18.12049">
        <ele>55</ele>
        <time>2019-09-29T15:34:45Z</time>
      </trkpt>
      <trkpt lat="59.157417" lon="18.120498">
        <ele>55</ele>
        <time>2019-09-29T15:34:46Z</time>
      </trkpt>
      <trkpt lat="59.157442" lon="18.120502">
        <ele>55</ele>
        <time>2019-09-29T15:34:47Z</time>
      </trkpt>
      <trkpt lat="59.157464" lon="18.1205">
        <ele>55</ele>
        <time>2019-09-29T15:34:48Z</time>
      </trkpt>
      <trkpt lat="59.157482" lon="18.120484">
        <ele>55</ele>
        <time>2019-09-29T15:34:49Z</time>
      </trkpt>
      <trkpt lat="59.157497" lon="18.120458">
        <ele>55</ele>
        <time>2019-09-29T15:34:50Z</time>
      </trkpt>
      <trkpt lat="59.157512" lon="18.120428">
        <ele>55</ele>
        <time>2019-09-29T15:34:51Z</time>
      </trkpt>
      <trkpt lat="59.157527" lon="18.1204">
        <ele>55</ele>
        <time>2019-09-29T15:34:52Z</time>
      </trkpt>
      <trkpt lat="59.157539" lon="18.120344">
        <ele>55</ele>
        <time>2019-09-29T15:34:54Z</time>
      </trkpt>
      <trkpt lat="59.157543" lon="18.120286">
        <ele>55</ele>
        <time>2019-09-29T15:34:56Z</time>
      </trkpt>
      <trkpt lat="59.157544" lon="18.120224">
        <ele>55</ele>
        <time>2019-09-29T15:34:58Z</time>
      </trkpt>
      <trkpt lat="59.15754" lon="18.120174">
        <ele>55</ele>
        <time>2019-09-29T15:35:00Z</time>
      </trkpt>
      <trkpt lat="59.157538" lon="18.120134">
        <ele>55</ele>
        <time>2019-09-29T15:35:02Z</time>
      </trkpt>
      <trkpt lat="59.157534" lon="18.12009">
        <ele>56</ele>
        <time>2019-09-29T15:35:04Z</time>
      </trkpt>
      <trkpt lat="59.157525" lon="18.120028">
        <ele>56</ele>
        <time>2019-09-29T15:35:06Z</time>
      </trkpt>
      <trkpt lat="59.157517" lon="18.119993">
        <ele>56</ele>
        <time>2019-09-29T15:35:07Z</time>
      </trkpt>
      <trkpt lat="59.157509" lon="18.119953">
        <ele>57</ele>
        <time>2019-09-29T15:35:08Z</time>
      </trkpt>
      <trkpt lat="59.157503" lon="18.119903">
        <ele>57</ele>
        <time>2019-09-29T15:35:09Z</time>
      </trkpt>
      <trkpt lat="59.1575" lon="18.119851">
        <ele>57</ele>
        <time>2019-09-29T15:35:10Z</time>
      </trkpt>
      <trkpt lat="59.157496" lon="18.119808">
        <ele>57</ele>
        <time>2019-09-29T15:35:11Z</time>
      </trkpt>
      <trkpt lat="59.157492" lon="18.119767">
        <ele>57</ele>
        <time>2019-09-29T15:35:12Z</time>
      </trkpt>
      <trkpt lat="59.157491" lon="18.119728">
        <ele>57</ele>
        <time>2019-09-29T15:35:13Z</time>
      </trkpt>
      <trkpt lat="59.15749" lon="18.119685">
        <ele>57</ele>
        <time>2019-09-29T15:35:14Z</time>
      </trkpt>
      <trkpt lat="59.157492" lon="18.119644">
        <ele>57</ele>
        <time>2019-09-29T15:35:15Z</time>
      </trkpt>
      <trkpt lat="59.157489" lon="18.119606">
        <ele>57</ele>
        <time>2019-09-29T15:35:16Z</time>
      </trkpt>
      <trkpt lat="59.157485" lon="18.119566">
        <ele>57</ele>
        <time>2019-09-29T15:35:17Z</time>
      </trkpt>
      <trkpt lat="59.157483" lon="18.119523">
        <ele>57</ele>
        <time>2019-09-29T15:35:18Z</time>
      </trkpt>
      <trkpt lat="59.157478" lon="18.119473">
        <ele>57</ele>
        <time>2019-09-29T15:35:19Z</time>
      </trkpt>
      <trkpt lat="59.157471" lon="18.119432">
        <ele>57</ele>
        <time>2019-09-29T15:35:20Z</time>
      </trkpt>
      <trkpt lat="59.157464" lon="18.119397">
        <ele>57</ele>
        <time>2019-09-29T15:35:21Z</time>
      </trkpt>
      <trkpt lat="59.157454" lon="18.119338">
        <ele>57</ele>
        <time>2019-09-29T15:35:23Z</time>
      </trkpt>
      <trkpt lat="59.157448" lon="18.119272">
        <ele>57</ele>
        <time>2019-09-29T15:35:25Z</time>
      </trkpt>
      <trkpt lat="59.157447" lon="18.119232">
        <ele>57</ele>
        <time>2019-09-29T15:35:26Z</time>
      </trkpt>
      <trkpt lat="59.157448" lon="18.119189">
        <ele>57</ele>
        <time>2019-09-29T15:35:27Z</time>
      </trkpt>
      <trkpt lat="59.157457" lon="18.119148">
        <ele>58</ele>
        <time>2019-09-29T15:35:28Z</time>
      </trkpt>
      <trkpt lat="59.157468" lon="18.119114">
        <ele>58</ele>
        <time>2019-09-29T15:35:29Z</time>
      </trkpt>
      <trkpt lat="59.157484" lon="18.119071">
        <ele>58</ele>
        <time>2019-09-29T15:35:30Z</time>
      </trkpt>
      <trkpt lat="59.157498" lon="18.119024">
        <ele>58</ele>
        <time>2019-09-29T15:35:31Z</time>
      </trkpt>
      <trkpt lat="59.157516" lon="18.118972">
        <ele>58</ele>
        <time>2019-09-29T15:35:32Z</time>
      </trkpt>
      <trkpt lat="59.157536" lon="18.11892">
        <ele>58</ele>
        <time>2019-09-29T15:35:33Z</time>
      </trkpt>
      <trkpt lat="59.157559" lon="18.118867">
        <ele>58</ele>
        <time>2019-09-29T15:35:34Z</time>
      </trkpt>
      <trkpt lat="59.157579" lon="18.118813">
        <ele>58</ele>
        <time>2019-09-29T15:35:35Z</time>
      </trkpt>
      <trkpt lat="59.157603" lon="18.118753">
        <ele>58</ele>
        <time>2019-09-29T15:35:36Z</time>
      </trkpt>
      <trkpt lat="59.15762" lon="18.118703">
        <ele>58</ele>
        <time>2019-09-29T15:35:37Z</time>
      </trkpt>
      <trkpt lat="59.157634" lon="18.118661">
        <ele>58</ele>
        <time>2019-09-29T15:35:38Z</time>
      </trkpt>
      <trkpt lat="59.157646" lon="18.118626">
        <ele>58</ele>
        <time>2019-09-29T15:35:39Z</time>
      </trkpt>
      <trkpt lat="59.157663" lon="18.118578">
        <ele>58</ele>
        <time>2019-09-29T15:35:40Z</time>
      </trkpt>
      <trkpt lat="59.157685" lon="18.11852">
        <ele>58</ele>
        <time>2019-09-29T15:35:41Z</time>
      </trkpt>
      <trkpt lat="59.157706" lon="18.118464">
        <ele>58</ele>
        <time>2019-09-29T15:35:42Z</time>
      </trkpt>
      <trkpt lat="59.157732" lon="18.118407">
        <ele>58</ele>
        <time>2019-09-29T15:35:43Z</time>
      </trkpt>
      <trkpt lat="59.157757" lon="18.118351">
        <ele>58</ele>
        <time>2019-09-29T15:35:44Z</time>
      </trkpt>
      <trkpt lat="59.15778" lon="18.118299">
        <ele>58</ele>
        <time>2019-09-29T15:35:45Z</time>
      </trkpt>
      <trkpt lat="59.157804" lon="18.118249">
        <ele>58</ele>
        <time>2019-09-29T15:35:46Z</time>
      </trkpt>
      <trkpt lat="59.15783" lon="18.118202">
        <ele>58</ele>
        <time>2019-09-29T15:35:47Z</time>
      </trkpt>
      <trkpt lat="59.157859" lon="18.118161">
        <ele>58</ele>
        <time>2019-09-29T15:35:48Z</time>
      </trkpt>
      <trkpt lat="59.157895" lon="18.118122">
        <ele>58</ele>
        <time>2019-09-29T15:35:49Z</time>
      </trkpt>
      <trkpt lat="59.157923" lon="18.118105">
        <ele>58</ele>
        <time>2019-09-29T15:35:50Z</time>
      </trkpt>
      <trkpt lat="59.157948" lon="18.118095">
        <ele>58</ele>
        <time>2019-09-29T15:35:51Z</time>
      </trkpt>
      <trkpt lat="59.157977" lon="18.118085">
        <ele>58</ele>
        <time>2019-09-29T15:35:52Z</time>
      </trkpt>
      <trkpt lat="59.158005" lon="18.118084">
        <ele>58</ele>
        <time>2019-09-29T15:35:53Z</time>
      </trkpt>
      <trkpt lat="59.158035" lon="18.118087">
        <ele>58</ele>
        <time>2019-09-29T15:35:54Z</time>
      </trkpt>
      <trkpt lat="59.158064" lon="18.11809">
        <ele>58</ele>
        <time>2019-09-29T15:35:55Z</time>
      </trkpt>
      <trkpt lat="59.15809" lon="18.118097">
        <ele>58</ele>
        <time>2019-09-29T15:35:56Z</time>
      </trkpt>
      <trkpt lat="59.158115" lon="18.118107">
        <ele>58</ele>
        <time>2019-09-29T15:35:57Z</time>
      </trkpt>
      <trkpt lat="59.158137" lon="18.118124">
        <ele>58</ele>
        <time>2019-09-29T15:35:58Z</time>
      </trkpt>
      <trkpt lat="59.158158" lon="18.118138">
        <ele>58</ele>
        <time>2019-09-29T15:35:59Z</time>
      </trkpt>
      <trkpt lat="59.158178" lon="18.118154">
        <ele>58</ele>
        <time>2019-09-29T15:36:00Z</time>
      </trkpt>
      <trkpt lat="59.1582" lon="18.11817">
        <ele>59</ele>
        <time>2019-09-29T15:36:01Z</time>
      </trkpt>
      <trkpt lat="59.158221" lon="18.118181">
        <ele>59</ele>
        <time>2019-09-29T15:36:02Z</time>
      </trkpt>
      <trkpt lat="59.158249" lon="18.118191">
        <ele>59</ele>
        <time>2019-09-29T15:36:04Z</time>
      </trkpt>
      <trkpt lat="59.158255" lon="18.118208">
        <ele>60</ele>
        <time>2019-09-29T15:36:11Z</time>
      </trkpt>
      <trkpt lat="59.158283" lon="18.118231">
        <ele>0</ele>
        <time>2019-09-29T15:36:39Z</time>
      </trkpt>
      <trkpt lat="59.158298" lon="18.118242">
        <ele>60</ele>
        <time>2019-09-29T15:36:40Z</time>
      </trkpt>
      <trkpt lat="59.158327" lon="18.118268">
        <ele>59</ele>
        <time>2019-09-29T15:36:42Z</time>
      </trkpt>
      <trkpt lat="59.15835" lon="18.118311">
        <ele>59</ele>
        <time>2019-09-29T15:36:44Z</time>
      </trkpt>
      <trkpt lat="59.158366" lon="18.118336">
        <ele>59</ele>
        <time>2019-09-29T15:36:45Z</time>
      </trkpt>
      <trkpt lat="59.158384" lon="18.118357">
        <ele>59</ele>
        <time>2019-09-29T15:36:46Z</time>
      </trkpt>
      <trkpt lat="59.158402" lon="18.118375">
        <ele>59</ele>
        <time>2019-09-29T15:36:47Z</time>
      </trkpt>
      <trkpt lat="59.158422" lon="18.118392">
        <ele>60</ele>
        <time>2019-09-29T15:36:48Z</time>
      </trkpt>
      <trkpt lat="59.158441" lon="18.118405">
        <ele>60</ele>
        <time>2019-09-29T15:36:49Z</time>
      </trkpt>
      <trkpt lat="59.158457" lon="18.118426">
        <ele>60</ele>
        <time>2019-09-29T15:36:50Z</time>
      </trkpt>
      <trkpt lat="59.158475" lon="18.118455">
        <ele>60</ele>
        <time>2019-09-29T15:36:51Z</time>
      </trkpt>
      <trkpt lat="59.158504" lon="18.118483">
        <ele>60</ele>
        <time>2019-09-29T15:36:52Z</time>
      </trkpt>
      <trkpt lat="59.158536" lon="18.118523">
        <ele>60</ele>
        <time>2019-09-29T15:36:53Z</time>
      </trkpt>
      <trkpt lat="59.158566" lon="18.118579">
        <ele>60</ele>
        <time>2019-09-29T15:36:54Z</time>
      </trkpt>
      <trkpt lat="59.158596" lon="18.118636">
        <ele>60</ele>
        <time>2019-09-29T15:36:55Z</time>
      </trkpt>
      <trkpt lat="59.15862" lon="18.118699">
        <ele>60</ele>
        <time>2019-09-29T15:36:56Z</time>
      </trkpt>
      <trkpt lat="59.15864" lon="18.118774">
        <ele>61</ele>
        <time>2019-09-29T15:36:57Z</time>
      </trkpt>
      <trkpt lat="59.158656" lon="18.118862">
        <ele>61</ele>
        <time>2019-09-29T15:36:58Z</time>
      </trkpt>
      <trkpt lat="59.158666" lon="18.118952">
        <ele>61</ele>
        <time>2019-09-29T15:36:59Z</time>
      </trkpt>
      <trkpt lat="59.158672" lon="18.119044">
        <ele>61</ele>
        <time>2019-09-29T15:37:00Z</time>
      </trkpt>
      <trkpt lat="59.158678" lon="18.119148">
        <ele>61</ele>
        <time>2019-09-29T15:37:01Z</time>
      </trkpt>
      <trkpt lat="59.158684" lon="18.119249">
        <ele>61</ele>
        <time>2019-09-29T15:37:02Z</time>
      </trkpt>
      <trkpt lat="59.158686" lon="18.119338">
        <ele>61</ele>
        <time>2019-09-29T15:37:03Z</time>
      </trkpt>
      <trkpt lat="59.158692" lon="18.11943">
        <ele>61</ele>
        <time>2019-09-29T15:37:04Z</time>
      </trkpt>
      <trkpt lat="59.158703" lon="18.119524">
        <ele>61</ele>
        <time>2019-09-29T15:37:05Z</time>
      </trkpt>
      <trkpt lat="59.158711" lon="18.119622">
        <ele>61</ele>
        <time>2019-09-29T15:37:06Z</time>
      </trkpt>
      <trkpt lat="59.158722" lon="18.119724">
        <ele>61</ele>
        <time>2019-09-29T15:37:07Z</time>
      </trkpt>
      <trkpt lat="59.158732" lon="18.119825">
        <ele>61</ele>
        <time>2019-09-29T15:37:08Z</time>
      </trkpt>
      <trkpt lat="59.158732" lon="18.119904">
        <ele>61</ele>
        <time>2019-09-29T15:37:09Z</time>
      </trkpt>
      <trkpt lat="59.158734" lon="18.119973">
        <ele>61</ele>
        <time>2019-09-29T15:37:10Z</time>
      </trkpt>
      <trkpt lat="59.158732" lon="18.120048">
        <ele>61</ele>
        <time>2019-09-29T15:37:11Z</time>
      </trkpt>
      <trkpt lat="59.158733" lon="18.12013">
        <ele>61</ele>
        <time>2019-09-29T15:37:12Z</time>
      </trkpt>
      <trkpt lat="59.158729" lon="18.120209">
        <ele>61</ele>
        <time>2019-09-29T15:37:13Z</time>
      </trkpt>
      <trkpt lat="59.15872" lon="18.120275">
        <ele>61</ele>
        <time>2019-09-29T15:37:14Z</time>
      </trkpt>
      <trkpt lat="59.158713" lon="18.120319">
        <ele>61</ele>
        <time>2019-09-29T15:37:15Z</time>
      </trkpt>
      <trkpt lat="59.158692" lon="18.120373">
        <ele>61</ele>
        <time>2019-09-29T15:37:17Z</time>
      </trkpt>
      <trkpt lat="59.158699" lon="18.120395">
        <ele>60</ele>
        <time>2019-09-29T15:37:24Z</time>
      </trkpt>
      <trkpt lat="59.158666" lon="18.120334">
        <ele>58</ele>
        <time>2019-09-29T15:41:23Z</time>
      </trkpt>
      <trkpt lat="59.158663" lon="18.120338">
        <ele>60</ele>
        <time>2019-09-29T15:41:25Z</time>
      </trkpt>
      <trkpt lat="59.158632" lon="18.120364">
        <ele>0</ele>
        <time>2019-09-29T15:41:33Z</time>
      </trkpt>
      <trkpt lat="59.15862" lon="18.120375">
        <ele>59</ele>
        <time>2019-09-29T15:41:34Z</time>
      </trkpt>
      <trkpt lat="59.158586" lon="18.120407">
        <ele>59</ele>
        <time>2019-09-29T15:41:36Z</time>
      </trkpt>
      <trkpt lat="59.158567" lon="18.120429">
        <ele>59</ele>
        <time>2019-09-29T15:41:37Z</time>
      </trkpt>
      <trkpt lat="59.158549" lon="18.120457">
        <ele>60</ele>
        <time>2019-09-29T15:41:38Z</time>
      </trkpt>
      <trkpt lat="59.15854" lon="18.120491">
        <ele>60</ele>
        <time>2019-09-29T15:41:39Z</time>
      </trkpt>
      <trkpt lat="59.158538" lon="18.120531">
        <ele>60</ele>
        <time>2019-09-29T15:41:40Z</time>
      </trkpt>
      <trkpt lat="59.158532" lon="18.120578">
        <ele>60</ele>
        <time>2019-09-29T15:41:41Z</time>
      </trkpt>
      <trkpt lat="59.158523" lon="18.120612">
        <ele>60</ele>
        <time>2019-09-29T15:41:42Z</time>
      </trkpt>
      <trkpt lat="59.158493" lon="18.120647">
        <ele>60</ele>
        <time>2019-09-29T15:41:44Z</time>
      </trkpt>
      <trkpt lat="59.158465" lon="18.120682">
        <ele>60</ele>
        <time>2019-09-29T15:41:46Z</time>
      </trkpt>
      <trkpt lat="59.158437" lon="18.120718">
        <ele>60</ele>
        <time>2019-09-29T15:41:48Z</time>
      </trkpt>
      <trkpt lat="59.158416" lon="18.120751">
        <ele>60</ele>
        <time>2019-09-29T15:41:50Z</time>
      </trkpt>
      <trkpt lat="59.158395" lon="18.12081">
        <ele>60</ele>
        <time>2019-09-29T15:41:52Z</time>
      </trkpt>
      <trkpt lat="59.158387" lon="18.120845">
        <ele>60</ele>
        <time>2019-09-29T15:41:53Z</time>
      </trkpt>
      <trkpt lat="59.158381" lon="18.120883">
        <ele>60</ele>
        <time>2019-09-29T15:41:54Z</time>
      </trkpt>
      <trkpt lat="59.158374" lon="18.120924">
        <ele>60</ele>
        <time>2019-09-29T15:41:55Z</time>
      </trkpt>
      <trkpt lat="59.158366" lon="18.120962">
        <ele>60</ele>
        <time>2019-09-29T15:41:56Z</time>
      </trkpt>
      <trkpt lat="59.158354" lon="18.121011">
        <ele>60</ele>
        <time>2019-09-29T15:41:58Z</time>
      </trkpt>
      <trkpt lat="59.158353" lon="18.12107">
        <ele>60</ele>
        <time>2019-09-29T15:42:00Z</time>
      </trkpt>
      <trkpt lat="59.158361" lon="18.121129">
        <ele>59</ele>
        <time>2019-09-29T15:42:02Z</time>
      </trkpt>
      <trkpt lat="59.15836" lon="18.121176">
        <ele>60</ele>
        <time>2019-09-29T15:42:04Z</time>
      </trkpt>
      <trkpt lat="59.158346" lon="18.121217">
        <ele>59</ele>
        <time>2019-09-29T15:42:07Z</time>
      </trkpt>
      <trkpt lat="59.158334" lon="18.121257">
        <ele>59</ele>
        <time>2019-09-29T15:42:10Z</time>
      </trkpt>
      <trkpt lat="59.158323" lon="18.121306">
        <ele>59</ele>
        <time>2019-09-29T15:42:12Z</time>
      </trkpt>
      <trkpt lat="59.158302" lon="18.121346">
        <ele>59</ele>
        <time>2019-09-29T15:42:14Z</time>
      </trkpt>
      <trkpt lat="59.158281" lon="18.121378">
        <ele>59</ele>
        <time>2019-09-29T15:42:16Z</time>
      </trkpt>
      <trkpt lat="59.158275" lon="18.121423">
        <ele>59</ele>
        <time>2019-09-29T15:42:19Z</time>
      </trkpt>
      <trkpt lat="59.158281" lon="18.12144">
        <ele>59</ele>
        <time>2019-09-29T15:42:24Z</time>
      </trkpt>
      <trkpt lat="59.158314" lon="18.12155">
        <ele>59</ele>
        <time>2019-09-29T15:43:45Z</time>
      </trkpt>
      <trkpt lat="59.158328" lon="18.121577">
        <ele>59</ele>
        <time>2019-09-29T15:43:47Z</time>
      </trkpt>
      <trkpt lat="59.158342" lon="18.121599">
        <ele>59</ele>
        <time>2019-09-29T15:43:47Z</time>
      </trkpt>
      <trkpt lat="59.158358" lon="18.12162">
        <ele>59</ele>
        <time>2019-09-29T15:43:48Z</time>
      </trkpt>
      <trkpt lat="59.158378" lon="18.121639">
        <ele>60</ele>
        <time>2019-09-29T15:43:49Z</time>
      </trkpt>
      <trkpt lat="59.158402" lon="18.121654">
        <ele>60</ele>
        <time>2019-09-29T15:43:50Z</time>
      </trkpt>
      <trkpt lat="59.158428" lon="18.121667">
        <ele>60</ele>
        <time>2019-09-29T15:43:51Z</time>
      </trkpt>
      <trkpt lat="59.158453" lon="18.121676">
        <ele>60</ele>
        <time>2019-09-29T15:43:52Z</time>
      </trkpt>
      <trkpt lat="59.158478" lon="18.121673">
        <ele>60</ele>
        <time>2019-09-29T15:43:53Z</time>
      </trkpt>
      <trkpt lat="59.158498" lon="18.121656">
        <ele>60</ele>
        <time>2019-09-29T15:43:54Z</time>
      </trkpt>
      <trkpt lat="59.158513" lon="18.12163">
        <ele>60</ele>
        <time>2019-09-29T15:43:55Z</time>
      </trkpt>
      <trkpt lat="59.158533" lon="18.121609">
        <ele>60</ele>
        <time>2019-09-29T15:43:56Z</time>
      </trkpt>
      <trkpt lat="59.158568" lon="18.121617">
        <ele>60</ele>
        <time>2019-09-29T15:43:58Z</time>
      </trkpt>
      <trkpt lat="59.158592" lon="18.121626">
        <ele>60</ele>
        <time>2019-09-29T15:43:59Z</time>
      </trkpt>
      <trkpt lat="59.158615" lon="18.121626">
        <ele>60</ele>
        <time>2019-09-29T15:44:00Z</time>
      </trkpt>
      <trkpt lat="59.158635" lon="18.121618">
        <ele>60</ele>
        <time>2019-09-29T15:44:01Z</time>
      </trkpt>
      <trkpt lat="59.158658" lon="18.121589">
        <ele>60</ele>
        <time>2019-09-29T15:44:03Z</time>
      </trkpt>
      <trkpt lat="59.158681" lon="18.121573">
        <ele>60</ele>
        <time>2019-09-29T15:44:05Z</time>
      </trkpt>
      <trkpt lat="59.158702" lon="18.121555">
        <ele>59</ele>
        <time>2019-09-29T15:44:07Z</time>
      </trkpt>
      <trkpt lat="59.158723" lon="18.12155">
        <ele>60</ele>
        <time>2019-09-29T15:44:09Z</time>
      </trkpt>
      <trkpt lat="59.158753" lon="18.121546">
        <ele>59</ele>
        <time>2019-09-29T15:44:11Z</time>
      </trkpt>
      <trkpt lat="59.158772" lon="18.121534">
        <ele>59</ele>
        <time>2019-09-29T15:44:12Z</time>
      </trkpt>
      <trkpt lat="59.158789" lon="18.121522">
        <ele>59</ele>
        <time>2019-09-29T15:44:13Z</time>
      </trkpt>
      <trkpt lat="59.158808" lon="18.12152">
        <ele>59</ele>
        <time>2019-09-29T15:44:14Z</time>
      </trkpt>
      <trkpt lat="59.158826" lon="18.121532">
        <ele>59</ele>
        <time>2019-09-29T15:44:15Z</time>
      </trkpt>
      <trkpt lat="59.158842" lon="18.12155">
        <ele>59</ele>
        <time>2019-09-29T15:44:16Z</time>
      </trkpt>
      <trkpt lat="59.158862" lon="18.121566">
        <ele>59</ele>
        <time>2019-09-29T15:44:17Z</time>
      </trkpt>
      <trkpt lat="59.158882" lon="18.12158">
        <ele>59</ele>
        <time>2019-09-29T15:44:18Z</time>
      </trkpt>
      <trkpt lat="59.158906" lon="18.121602">
        <ele>59</ele>
        <time>2019-09-29T15:44:20Z</time>
      </trkpt>
      <trkpt lat="59.158932" lon="18.121619">
        <ele>60</ele>
        <time>2019-09-29T15:44:23Z</time>
      </trkpt>
      <trkpt lat="59.15895" lon="18.121624">
        <ele>60</ele>
        <time>2019-09-29T15:44:26Z</time>
      </trkpt>
      <trkpt lat="59.158977" lon="18.121639">
        <ele>60</ele>
        <time>2019-09-29T15:44:30Z</time>
      </trkpt>
      <trkpt lat="59.158997" lon="18.121641">
        <ele>60</ele>
        <time>2019-09-29T15:44:32Z</time>
      </trkpt>
      <trkpt lat="59.159023" lon="18.12162">
        <ele>60</ele>
        <time>2019-09-29T15:44:35Z</time>
      </trkpt>
      <trkpt lat="59.159045" lon="18.121615">
        <ele>60</ele>
        <time>2019-09-29T15:44:37Z</time>
      </trkpt>
      <trkpt lat="59.159061" lon="18.121596">
        <ele>60</ele>
        <time>2019-09-29T15:44:39Z</time>
      </trkpt>
      <trkpt lat="59.159078" lon="18.121573">
        <ele>60</ele>
        <time>2019-09-29T15:44:42Z</time>
      </trkpt>
      <trkpt lat="59.159099" lon="18.12156">
        <ele>60</ele>
        <time>2019-09-29T15:44:45Z</time>
      </trkpt>
      <trkpt lat="59.159121" lon="18.121542">
        <ele>59</ele>
        <time>2019-09-29T15:44:47Z</time>
      </trkpt>
      <trkpt lat="59.159142" lon="18.121524">
        <ele>60</ele>
        <time>2019-09-29T15:44:50Z</time>
      </trkpt>
      <trkpt lat="59.15916" lon="18.121502">
        <ele>60</ele>
        <time>2019-09-29T15:44:53Z</time>
      </trkpt>
      <trkpt lat="59.159173" lon="18.121471">
        <ele>59</ele>
        <time>2019-09-29T15:44:56Z</time>
      </trkpt>
      <trkpt lat="59.159185" lon="18.121435">
        <ele>59</ele>
        <time>2019-09-29T15:44:58Z</time>
      </trkpt>
      <trkpt lat="59.159205" lon="18.121405">
        <ele>59</ele>
        <time>2019-09-29T15:45:00Z</time>
      </trkpt>
      <trkpt lat="59.159222" lon="18.12139">
        <ele>60</ele>
        <time>2019-09-29T15:45:02Z</time>
      </trkpt>
      <trkpt lat="59.159238" lon="18.121373">
        <ele>60</ele>
        <time>2019-09-29T15:45:07Z</time>
      </trkpt>
      <trkpt lat="59.159254" lon="18.121347">
        <ele>60</ele>
        <time>2019-09-29T15:45:10Z</time>
      </trkpt>
      <trkpt lat="59.159258" lon="18.121337">
        <ele>60</ele>
        <time>2019-09-29T15:45:15Z</time>
      </trkpt>
      <trkpt lat="59.159262" lon="18.12127">
        <ele>0</ele>
        <time>2019-09-29T15:45:29Z</time>
      </trkpt>
      <trkpt lat="59.159263" lon="18.121245">
        <ele>60</ele>
        <time>2019-09-29T15:45:30Z</time>
      </trkpt>
      <trkpt lat="59.159274" lon="18.121201">
        <ele>60</ele>
        <time>2019-09-29T15:45:32Z</time>
      </trkpt>
      <trkpt lat="59.159295" lon="18.121142">
        <ele>60</ele>
        <time>2019-09-29T15:45:34Z</time>
      </trkpt>
      <trkpt lat="59.159307" lon="18.121101">
        <ele>60</ele>
        <time>2019-09-29T15:45:35Z</time>
      </trkpt>
      <trkpt lat="59.159317" lon="18.121067">
        <ele>60</ele>
        <time>2019-09-29T15:45:36Z</time>
      </trkpt>
      <trkpt lat="59.15933" lon="18.121009">
        <ele>61</ele>
        <time>2019-09-29T15:45:38Z</time>
      </trkpt>
      <trkpt lat="59.159336" lon="18.120971">
        <ele>61</ele>
        <time>2019-09-29T15:45:40Z</time>
      </trkpt>
      <trkpt lat="59.159348" lon="18.120904">
        <ele>60</ele>
        <time>2019-09-29T15:45:42Z</time>
      </trkpt>
      <trkpt lat="59.159362" lon="18.120849">
        <ele>60</ele>
        <time>2019-09-29T15:45:44Z</time>
      </trkpt>
      <trkpt lat="59.159369" lon="18.120784">
        <ele>60</ele>
        <time>2019-09-29T15:45:46Z</time>
      </trkpt>
      <trkpt lat="59.159372" lon="18.120744">
        <ele>60</ele>
        <time>2019-09-29T15:45:48Z</time>
      </trkpt>
      <trkpt lat="59.159378" lon="18.120689">
        <ele>60</ele>
        <time>2019-09-29T15:45:50Z</time>
      </trkpt>
      <trkpt lat="59.159375" lon="18.120633">
        <ele>59</ele>
        <time>2019-09-29T15:45:52Z</time>
      </trkpt>
      <trkpt lat="59.159379" lon="18.120586">
        <ele>59</ele>
        <time>2019-09-29T15:45:54Z</time>
      </trkpt>
      <trkpt lat="59.159377" lon="18.120562">
        <ele>59</ele>
        <time>2019-09-29T15:46:00Z</time>
      </trkpt>
      <trkpt lat="59.159347" lon="18.120589">
        <ele>59</ele>
        <time>2019-09-29T15:49:51Z</time>
      </trkpt>
      <trkpt lat="59.159326" lon="18.120591">
        <ele>60</ele>
        <time>2019-09-29T15:49:53Z</time>
      </trkpt>
      <trkpt lat="59.159301" lon="18.120592">
        <ele>60</ele>
        <time>2019-09-29T15:49:53Z</time>
      </trkpt>
      <trkpt lat="59.159276" lon="18.12059">
        <ele>60</ele>
        <time>2019-09-29T15:49:54Z</time>
      </trkpt>
      <trkpt lat="59.159252" lon="18.120587">
        <ele>60</ele>
        <time>2019-09-29T15:49:55Z</time>
      </trkpt>
      <trkpt lat="59.159228" lon="18.120581">
        <ele>60</ele>
        <time>2019-09-29T15:49:56Z</time>
      </trkpt>
      <trkpt lat="59.1592" lon="18.120575">
        <ele>60</ele>
        <time>2019-09-29T15:49:57Z</time>
      </trkpt>
      <trkpt lat="59.159171" lon="18.120566">
        <ele>60</ele>
        <time>2019-09-29T15:49:58Z</time>
      </trkpt>
      <trkpt lat="59.159142" lon="18.120553">
        <ele>60</ele>
        <time>2019-09-29T15:49:59Z</time>
      </trkpt>
      <trkpt lat="59.159115" lon="18.120533">
        <ele>60</ele>
        <time>2019-09-29T15:50:00Z</time>
      </trkpt>
      <trkpt lat="59.159093" lon="18.120503">
        <ele>60</ele>
        <time>2019-09-29T15:50:01Z</time>
      </trkpt>
      <trkpt lat="59.159073" lon="18.120467">
        <ele>60</ele>
        <time>2019-09-29T15:50:02Z</time>
      </trkpt>
      <trkpt lat="59.159045" lon="18.12042">
        <ele>60</ele>
        <time>2019-09-29T15:50:03Z</time>
      </trkpt>
      <trkpt lat="59.159012" lon="18.120364">
        <ele>60</ele>
        <time>2019-09-29T15:50:04Z</time>
      </trkpt>
      <trkpt lat="59.158977" lon="18.120309">
        <ele>60</ele>
        <time>2019-09-29T15:50:05Z</time>
      </trkpt>
      <trkpt lat="59.158943" lon="18.120259">
        <ele>60</ele>
        <time>2019-09-29T15:50:06Z</time>
      </trkpt>
      <trkpt lat="59.158913" lon="18.120211">
        <ele>60</ele>
        <time>2019-09-29T15:50:07Z</time>
      </trkpt>
      <trkpt lat="59.158886" lon="18.120159">
        <ele>60</ele>
        <time>2019-09-29T15:50:08Z</time>
      </trkpt>
      <trkpt lat="59.158866" lon="18.120105">
        <ele>60</ele>
        <time>2019-09-29T15:50:09Z</time>
      </trkpt>
      <trkpt lat="59.158849" lon="18.120052">
        <ele>60</ele>
        <time>2019-09-29T15:50:10Z</time>
      </trkpt>
      <trkpt lat="59.158833" lon="18.119993">
        <ele>60</ele>
        <time>2019-09-29T15:50:11Z</time>
      </trkpt>
      <trkpt lat="59.15882" lon="18.119932">
        <ele>60</ele>
        <time>2019-09-29T15:50:12Z</time>
      </trkpt>
      <trkpt lat="59.158803" lon="18.119868">
        <ele>60</ele>
        <time>2019-09-29T15:50:13Z</time>
      </trkpt>
      <trkpt lat="59.158789" lon="18.119813">
        <ele>60</ele>
        <time>2019-09-29T15:50:14Z</time>
      </trkpt>
      <trkpt lat="59.158773" lon="18.119763">
        <ele>61</ele>
        <time>2019-09-29T15:50:15Z</time>
      </trkpt>
      <trkpt lat="59.15876" lon="18.119713">
        <ele>61</ele>
        <time>2019-09-29T15:50:16Z</time>
      </trkpt>
      <trkpt lat="59.15875" lon="18.119658">
        <ele>61</ele>
        <time>2019-09-29T15:50:17Z</time>
      </trkpt>
      <trkpt lat="59.158741" lon="18.119606">
        <ele>61</ele>
        <time>2019-09-29T15:50:18Z</time>
      </trkpt>
      <trkpt lat="59.158736" lon="18.119559">
        <ele>61</ele>
        <time>2019-09-29T15:50:19Z</time>
      </trkpt>
      <trkpt lat="59.158729" lon="18.119513">
        <ele>61</ele>
        <time>2019-09-29T15:50:20Z</time>
      </trkpt>
      <trkpt lat="59.158723" lon="18.119463">
        <ele>61</ele>
        <time>2019-09-29T15:50:21Z</time>
      </trkpt>
      <trkpt lat="59.158723" lon="18.119414">
        <ele>60</ele>
        <time>2019-09-29T15:50:22Z</time>
      </trkpt>
      <trkpt lat="59.158723" lon="18.119362">
        <ele>60</ele>
        <time>2019-09-29T15:50:23Z</time>
      </trkpt>
      <trkpt lat="59.158723" lon="18.119313">
        <ele>61</ele>
        <time>2019-09-29T15:50:24Z</time>
      </trkpt>
      <trkpt lat="59.158721" lon="18.119268">
        <ele>61</ele>
        <time>2019-09-29T15:50:25Z</time>
      </trkpt>
      <trkpt lat="59.158719" lon="18.119221">
        <ele>60</ele>
        <time>2019-09-29T15:50:26Z</time>
      </trkpt>
      <trkpt lat="59.15872" lon="18.119169">
        <ele>60</ele>
        <time>2019-09-29T15:50:27Z</time>
      </trkpt>
      <trkpt lat="59.15872" lon="18.119117">
        <ele>60</ele>
        <time>2019-09-29T15:50:28Z</time>
      </trkpt>
      <trkpt lat="59.158718" lon="18.119068">
        <ele>60</ele>
        <time>2019-09-29T15:50:29Z</time>
      </trkpt>
      <trkpt lat="59.158714" lon="18.11902">
        <ele>61</ele>
        <time>2019-09-29T15:50:30Z</time>
      </trkpt>
      <trkpt lat="59.158707" lon="18.118973">
        <ele>60</ele>
        <time>2019-09-29T15:50:31Z</time>
      </trkpt>
      <trkpt lat="59.158698" lon="18.118925">
        <ele>61</ele>
        <time>2019-09-29T15:50:32Z</time>
      </trkpt>
      <trkpt lat="59.158693" lon="18.118878">
        <ele>61</ele>
        <time>2019-09-29T15:50:33Z</time>
      </trkpt>
      <trkpt lat="59.15869" lon="18.118836">
        <ele>61</ele>
        <time>2019-09-29T15:50:34Z</time>
      </trkpt>
      <trkpt lat="59.158679" lon="18.118775">
        <ele>61</ele>
        <time>2019-09-29T15:50:36Z</time>
      </trkpt>
      <trkpt lat="59.158664" lon="18.118736">
        <ele>61</ele>
        <time>2019-09-29T15:50:38Z</time>
      </trkpt>
      <trkpt lat="59.158645" lon="18.118702">
        <ele>62</ele>
        <time>2019-09-29T15:50:40Z</time>
      </trkpt>
      <trkpt lat="59.158621" lon="18.11865">
        <ele>62</ele>
        <time>2019-09-29T15:50:42Z</time>
      </trkpt>
      <trkpt lat="59.158607" lon="18.11862">
        <ele>62</ele>
        <time>2019-09-29T15:50:43Z</time>
      </trkpt>
      <trkpt lat="59.158589" lon="18.118593">
        <ele>62</ele>
        <time>2019-09-29T15:50:44Z</time>
      </trkpt>
      <trkpt lat="59.158566" lon="18.118569">
        <ele>62</ele>
        <time>2019-09-29T15:50:45Z</time>
      </trkpt>
      <trkpt lat="59.158541" lon="18.118545">
        <ele>61</ele>
        <time>2019-09-29T15:50:46Z</time>
      </trkpt>
      <trkpt lat="59.158515" lon="18.118516">
        <ele>61</ele>
        <time>2019-09-29T15:50:47Z</time>
      </trkpt>
      <trkpt lat="59.158492" lon="18.118483">
        <ele>61</ele>
        <time>2019-09-29T15:50:48Z</time>
      </trkpt>
      <trkpt lat="59.158468" lon="18.118448">
        <ele>61</ele>
        <time>2019-09-29T15:50:49Z</time>
      </trkpt>
      <trkpt lat="59.158441" lon="18.118409">
        <ele>61</ele>
        <time>2019-09-29T15:50:50Z</time>
      </trkpt>
      <trkpt lat="59.158417" lon="18.118362">
        <ele>61</ele>
        <time>2019-09-29T15:50:51Z</time>
      </trkpt>
      <trkpt lat="59.158399" lon="18.118314">
        <ele>61</ele>
        <time>2019-09-29T15:50:52Z</time>
      </trkpt>
      <trkpt lat="59.158387" lon="18.118259">
        <ele>61</ele>
        <time>2019-09-29T15:50:53Z</time>
      </trkpt>
      <trkpt lat="59.158381" lon="18.1182">
        <ele>61</ele>
        <time>2019-09-29T15:50:54Z</time>
      </trkpt>
      <trkpt lat="59.158382" lon="18.118148">
        <ele>61</ele>
        <time>2019-09-29T15:50:55Z</time>
      </trkpt>
      <trkpt lat="59.158385" lon="18.118099">
        <ele>61</ele>
        <time>2019-09-29T15:50:56Z</time>
      </trkpt>
      <trkpt lat="59.158394" lon="18.118058">
        <ele>61</ele>
        <time>2019-09-29T15:50:57Z</time>
      </trkpt>
      <trkpt lat="59.15841" lon="18.118023">
        <ele>61</ele>
        <time>2019-09-29T15:50:58Z</time>
      </trkpt>
      <trkpt lat="59.15843" lon="18.117984">
        <ele>61</ele>
        <time>2019-09-29T15:50:59Z</time>
      </trkpt>
      <trkpt lat="59.158451" lon="18.117942">
        <ele>61</ele>
        <time>2019-09-29T15:51:00Z</time>
      </trkpt>
      <trkpt lat="59.158472" lon="18.117908">
        <ele>61</ele>
        <time>2019-09-29T15:51:01Z</time>
      </trkpt>
      <trkpt lat="59.158489" lon="18.117871">
        <ele>61</ele>
        <time>2019-09-29T15:51:02Z</time>
      </trkpt>
      <trkpt lat="59.158513" lon="18.117839">
        <ele>61</ele>
        <time>2019-09-29T15:51:03Z</time>
      </trkpt>
      <trkpt lat="59.158538" lon="18.117809">
        <ele>61</ele>
        <time>2019-09-29T15:51:04Z</time>
      </trkpt>
      <trkpt lat="59.158566" lon="18.117781">
        <ele>61</ele>
        <time>2019-09-29T15:51:05Z</time>
      </trkpt>
      <trkpt lat="59.158592" lon="18.117762">
        <ele>61</ele>
        <time>2019-09-29T15:51:06Z</time>
      </trkpt>
      <trkpt lat="59.158624" lon="18.117746">
        <ele>61</ele>
        <time>2019-09-29T15:51:07Z</time>
      </trkpt>
      <trkpt lat="59.158658" lon="18.117731">
        <ele>61</ele>
        <time>2019-09-29T15:51:08Z</time>
      </trkpt>
      <trkpt lat="59.158694" lon="18.117718">
        <ele>60</ele>
        <time>2019-09-29T15:51:09Z</time>
      </trkpt>
      <trkpt lat="59.158724" lon="18.117711">
        <ele>61</ele>
        <time>2019-09-29T15:51:10Z</time>
      </trkpt>
      <trkpt lat="59.158751" lon="18.117706">
        <ele>61</ele>
        <time>2019-09-29T15:51:11Z</time>
      </trkpt>
      <trkpt lat="59.158781" lon="18.1177">
        <ele>61</ele>
        <time>2019-09-29T15:51:12Z</time>
      </trkpt>
      <trkpt lat="59.158806" lon="18.117692">
        <ele>61</ele>
        <time>2019-09-29T15:51:13Z</time>
      </trkpt>
      <trkpt lat="59.158829" lon="18.117675">
        <ele>61</ele>
        <time>2019-09-29T15:51:14Z</time>
      </trkpt>
      <trkpt lat="59.158855" lon="18.117645">
        <ele>61</ele>
        <time>2019-09-29T15:51:15Z</time>
      </trkpt>
      <trkpt lat="59.158878" lon="18.117611">
        <ele>61</ele>
        <time>2019-09-29T15:51:16Z</time>
      </trkpt>
      <trkpt lat="59.158899" lon="18.117584">
        <ele>61</ele>
        <time>2019-09-29T15:51:17Z</time>
      </trkpt>
      <trkpt lat="59.158919" lon="18.117563">
        <ele>61</ele>
        <time>2019-09-29T15:51:18Z</time>
      </trkpt>
      <trkpt lat="59.158947" lon="18.117542">
        <ele>61</ele>
        <time>2019-09-29T15:51:19Z</time>
      </trkpt>
      <trkpt lat="59.158978" lon="18.11752">
        <ele>61</ele>
        <time>2019-09-29T15:51:20Z</time>
      </trkpt>
      <trkpt lat="59.159012" lon="18.117509">
        <ele>61</ele>
        <time>2019-09-29T15:51:21Z</time>
      </trkpt>
      <trkpt lat="59.159043" lon="18.117505">
        <ele>61</ele>
        <time>2019-09-29T15:51:22Z</time>
      </trkpt>
      <trkpt lat="59.159073" lon="18.117507">
        <ele>61</ele>
        <time>2019-09-29T15:51:23Z</time>
      </trkpt>
      <trkpt lat="59.159098" lon="18.1175">
        <ele>61</ele>
        <time>2019-09-29T15:51:24Z</time>
      </trkpt>
      <trkpt lat="59.159127" lon="18.117498">
        <ele>61</ele>
        <time>2019-09-29T15:51:25Z</time>
      </trkpt>
      <trkpt lat="59.15916" lon="18.11751">
        <ele>61</ele>
        <time>2019-09-29T15:51:26Z</time>
      </trkpt>
      <trkpt lat="59.159194" lon="18.117527">
        <ele>61</ele>
        <time>2019-09-29T15:51:27Z</time>
      </trkpt>
      <trkpt lat="59.159229" lon="18.117533">
        <ele>61</ele>
        <time>2019-09-29T15:51:28Z</time>
      </trkpt>
      <trkpt lat="59.15927" lon="18.117536">
        <ele>61</ele>
        <time>2019-09-29T15:51:29Z</time>
      </trkpt>
      <trkpt lat="59.159314" lon="18.117542">
        <ele>61</ele>
        <time>2019-09-29T15:51:30Z</time>
      </trkpt>
      <trkpt lat="59.159362" lon="18.117551">
        <ele>61</ele>
        <time>2019-09-29T15:51:31Z</time>
      </trkpt>
      <trkpt lat="59.159409" lon="18.117563">
        <ele>61</ele>
        <time>2019-09-29T15:51:32Z</time>
      </trkpt>
      <trkpt lat="59.159455" lon="18.117582">
        <ele>61</ele>
        <time>2019-09-29T15:51:33Z</time>
      </trkpt>
      <trkpt lat="59.1595" lon="18.117602">
        <ele>61</ele>
        <time>2019-09-29T15:51:34Z</time>
      </trkpt>
      <trkpt lat="59.159547" lon="18.117616">
        <ele>61</ele>
        <time>2019-09-29T15:51:35Z</time>
      </trkpt>
      <trkpt lat="59.159593" lon="18.117628">
        <ele>61</ele>
        <time>2019-09-29T15:51:36Z</time>
      </trkpt>
      <trkpt lat="59.159642" lon="18.117647">
        <ele>61</ele>
        <time>2019-09-29T15:51:37Z</time>
      </trkpt>
      <trkpt lat="59.159692" lon="18.117655">
        <ele>61</ele>
        <time>2019-09-29T15:51:38Z</time>
      </trkpt>
      <trkpt lat="59.15973" lon="18.11766">
        <ele>61</ele>
        <time>2019-09-29T15:51:39Z</time>
      </trkpt>
      <trkpt lat="59.159754" lon="18.117655">
        <ele>61</ele>
        <time>2019-09-29T15:51:40Z</time>
      </trkpt>
      <trkpt lat="59.159774" lon="18.117637">
        <ele>61</ele>
        <time>2019-09-29T15:51:41Z</time>
      </trkpt>
      <trkpt lat="59.159796" lon="18.117624">
        <ele>61</ele>
        <time>2019-09-29T15:51:42Z</time>
      </trkpt>
      <trkpt lat="59.159825" lon="18.117605">
        <ele>61</ele>
        <time>2019-09-29T15:51:44Z</time>
      </trkpt>
      <trkpt lat="59.15985" lon="18.117564">
        <ele>61</ele>
        <time>2019-09-29T15:51:46Z</time>
      </trkpt>
      <trkpt lat="59.159874" lon="18.117532">
        <ele>61</ele>
        <time>2019-09-29T15:51:47Z</time>
      </trkpt>
      <trkpt lat="59.159905" lon="18.117493">
        <ele>61</ele>
        <time>2019-09-29T15:51:48Z</time>
      </trkpt>
      <trkpt lat="59.159942" lon="18.117451">
        <ele>61</ele>
        <time>2019-09-29T15:51:49Z</time>
      </trkpt>
      <trkpt lat="59.159982" lon="18.117406">
        <ele>60</ele>
        <time>2019-09-29T15:51:50Z</time>
      </trkpt>
      <trkpt lat="59.160024" lon="18.117363">
        <ele>60</ele>
        <time>2019-09-29T15:51:51Z</time>
      </trkpt>
      <trkpt lat="59.160066" lon="18.117324">
        <ele>60</ele>
        <time>2019-09-29T15:51:52Z</time>
      </trkpt>
      <trkpt lat="59.160107" lon="18.117283">
        <ele>60</ele>
        <time>2019-09-29T15:51:53Z</time>
      </trkpt>
      <trkpt lat="59.160149" lon="18.117241">
        <ele>60</ele>
        <time>2019-09-29T15:51:54Z</time>
      </trkpt>
      <trkpt lat="59.160196" lon="18.117193">
        <ele>60</ele>
        <time>2019-09-29T15:51:55Z</time>
      </trkpt>
      <trkpt lat="59.160252" lon="18.117115">
        <ele>60</ele>
        <time>2019-09-29T15:51:56Z</time>
      </trkpt>
      <trkpt lat="59.160315" lon="18.117029">
        <ele>61</ele>
        <time>2019-09-29T15:51:57Z</time>
      </trkpt>
      <trkpt lat="59.160383" lon="18.116948">
        <ele>61</ele>
        <time>2019-09-29T15:51:58Z</time>
      </trkpt>
      <trkpt lat="59.160452" lon="18.116863">
        <ele>60</ele>
        <time>2019-09-29T15:51:59Z</time>
      </trkpt>
      <trkpt lat="59.160508" lon="18.116779">
        <ele>60</ele>
        <time>2019-09-29T15:52:00Z</time>
      </trkpt>
      <trkpt lat="59.160566" lon="18.116717">
        <ele>60</ele>
        <time>2019-09-29T15:52:01Z</time>
      </trkpt>
      <trkpt lat="59.160623" lon="18.116684">
        <ele>59</ele>
        <time>2019-09-29T15:52:02Z</time>
      </trkpt>
      <trkpt lat="59.160672" lon="18.116656">
        <ele>58</ele>
        <time>2019-09-29T15:52:03Z</time>
      </trkpt>
      <trkpt lat="59.160717" lon="18.11662">
        <ele>58</ele>
        <time>2019-09-29T15:52:04Z</time>
      </trkpt>
      <trkpt lat="59.160756" lon="18.116583">
        <ele>57</ele>
        <time>2019-09-29T15:52:05Z</time>
      </trkpt>
      <trkpt lat="59.160788" lon="18.116548">
        <ele>57</ele>
        <time>2019-09-29T15:52:06Z</time>
      </trkpt>
      <trkpt lat="59.160819" lon="18.116518">
        <ele>56</ele>
        <time>2019-09-29T15:52:07Z</time>
      </trkpt>
      <trkpt lat="59.160849" lon="18.116488">
        <ele>56</ele>
        <time>2019-09-29T15:52:08Z</time>
      </trkpt>
      <trkpt lat="59.160878" lon="18.11646">
        <ele>55</ele>
        <time>2019-09-29T15:52:09Z</time>
      </trkpt>
      <trkpt lat="59.160907" lon="18.116435">
        <ele>55</ele>
        <time>2019-09-29T15:52:10Z</time>
      </trkpt>
      <trkpt lat="59.160936" lon="18.116413">
        <ele>54</ele>
        <time>2019-09-29T15:52:11Z</time>
      </trkpt>
      <trkpt lat="59.160961" lon="18.116392">
        <ele>54</ele>
        <time>2019-09-29T15:52:12Z</time>
      </trkpt>
      <trkpt lat="59.160986" lon="18.116369">
        <ele>53</ele>
        <time>2019-09-29T15:52:13Z</time>
      </trkpt>
      <trkpt lat="59.161012" lon="18.116344">
        <ele>53</ele>
        <time>2019-09-29T15:52:14Z</time>
      </trkpt>
      <trkpt lat="59.161039" lon="18.116319">
        <ele>52</ele>
        <time>2019-09-29T15:52:15Z</time>
      </trkpt>
      <trkpt lat="59.161066" lon="18.116293">
        <ele>51</ele>
        <time>2019-09-29T15:52:16Z</time>
      </trkpt>
      <trkpt lat="59.161093" lon="18.116264">
        <ele>51</ele>
        <time>2019-09-29T15:52:17Z</time>
      </trkpt>
      <trkpt lat="59.161122" lon="18.116235">
        <ele>51</ele>
        <time>2019-09-29T15:52:18Z</time>
      </trkpt>
      <trkpt lat="59.16115" lon="18.116204">
        <ele>50</ele>
        <time>2019-09-29T15:52:19Z</time>
      </trkpt>
      <trkpt lat="59.161178" lon="18.116172">
        <ele>50</ele>
        <time>2019-09-29T15:52:20Z</time>
      </trkpt>
      <trkpt lat="59.161206" lon="18.116143">
        <ele>50</ele>
        <time>2019-09-29T15:52:21Z</time>
      </trkpt>
      <trkpt lat="59.161236" lon="18.116117">
        <ele>49</ele>
        <time>2019-09-29T15:52:22Z</time>
      </trkpt>
      <trkpt lat="59.161264" lon="18.1161">
        <ele>49</ele>
        <time>2019-09-29T15:52:23Z</time>
      </trkpt>
      <trkpt lat="59.161296" lon="18.116086">
        <ele>49</ele>
        <time>2019-09-29T15:52:24Z</time>
      </trkpt>
      <trkpt lat="59.161328" lon="18.116072">
        <ele>49</ele>
        <time>2019-09-29T15:52:25Z</time>
      </trkpt>
      <trkpt lat="59.16136" lon="18.116059">
        <ele>49</ele>
        <time>2019-09-29T15:52:26Z</time>
      </trkpt>
      <trkpt lat="59.161392" lon="18.116044">
        <ele>49</ele>
        <time>2019-09-29T15:52:27Z</time>
      </trkpt>
      <trkpt lat="59.161423" lon="18.116031">
        <ele>49</ele>
        <time>2019-09-29T15:52:28Z</time>
      </trkpt>
      <trkpt lat="59.161456" lon="18.116021">
        <ele>49</ele>
        <time>2019-09-29T15:52:29Z</time>
      </trkpt>
      <trkpt lat="59.161489" lon="18.116015">
        <ele>49</ele>
        <time>2019-09-29T15:52:30Z</time>
      </trkpt>
      <trkpt lat="59.161523" lon="18.116009">
        <ele>49</ele>
        <time>2019-09-29T15:52:31Z</time>
      </trkpt>
      <trkpt lat="59.161555" lon="18.116009">
        <ele>49</ele>
        <time>2019-09-29T15:52:32Z</time>
      </trkpt>
      <trkpt lat="59.161587" lon="18.116015">
        <ele>49</ele>
        <time>2019-09-29T15:52:33Z</time>
      </trkpt>
      <trkpt lat="59.16162" lon="18.116029">
        <ele>49</ele>
        <time>2019-09-29T15:52:34Z</time>
      </trkpt>
      <trkpt lat="59.161653" lon="18.116048">
        <ele>49</ele>
        <time>2019-09-29T15:52:35Z</time>
      </trkpt>
      <trkpt lat="59.161686" lon="18.116072">
        <ele>48</ele>
        <time>2019-09-29T15:52:36Z</time>
      </trkpt>
      <trkpt lat="59.161717" lon="18.116097">
        <ele>48</ele>
        <time>2019-09-29T15:52:37Z</time>
      </trkpt>
      <trkpt lat="59.161746" lon="18.116125">
        <ele>48</ele>
        <time>2019-09-29T15:52:38Z</time>
      </trkpt>
      <trkpt lat="59.161772" lon="18.116152">
        <ele>48</ele>
        <time>2019-09-29T15:52:39Z</time>
      </trkpt>
      <trkpt lat="59.161799" lon="18.116173">
        <ele>48</ele>
        <time>2019-09-29T15:52:40Z</time>
      </trkpt>
      <trkpt lat="59.161826" lon="18.11618">
        <ele>48</ele>
        <time>2019-09-29T15:52:41Z</time>
      </trkpt>
      <trkpt lat="59.161853" lon="18.116176">
        <ele>48</ele>
        <time>2019-09-29T15:52:42Z</time>
      </trkpt>
      <trkpt lat="59.161879" lon="18.116163">
        <ele>48</ele>
        <time>2019-09-29T15:52:43Z</time>
      </trkpt>
      <trkpt lat="59.161904" lon="18.116147">
        <ele>48</ele>
        <time>2019-09-29T15:52:44Z</time>
      </trkpt>
      <trkpt lat="59.161928" lon="18.116132">
        <ele>48</ele>
        <time>2019-09-29T15:52:45Z</time>
      </trkpt>
      <trkpt lat="59.16195" lon="18.116114">
        <ele>48</ele>
        <time>2019-09-29T15:52:46Z</time>
      </trkpt>
      <trkpt lat="59.161974" lon="18.116097">
        <ele>48</ele>
        <time>2019-09-29T15:52:47Z</time>
      </trkpt>
      <trkpt lat="59.161996" lon="18.116083">
        <ele>47</ele>
        <time>2019-09-29T15:52:48Z</time>
      </trkpt>
      <trkpt lat="59.162017" lon="18.116066">
        <ele>47</ele>
        <time>2019-09-29T15:52:49Z</time>
      </trkpt>
      <trkpt lat="59.162037" lon="18.116046">
        <ele>47</ele>
        <time>2019-09-29T15:52:50Z</time>
      </trkpt>
      <trkpt lat="59.162057" lon="18.116028">
        <ele>47</ele>
        <time>2019-09-29T15:52:51Z</time>
      </trkpt>
      <trkpt lat="59.162076" lon="18.116011">
        <ele>47</ele>
        <time>2019-09-29T15:52:52Z</time>
      </trkpt>
      <trkpt lat="59.162094" lon="18.115998">
        <ele>47</ele>
        <time>2019-09-29T15:52:53Z</time>
      </trkpt>
      <trkpt lat="59.162126" lon="18.115974">
        <ele>47</ele>
        <time>2019-09-29T15:52:55Z</time>
      </trkpt>
      <trkpt lat="59.162151" lon="18.115948">
        <ele>47</ele>
        <time>2019-09-29T15:52:57Z</time>
      </trkpt>
      <trkpt lat="59.162179" lon="18.115921">
        <ele>47</ele>
        <time>2019-09-29T15:52:59Z</time>
      </trkpt>
      <trkpt lat="59.162204" lon="18.115895">
        <ele>47</ele>
        <time>2019-09-29T15:53:01Z</time>
      </trkpt>
      <trkpt lat="59.162229" lon="18.115867">
        <ele>47</ele>
        <time>2019-09-29T15:53:03Z</time>
      </trkpt>
      <trkpt lat="59.162255" lon="18.115845">
        <ele>48</ele>
        <time>2019-09-29T15:53:05Z</time>
      </trkpt>
      <trkpt lat="59.162283" lon="18.11583">
        <ele>48</ele>
        <time>2019-09-29T15:53:07Z</time>
      </trkpt>
      <trkpt lat="59.16231" lon="18.115807">
        <ele>47</ele>
        <time>2019-09-29T15:53:09Z</time>
      </trkpt>
      <trkpt lat="59.162323" lon="18.115762">
        <ele>47</ele>
        <time>2019-09-29T15:53:11Z</time>
      </trkpt>
      <trkpt lat="59.162329" lon="18.115701">
        <ele>47</ele>
        <time>2019-09-29T15:53:13Z</time>
      </trkpt>
      <trkpt lat="59.162331" lon="18.11564">
        <ele>47</ele>
        <time>2019-09-29T15:53:15Z</time>
      </trkpt>
      <trkpt lat="59.162333" lon="18.115585">
        <ele>46</ele>
        <time>2019-09-29T15:53:17Z</time>
      </trkpt>
      <trkpt lat="59.162332" lon="18.115528">
        <ele>47</ele>
        <time>2019-09-29T15:53:19Z</time>
      </trkpt>
      <trkpt lat="59.162334" lon="18.115479">
        <ele>47</ele>
        <time>2019-09-29T15:53:21Z</time>
      </trkpt>
      <trkpt lat="59.16234" lon="18.115425">
        <ele>46</ele>
        <time>2019-09-29T15:53:23Z</time>
      </trkpt>
      <trkpt lat="59.162345" lon="18.115373">
        <ele>47</ele>
        <time>2019-09-29T15:53:25Z</time>
      </trkpt>
      <trkpt lat="59.162357" lon="18.115326">
        <ele>47</ele>
        <time>2019-09-29T15:53:27Z</time>
      </trkpt>
      <trkpt lat="59.162366" lon="18.115288">
        <ele>47</ele>
        <time>2019-09-29T15:53:29Z</time>
      </trkpt>
      <trkpt lat="59.162374" lon="18.115257">
        <ele>47</ele>
        <time>2019-09-29T15:53:32Z</time>
      </trkpt>
      <trkpt lat="59.162374" lon="18.115257">
        <ele>47</ele>
        <time>2019-09-29T15:53:36Z</time>
      </trkpt>
      <trkpt lat="59.162457" lon="18.1152">
        <ele>46</ele>
        <time>2019-09-29T15:54:43Z</time>
      </trkpt>
      <trkpt lat="59.16249" lon="18.115209">
        <ele>46</ele>
        <time>2019-09-29T15:54:45Z</time>
      </trkpt>
      <trkpt lat="59.162513" lon="18.115192">
        <ele>46</ele>
        <time>2019-09-29T15:54:47Z</time>
      </trkpt>
      <trkpt lat="59.162528" lon="18.115154">
        <ele>46</ele>
        <time>2019-09-29T15:54:50Z</time>
      </trkpt>
      <trkpt lat="59.16253" lon="18.115127">
        <ele>46</ele>
        <time>2019-09-29T15:54:54Z</time>
      </trkpt>
      <trkpt lat="59.162485" lon="18.115286">
        <ele>45</ele>
        <time>2019-09-29T16:05:51Z</time>
      </trkpt>
      <trkpt lat="59.162485" lon="18.115286">
        <ele>45</ele>
        <time>2019-09-29T16:05:53Z</time>
      </trkpt>
      <trkpt lat="59.16254" lon="18.11522">
        <ele>43</ele>
        <time>2019-09-29T16:16:55Z</time>
      </trkpt>
      <trkpt lat="59.162541" lon="18.115233">
        <ele>44</ele>
        <time>2019-09-29T16:16:57Z</time>
      </trkpt>
      <trkpt lat="59.162539" lon="18.115276">
        <ele>44</ele>
        <time>2019-09-29T16:16:59Z</time>
      </trkpt>
      <trkpt lat="59.16254" lon="18.11532">
        <ele>44</ele>
        <time>2019-09-29T16:17:01Z</time>
      </trkpt>
      <trkpt lat="59.162536" lon="18.115356">
        <ele>44</ele>
        <time>2019-09-29T16:17:03Z</time>
      </trkpt>
      <trkpt lat="59.162538" lon="18.115411">
        <ele>44</ele>
        <time>2019-09-29T16:17:05Z</time>
      </trkpt>
      <trkpt lat="59.162543" lon="18.11546">
        <ele>44</ele>
        <time>2019-09-29T16:17:06Z</time>
      </trkpt>
      <trkpt lat="59.162546" lon="18.115518">
        <ele>45</ele>
        <time>2019-09-29T16:17:07Z</time>
      </trkpt>
      <trkpt lat="59.162539" lon="18.115573">
        <ele>45</ele>
        <time>2019-09-29T16:17:08Z</time>
      </trkpt>
      <trkpt lat="59.162522" lon="18.115618">
        <ele>45</ele>
        <time>2019-09-29T16:17:09Z</time>
      </trkpt>
      <trkpt lat="59.162507" lon="18.11566">
        <ele>45</ele>
        <time>2019-09-29T16:17:10Z</time>
      </trkpt>
      <trkpt lat="59.162498" lon="18.115699">
        <ele>45</ele>
        <time>2019-09-29T16:17:11Z</time>
      </trkpt>
      <trkpt lat="59.162475" lon="18.115744">
        <ele>45</ele>
        <time>2019-09-29T16:17:13Z</time>
      </trkpt>
      <trkpt lat="59.162449" lon="18.11578">
        <ele>45</ele>
        <time>2019-09-29T16:17:15Z</time>
      </trkpt>
      <trkpt lat="59.162433" lon="18.115804">
        <ele>45</ele>
        <time>2019-09-29T16:17:16Z</time>
      </trkpt>
      <trkpt lat="59.162413" lon="18.115823">
        <ele>46</ele>
        <time>2019-09-29T16:17:17Z</time>
      </trkpt>
      <trkpt lat="59.162387" lon="18.115838">
        <ele>46</ele>
        <time>2019-09-29T16:17:18Z</time>
      </trkpt>
      <trkpt lat="59.162361" lon="18.11585">
        <ele>46</ele>
        <time>2019-09-29T16:17:19Z</time>
      </trkpt>
      <trkpt lat="59.162338" lon="18.11586">
        <ele>46</ele>
        <time>2019-09-29T16:17:20Z</time>
      </trkpt>
      <trkpt lat="59.162321" lon="18.115874">
        <ele>46</ele>
        <time>2019-09-29T16:17:21Z</time>
      </trkpt>
      <trkpt lat="59.162301" lon="18.115884">
        <ele>47</ele>
        <time>2019-09-29T16:17:22Z</time>
      </trkpt>
      <trkpt lat="59.16228" lon="18.115894">
        <ele>47</ele>
        <time>2019-09-29T16:17:23Z</time>
      </trkpt>
      <trkpt lat="59.162251" lon="18.115908">
        <ele>47</ele>
        <time>2019-09-29T16:17:24Z</time>
      </trkpt>
      <trkpt lat="59.162224" lon="18.115925">
        <ele>47</ele>
        <time>2019-09-29T16:17:25Z</time>
      </trkpt>
      <trkpt lat="59.162198" lon="18.115941">
        <ele>48</ele>
        <time>2019-09-29T16:17:26Z</time>
      </trkpt>
      <trkpt lat="59.162176" lon="18.11596">
        <ele>48</ele>
        <time>2019-09-29T16:17:27Z</time>
      </trkpt>
      <trkpt lat="59.16215" lon="18.115982">
        <ele>48</ele>
        <time>2019-09-29T16:17:28Z</time>
      </trkpt>
      <trkpt lat="59.162121" lon="18.116008">
        <ele>48</ele>
        <time>2019-09-29T16:17:29Z</time>
      </trkpt>
      <trkpt lat="59.162092" lon="18.116033">
        <ele>48</ele>
        <time>2019-09-29T16:17:30Z</time>
      </trkpt>
      <trkpt lat="59.162063" lon="18.11606">
        <ele>48</ele>
        <time>2019-09-29T16:17:31Z</time>
      </trkpt>
      <trkpt lat="59.162032" lon="18.116088">
        <ele>49</ele>
        <time>2019-09-29T16:17:32Z</time>
      </trkpt>
      <trkpt lat="59.162002" lon="18.116121">
        <ele>49</ele>
        <time>2019-09-29T16:17:33Z</time>
      </trkpt>
      <trkpt lat="59.161973" lon="18.11615">
        <ele>48</ele>
        <time>2019-09-29T16:17:34Z</time>
      </trkpt>
      <trkpt lat="59.161945" lon="18.116175">
        <ele>48</ele>
        <time>2019-09-29T16:17:35Z</time>
      </trkpt>
      <trkpt lat="59.161917" lon="18.116197">
        <ele>48</ele>
        <time>2019-09-29T16:17:36Z</time>
      </trkpt>
      <trkpt lat="59.161888" lon="18.116213">
        <ele>48</ele>
        <time>2019-09-29T16:17:37Z</time>
      </trkpt>
      <trkpt lat="59.161858" lon="18.116224">
        <ele>48</ele>
        <time>2019-09-29T16:17:38Z</time>
      </trkpt>
      <trkpt lat="59.161827" lon="18.116231">
        <ele>48</ele>
        <time>2019-09-29T16:17:39Z</time>
      </trkpt>
      <trkpt lat="59.161797" lon="18.116232">
        <ele>48</ele>
        <time>2019-09-29T16:17:40Z</time>
      </trkpt>
      <trkpt lat="59.161773" lon="18.116223">
        <ele>48</ele>
        <time>2019-09-29T16:17:41Z</time>
      </trkpt>
      <trkpt lat="59.161754" lon="18.116208">
        <ele>48</ele>
        <time>2019-09-29T16:17:42Z</time>
      </trkpt>
      <trkpt lat="59.161739" lon="18.11619">
        <ele>48</ele>
        <time>2019-09-29T16:17:43Z</time>
      </trkpt>
      <trkpt lat="59.161722" lon="18.11617">
        <ele>48</ele>
        <time>2019-09-29T16:17:44Z</time>
      </trkpt>
      <trkpt lat="59.161702" lon="18.11615">
        <ele>48</ele>
        <time>2019-09-29T16:17:45Z</time>
      </trkpt>
      <trkpt lat="59.161679" lon="18.11613">
        <ele>48</ele>
        <time>2019-09-29T16:17:46Z</time>
      </trkpt>
      <trkpt lat="59.161655" lon="18.116113">
        <ele>48</ele>
        <time>2019-09-29T16:17:47Z</time>
      </trkpt>
      <trkpt lat="59.161632" lon="18.116102">
        <ele>48</ele>
        <time>2019-09-29T16:17:48Z</time>
      </trkpt>
      <trkpt lat="59.161607" lon="18.116093">
        <ele>48</ele>
        <time>2019-09-29T16:17:49Z</time>
      </trkpt>
      <trkpt lat="59.161581" lon="18.116086">
        <ele>48</ele>
        <time>2019-09-29T16:17:50Z</time>
      </trkpt>
      <trkpt lat="59.161554" lon="18.116083">
        <ele>48</ele>
        <time>2019-09-29T16:17:51Z</time>
      </trkpt>
      <trkpt lat="59.161528" lon="18.116081">
        <ele>48</ele>
        <time>2019-09-29T16:17:52Z</time>
      </trkpt>
      <trkpt lat="59.161503" lon="18.116081">
        <ele>48</ele>
        <time>2019-09-29T16:17:53Z</time>
      </trkpt>
      <trkpt lat="59.161479" lon="18.116084">
        <ele>48</ele>
        <time>2019-09-29T16:17:54Z</time>
      </trkpt>
      <trkpt lat="59.161454" lon="18.116094">
        <ele>48</ele>
        <time>2019-09-29T16:17:55Z</time>
      </trkpt>
      <trkpt lat="59.161429" lon="18.116107">
        <ele>48</ele>
        <time>2019-09-29T16:17:56Z</time>
      </trkpt>
      <trkpt lat="59.161404" lon="18.116119">
        <ele>48</ele>
        <time>2019-09-29T16:17:57Z</time>
      </trkpt>
      <trkpt lat="59.161378" lon="18.116131">
        <ele>48</ele>
        <time>2019-09-29T16:17:58Z</time>
      </trkpt>
      <trkpt lat="59.161353" lon="18.116144">
        <ele>48</ele>
        <time>2019-09-29T16:17:59Z</time>
      </trkpt>
      <trkpt lat="59.161328" lon="18.116155">
        <ele>48</ele>
        <time>2019-09-29T16:18:00Z</time>
      </trkpt>
      <trkpt lat="59.161303" lon="18.116165">
        <ele>48</ele>
        <time>2019-09-29T16:18:01Z</time>
      </trkpt>
      <trkpt lat="59.161278" lon="18.116176">
        <ele>48</ele>
        <time>2019-09-29T16:18:02Z</time>
      </trkpt>
      <trkpt lat="59.161253" lon="18.11619">
        <ele>48</ele>
        <time>2019-09-29T16:18:03Z</time>
      </trkpt>
      <trkpt lat="59.161232" lon="18.11621">
        <ele>48</ele>
        <time>2019-09-29T16:18:04Z</time>
      </trkpt>
      <trkpt lat="59.161211" lon="18.116234">
        <ele>48</ele>
        <time>2019-09-29T16:18:05Z</time>
      </trkpt>
      <trkpt lat="59.161189" lon="18.116257">
        <ele>48</ele>
        <time>2019-09-29T16:18:06Z</time>
      </trkpt>
      <trkpt lat="59.161168" lon="18.116279">
        <ele>48</ele>
        <time>2019-09-29T16:18:07Z</time>
      </trkpt>
      <trkpt lat="59.161146" lon="18.116299">
        <ele>48</ele>
        <time>2019-09-29T16:18:08Z</time>
      </trkpt>
      <trkpt lat="59.161124" lon="18.116321">
        <ele>48</ele>
        <time>2019-09-29T16:18:09Z</time>
      </trkpt>
      <trkpt lat="59.161107" lon="18.116342">
        <ele>48</ele>
        <time>2019-09-29T16:18:10Z</time>
      </trkpt>
      <trkpt lat="59.161087" lon="18.116368">
        <ele>48</ele>
        <time>2019-09-29T16:18:11Z</time>
      </trkpt>
      <trkpt lat="59.161063" lon="18.116398">
        <ele>48</ele>
        <time>2019-09-29T16:18:12Z</time>
      </trkpt>
      <trkpt lat="59.161036" lon="18.116425">
        <ele>48</ele>
        <time>2019-09-29T16:18:13Z</time>
      </trkpt>
      <trkpt lat="59.161009" lon="18.116448">
        <ele>48</ele>
        <time>2019-09-29T16:18:14Z</time>
      </trkpt>
      <trkpt lat="59.160982" lon="18.11647">
        <ele>48</ele>
        <time>2019-09-29T16:18:15Z</time>
      </trkpt>
      <trkpt lat="59.160957" lon="18.11649">
        <ele>48</ele>
        <time>2019-09-29T16:18:16Z</time>
      </trkpt>
      <trkpt lat="59.160933" lon="18.116508">
        <ele>47</ele>
        <time>2019-09-29T16:18:17Z</time>
      </trkpt>
      <trkpt lat="59.160908" lon="18.116526">
        <ele>47</ele>
        <time>2019-09-29T16:18:18Z</time>
      </trkpt>
      <trkpt lat="59.160881" lon="18.116548">
        <ele>47</ele>
        <time>2019-09-29T16:18:19Z</time>
      </trkpt>
      <trkpt lat="59.160854" lon="18.11657">
        <ele>47</ele>
        <time>2019-09-29T16:18:20Z</time>
      </trkpt>
      <trkpt lat="59.160832" lon="18.11659">
        <ele>47</ele>
        <time>2019-09-29T16:18:21Z</time>
      </trkpt>
      <trkpt lat="59.160811" lon="18.116606">
        <ele>46</ele>
        <time>2019-09-29T16:18:22Z</time>
      </trkpt>
      <trkpt lat="59.16079" lon="18.116623">
        <ele>46</ele>
        <time>2019-09-29T16:18:23Z</time>
      </trkpt>
      <trkpt lat="59.160771" lon="18.116641">
        <ele>46</ele>
        <time>2019-09-29T16:18:24Z</time>
      </trkpt>
      <trkpt lat="59.160752" lon="18.116658">
        <ele>46</ele>
        <time>2019-09-29T16:18:25Z</time>
      </trkpt>
      <trkpt lat="59.160733" lon="18.116676">
        <ele>46</ele>
        <time>2019-09-29T16:18:26Z</time>
      </trkpt>
      <trkpt lat="59.160714" lon="18.116693">
        <ele>46</ele>
        <time>2019-09-29T16:18:27Z</time>
      </trkpt>
      <trkpt lat="59.160694" lon="18.116709">
        <ele>46</ele>
        <time>2019-09-29T16:18:28Z</time>
      </trkpt>
      <trkpt lat="59.160675" lon="18.116724">
        <ele>46</ele>
        <time>2019-09-29T16:18:29Z</time>
      </trkpt>
      <trkpt lat="59.160654" lon="18.116739">
        <ele>46</ele>
        <time>2019-09-29T16:18:30Z</time>
      </trkpt>
      <trkpt lat="59.160632" lon="18.116757">
        <ele>46</ele>
        <time>2019-09-29T16:18:31Z</time>
      </trkpt>
      <trkpt lat="59.16061" lon="18.11678">
        <ele>46</ele>
        <time>2019-09-29T16:18:32Z</time>
      </trkpt>
      <trkpt lat="59.160588" lon="18.116804">
        <ele>46</ele>
        <time>2019-09-29T16:18:33Z</time>
      </trkpt>
      <trkpt lat="59.160569" lon="18.116827">
        <ele>46</ele>
        <time>2019-09-29T16:18:34Z</time>
      </trkpt>
      <trkpt lat="59.160553" lon="18.11685">
        <ele>46</ele>
        <time>2019-09-29T16:18:35Z</time>
      </trkpt>
      <trkpt lat="59.160537" lon="18.11687">
        <ele>46</ele>
        <time>2019-09-29T16:18:36Z</time>
      </trkpt>
      <trkpt lat="59.160521" lon="18.116889">
        <ele>46</ele>
        <time>2019-09-29T16:18:37Z</time>
      </trkpt>
      <trkpt lat="59.160493" lon="18.11692">
        <ele>46</ele>
        <time>2019-09-29T16:18:39Z</time>
      </trkpt>
      <trkpt lat="59.160465" lon="18.116947">
        <ele>46</ele>
        <time>2019-09-29T16:18:41Z</time>
      </trkpt>
      <trkpt lat="59.160438" lon="18.116978">
        <ele>46</ele>
        <time>2019-09-29T16:18:43Z</time>
      </trkpt>
      <trkpt lat="59.160417" lon="18.116991">
        <ele>46</ele>
        <time>2019-09-29T16:18:45Z</time>
      </trkpt>
      <trkpt lat="59.160399" lon="18.117007">
        <ele>47</ele>
        <time>2019-09-29T16:18:47Z</time>
      </trkpt>
      <trkpt lat="59.160379" lon="18.11704">
        <ele>47</ele>
        <time>2019-09-29T16:18:49Z</time>
      </trkpt>
      <trkpt lat="59.16036" lon="18.117067">
        <ele>47</ele>
        <time>2019-09-29T16:18:51Z</time>
      </trkpt>
      <trkpt lat="59.160337" lon="18.117086">
        <ele>48</ele>
        <time>2019-09-29T16:18:53Z</time>
      </trkpt>
      <trkpt lat="59.160315" lon="18.117111">
        <ele>48</ele>
        <time>2019-09-29T16:18:55Z</time>
      </trkpt>
      <trkpt lat="59.160295" lon="18.117142">
        <ele>48</ele>
        <time>2019-09-29T16:18:57Z</time>
      </trkpt>
      <trkpt lat="59.16027" lon="18.117182">
        <ele>49</ele>
        <time>2019-09-29T16:18:59Z</time>
      </trkpt>
      <trkpt lat="59.16024" lon="18.117212">
        <ele>49</ele>
        <time>2019-09-29T16:19:01Z</time>
      </trkpt>
      <trkpt lat="59.160218" lon="18.117235">
        <ele>49</ele>
        <time>2019-09-29T16:19:03Z</time>
      </trkpt>
      <trkpt lat="59.160199" lon="18.11725">
        <ele>50</ele>
        <time>2019-09-29T16:19:05Z</time>
      </trkpt>
      <trkpt lat="59.160181" lon="18.117272">
        <ele>50</ele>
        <time>2019-09-29T16:19:07Z</time>
      </trkpt>
      <trkpt lat="59.16016" lon="18.117295">
        <ele>51</ele>
        <time>2019-09-29T16:19:10Z</time>
      </trkpt>
      <trkpt lat="59.16014" lon="18.117312">
        <ele>51</ele>
        <time>2019-09-29T16:19:13Z</time>
      </trkpt>
      <trkpt lat="59.160118" lon="18.117341">
        <ele>52</ele>
        <time>2019-09-29T16:19:16Z</time>
      </trkpt>
      <trkpt lat="59.160103" lon="18.117367">
        <ele>53</ele>
        <time>2019-09-29T16:19:20Z</time>
      </trkpt>
      <trkpt lat="59.160084" lon="18.11739">
        <ele>53</ele>
        <time>2019-09-29T16:19:24Z</time>
      </trkpt>
      <trkpt lat="59.160067" lon="18.117419">
        <ele>54</ele>
        <time>2019-09-29T16:19:28Z</time>
      </trkpt>
      <trkpt lat="59.160048" lon="18.117438">
        <ele>55</ele>
        <time>2019-09-29T16:19:31Z</time>
      </trkpt>
      <trkpt lat="59.160023" lon="18.117459">
        <ele>56</ele>
        <time>2019-09-29T16:19:34Z</time>
      </trkpt>
      <trkpt lat="59.159999" lon="18.117484">
        <ele>56</ele>
        <time>2019-09-29T16:19:36Z</time>
      </trkpt>
      <trkpt lat="59.159978" lon="18.117513">
        <ele>56</ele>
        <time>2019-09-29T16:19:39Z</time>
      </trkpt>
      <trkpt lat="59.159962" lon="18.117535">
        <ele>57</ele>
        <time>2019-09-29T16:19:41Z</time>
      </trkpt>
      <trkpt lat="59.159942" lon="18.117557">
        <ele>57</ele>
        <time>2019-09-29T16:19:43Z</time>
      </trkpt>
      <trkpt lat="59.159924" lon="18.117576">
        <ele>58</ele>
        <time>2019-09-29T16:19:45Z</time>
      </trkpt>
      <trkpt lat="59.159909" lon="18.117597">
        <ele>58</ele>
        <time>2019-09-29T16:19:48Z</time>
      </trkpt>
      <trkpt lat="59.159885" lon="18.117614">
        <ele>59</ele>
        <time>2019-09-29T16:19:50Z</time>
      </trkpt>
      <trkpt lat="59.159867" lon="18.11764">
        <ele>59</ele>
        <time>2019-09-29T16:19:54Z</time>
      </trkpt>
      <trkpt lat="59.159845" lon="18.117669">
        <ele>60</ele>
        <time>2019-09-29T16:19:57Z</time>
      </trkpt>
      <trkpt lat="59.159816" lon="18.117688">
        <ele>60</ele>
        <time>2019-09-29T16:19:59Z</time>
      </trkpt>
      <trkpt lat="59.159795" lon="18.117698">
        <ele>60</ele>
        <time>2019-09-29T16:20:00Z</time>
      </trkpt>
      <trkpt lat="59.159771" lon="18.117705">
        <ele>60</ele>
        <time>2019-09-29T16:20:01Z</time>
      </trkpt>
      <trkpt lat="59.159743" lon="18.117706">
        <ele>60</ele>
        <time>2019-09-29T16:20:02Z</time>
      </trkpt>
      <trkpt lat="59.15971" lon="18.117702">
        <ele>60</ele>
        <time>2019-09-29T16:20:03Z</time>
      </trkpt>
      <trkpt lat="59.159682" lon="18.117701">
        <ele>61</ele>
        <time>2019-09-29T16:20:04Z</time>
      </trkpt>
      <trkpt lat="59.159652" lon="18.117702">
        <ele>61</ele>
        <time>2019-09-29T16:20:05Z</time>
      </trkpt>
      <trkpt lat="59.159621" lon="18.117701">
        <ele>61</ele>
        <time>2019-09-29T16:20:06Z</time>
      </trkpt>
      <trkpt lat="59.159595" lon="18.1177">
        <ele>61</ele>
        <time>2019-09-29T16:20:07Z</time>
      </trkpt>
      <trkpt lat="59.159562" lon="18.117695">
        <ele>62</ele>
        <time>2019-09-29T16:20:08Z</time>
      </trkpt>
      <trkpt lat="59.159528" lon="18.117686">
        <ele>62</ele>
        <time>2019-09-29T16:20:09Z</time>
      </trkpt>
      <trkpt lat="59.159496" lon="18.117676">
        <ele>62</ele>
        <time>2019-09-29T16:20:10Z</time>
      </trkpt>
      <trkpt lat="59.159466" lon="18.117666">
        <ele>62</ele>
        <time>2019-09-29T16:20:11Z</time>
      </trkpt>
      <trkpt lat="59.159444" lon="18.117658">
        <ele>62</ele>
        <time>2019-09-29T16:20:12Z</time>
      </trkpt>
      <trkpt lat="59.15942" lon="18.117653">
        <ele>62</ele>
        <time>2019-09-29T16:20:13Z</time>
      </trkpt>
      <trkpt lat="59.159396" lon="18.117648">
        <ele>63</ele>
        <time>2019-09-29T16:20:14Z</time>
      </trkpt>
      <trkpt lat="59.15937" lon="18.117643">
        <ele>63</ele>
        <time>2019-09-29T16:20:15Z</time>
      </trkpt>
      <trkpt lat="59.159342" lon="18.117631">
        <ele>63</ele>
        <time>2019-09-29T16:20:16Z</time>
      </trkpt>
      <trkpt lat="59.159324" lon="18.117624">
        <ele>63</ele>
        <time>2019-09-29T16:20:17Z</time>
      </trkpt>
      <trkpt lat="59.159294" lon="18.117613">
        <ele>63</ele>
        <time>2019-09-29T16:20:19Z</time>
      </trkpt>
      <trkpt lat="59.159271" lon="18.117605">
        <ele>63</ele>
        <time>2019-09-29T16:20:21Z</time>
      </trkpt>
      <trkpt lat="59.159242" lon="18.117591">
        <ele>63</ele>
        <time>2019-09-29T16:20:22Z</time>
      </trkpt>
      <trkpt lat="59.159217" lon="18.117583">
        <ele>64</ele>
        <time>2019-09-29T16:20:23Z</time>
      </trkpt>
      <trkpt lat="59.159192" lon="18.117575">
        <ele>64</ele>
        <time>2019-09-29T16:20:25Z</time>
      </trkpt>
      <trkpt lat="59.159173" lon="18.11758">
        <ele>64</ele>
        <time>2019-09-29T16:20:28Z</time>
      </trkpt>
      <trkpt lat="59.159157" lon="18.117606">
        <ele>64</ele>
        <time>2019-09-29T16:20:31Z</time>
      </trkpt>
      <trkpt lat="59.159142" lon="18.117627">
        <ele>64</ele>
        <time>2019-09-29T16:20:33Z</time>
      </trkpt>
      <trkpt lat="59.159132" lon="18.117656">
        <ele>64</ele>
        <time>2019-09-29T16:20:35Z</time>
      </trkpt>
      <trkpt lat="59.159112" lon="18.11771">
        <ele>64</ele>
        <time>2019-09-29T16:20:37Z</time>
      </trkpt>
      <trkpt lat="59.159106" lon="18.117746">
        <ele>64</ele>
        <time>2019-09-29T16:20:38Z</time>
      </trkpt>
      <trkpt lat="59.159095" lon="18.117782">
        <ele>64</ele>
        <time>2019-09-29T16:20:39Z</time>
      </trkpt>
      <trkpt lat="59.159083" lon="18.117818">
        <ele>64</ele>
        <time>2019-09-29T16:20:40Z</time>
      </trkpt>
      <trkpt lat="59.159068" lon="18.11785">
        <ele>64</ele>
        <time>2019-09-29T16:20:41Z</time>
      </trkpt>
      <trkpt lat="59.159052" lon="18.117886">
        <ele>64</ele>
        <time>2019-09-29T16:20:42Z</time>
      </trkpt>
      <trkpt lat="59.159029" lon="18.117935">
        <ele>64</ele>
        <time>2019-09-29T16:20:43Z</time>
      </trkpt>
      <trkpt lat="59.159" lon="18.117991">
        <ele>63</ele>
        <time>2019-09-29T16:20:44Z</time>
      </trkpt>
      <trkpt lat="59.158962" lon="18.118047">
        <ele>63</ele>
        <time>2019-09-29T16:20:45Z</time>
      </trkpt>
      <trkpt lat="59.158927" lon="18.118086">
        <ele>63</ele>
        <time>2019-09-29T16:20:46Z</time>
      </trkpt>
      <trkpt lat="59.158886" lon="18.118098">
        <ele>63</ele>
        <time>2019-09-29T16:20:47Z</time>
      </trkpt>
      <trkpt lat="59.158846" lon="18.11812">
        <ele>63</ele>
        <time>2019-09-29T16:20:48Z</time>
      </trkpt>
      <trkpt lat="59.158822" lon="18.118167">
        <ele>63</ele>
        <time>2019-09-29T16:20:49Z</time>
      </trkpt>
      <trkpt lat="59.158812" lon="18.118215">
        <ele>63</ele>
        <time>2019-09-29T16:20:50Z</time>
      </trkpt>
      <trkpt lat="59.15881" lon="18.118256">
        <ele>63</ele>
        <time>2019-09-29T16:20:51Z</time>
      </trkpt>
      <trkpt lat="59.158816" lon="18.118294">
        <ele>63</ele>
        <time>2019-09-29T16:20:52Z</time>
      </trkpt>
      <trkpt lat="59.15883" lon="18.118326">
        <ele>63</ele>
        <time>2019-09-29T16:20:53Z</time>
      </trkpt>
      <trkpt lat="59.158842" lon="18.118366">
        <ele>63</ele>
        <time>2019-09-29T16:20:54Z</time>
      </trkpt>
      <trkpt lat="59.158842" lon="18.118421">
        <ele>63</ele>
        <time>2019-09-29T16:20:55Z</time>
      </trkpt>
      <trkpt lat="59.158833" lon="18.118486">
        <ele>63</ele>
        <time>2019-09-29T16:20:56Z</time>
      </trkpt>
      <trkpt lat="59.158818" lon="18.118549">
        <ele>63</ele>
        <time>2019-09-29T16:20:57Z</time>
      </trkpt>
      <trkpt lat="59.158802" lon="18.118604">
        <ele>63</ele>
        <time>2019-09-29T16:20:58Z</time>
      </trkpt>
      <trkpt lat="59.15876" lon="18.118672">
        <ele>63</ele>
        <time>2019-09-29T16:21:00Z</time>
      </trkpt>
      <trkpt lat="59.158736" lon="18.118711">
        <ele>63</ele>
        <time>2019-09-29T16:21:01Z</time>
      </trkpt>
      <trkpt lat="59.158731" lon="18.118756">
        <ele>62</ele>
        <time>2019-09-29T16:21:02Z</time>
      </trkpt>
      <trkpt lat="59.15875" lon="18.118777">
        <ele>62</ele>
        <time>2019-09-29T16:21:03Z</time>
      </trkpt>
      <trkpt lat="59.158776" lon="18.118793">
        <ele>62</ele>
        <time>2019-09-29T16:21:04Z</time>
      </trkpt>
      <trkpt lat="59.158802" lon="18.118804">
        <ele>62</ele>
        <time>2019-09-29T16:21:05Z</time>
      </trkpt>
      <trkpt lat="59.158824" lon="18.118816">
        <ele>62</ele>
        <time>2019-09-29T16:21:06Z</time>
      </trkpt>
      <trkpt lat="59.158839" lon="18.118837">
        <ele>62</ele>
        <time>2019-09-29T16:21:07Z</time>
      </trkpt>
      <trkpt lat="59.158836" lon="18.118913">
        <ele>62</ele>
        <time>2019-09-29T16:21:09Z</time>
      </trkpt>
      <trkpt lat="59.15883" lon="18.118964">
        <ele>62</ele>
        <time>2019-09-29T16:21:10Z</time>
      </trkpt>
      <trkpt lat="59.158822" lon="18.119021">
        <ele>62</ele>
        <time>2019-09-29T16:21:11Z</time>
      </trkpt>
      <trkpt lat="59.158818" lon="18.119076">
        <ele>62</ele>
        <time>2019-09-29T16:21:12Z</time>
      </trkpt>
      <trkpt lat="59.158814" lon="18.119126">
        <ele>62</ele>
        <time>2019-09-29T16:21:13Z</time>
      </trkpt>
      <trkpt lat="59.15883" lon="18.119178">
        <ele>62</ele>
        <time>2019-09-29T16:21:15Z</time>
      </trkpt>
      <trkpt lat="59.158848" lon="18.119163">
        <ele>62</ele>
        <time>2019-09-29T16:21:16Z</time>
      </trkpt>
      <trkpt lat="59.158876" lon="18.119138">
        <ele>62</ele>
        <time>2019-09-29T16:21:17Z</time>
      </trkpt>
      <trkpt lat="59.158903" lon="18.11911">
        <ele>62</ele>
        <time>2019-09-29T16:21:18Z</time>
      </trkpt>
      <trkpt lat="59.158926" lon="18.119077">
        <ele>62</ele>
        <time>2019-09-29T16:21:19Z</time>
      </trkpt>
      <trkpt lat="59.158942" lon="18.11904">
        <ele>62</ele>
        <time>2019-09-29T16:21:20Z</time>
      </trkpt>
      <trkpt lat="59.158939" lon="18.11899">
        <ele>62</ele>
        <time>2019-09-29T16:21:21Z</time>
      </trkpt>
      <trkpt lat="59.158927" lon="18.118943">
        <ele>62</ele>
        <time>2019-09-29T16:21:22Z</time>
      </trkpt>
      <trkpt lat="59.158916" lon="18.118891">
        <ele>62</ele>
        <time>2019-09-29T16:21:23Z</time>
      </trkpt>
      <trkpt lat="59.158915" lon="18.118832">
        <ele>62</ele>
        <time>2019-09-29T16:21:24Z</time>
      </trkpt>
      <trkpt lat="59.158928" lon="18.118779">
        <ele>63</ele>
        <time>2019-09-29T16:21:25Z</time>
      </trkpt>
      <trkpt lat="59.158933" lon="18.118721">
        <ele>63</ele>
        <time>2019-09-29T16:21:26Z</time>
      </trkpt>
      <trkpt lat="59.158925" lon="18.118664">
        <ele>63</ele>
        <time>2019-09-29T16:21:27Z</time>
      </trkpt>
      <trkpt lat="59.158916" lon="18.118598">
        <ele>63</ele>
        <time>2019-09-29T16:21:28Z</time>
      </trkpt>
      <trkpt lat="59.15892" lon="18.118533">
        <ele>63</ele>
        <time>2019-09-29T16:21:29Z</time>
      </trkpt>
      <trkpt lat="59.158935" lon="18.118482">
        <ele>63</ele>
        <time>2019-09-29T16:21:30Z</time>
      </trkpt>
      <trkpt lat="59.158971" lon="18.118442">
        <ele>63</ele>
        <time>2019-09-29T16:21:31Z</time>
      </trkpt>
      <trkpt lat="59.159009" lon="18.118419">
        <ele>63</ele>
        <time>2019-09-29T16:21:32Z</time>
      </trkpt>
      <trkpt lat="59.159041" lon="18.118387">
        <ele>63</ele>
        <time>2019-09-29T16:21:33Z</time>
      </trkpt>
      <trkpt lat="59.159068" lon="18.11835">
        <ele>63</ele>
        <time>2019-09-29T16:21:34Z</time>
      </trkpt>
      <trkpt lat="59.159092" lon="18.118308">
        <ele>63</ele>
        <time>2019-09-29T16:21:35Z</time>
      </trkpt>
      <trkpt lat="59.159115" lon="18.118269">
        <ele>63</ele>
        <time>2019-09-29T16:21:36Z</time>
      </trkpt>
      <trkpt lat="59.159138" lon="18.118236">
        <ele>63</ele>
        <time>2019-09-29T16:21:37Z</time>
      </trkpt>
      <trkpt lat="59.159163" lon="18.118201">
        <ele>63</ele>
        <time>2019-09-29T16:21:38Z</time>
      </trkpt>
      <trkpt lat="59.159179" lon="18.118162">
        <ele>63</ele>
        <time>2019-09-29T16:21:39Z</time>
      </trkpt>
      <trkpt lat="59.159183" lon="18.118117">
        <ele>63</ele>
        <time>2019-09-29T16:21:40Z</time>
      </trkpt>
      <trkpt lat="59.159181" lon="18.118071">
        <ele>63</ele>
        <time>2019-09-29T16:21:41Z</time>
      </trkpt>
      <trkpt lat="59.159173" lon="18.118022">
        <ele>63</ele>
        <time>2019-09-29T16:21:42Z</time>
      </trkpt>
      <trkpt lat="59.159162" lon="18.117973">
        <ele>63</ele>
        <time>2019-09-29T16:21:43Z</time>
      </trkpt>
      <trkpt lat="59.159149" lon="18.117927">
        <ele>63</ele>
        <time>2019-09-29T16:21:44Z</time>
      </trkpt>
      <trkpt lat="59.159141" lon="18.117887">
        <ele>63</ele>
        <time>2019-09-29T16:21:45Z</time>
      </trkpt>
      <trkpt lat="59.159116" lon="18.117865">
        <ele>63</ele>
        <time>2019-09-29T16:21:47Z</time>
      </trkpt>
      <trkpt lat="59.159086" lon="18.117866">
        <ele>63</ele>
        <time>2019-09-29T16:21:49Z</time>
      </trkpt>
      <trkpt lat="59.159066" lon="18.11786">
        <ele>63</ele>
        <time>2019-09-29T16:21:53Z</time>
      </trkpt>
      <trkpt lat="59.159066" lon="18.11786">
        <ele>64</ele>
        <time>2019-09-29T16:21:54Z</time>
      </trkpt>
      <trkpt lat="59.159001" lon="18.117964">
        <ele>63</ele>
        <time>2019-09-29T16:22:50Z</time>
      </trkpt>
      <trkpt lat="59.158977" lon="18.118016">
        <ele>63</ele>
        <time>2019-09-29T16:22:51Z</time>
      </trkpt>
      <trkpt lat="59.15895" lon="18.118061">
        <ele>63</ele>
        <time>2019-09-29T16:22:52Z</time>
      </trkpt>
      <trkpt lat="59.158919" lon="18.118089">
        <ele>62</ele>
        <time>2019-09-29T16:22:53Z</time>
      </trkpt>
      <trkpt lat="59.158886" lon="18.1181">
        <ele>62</ele>
        <time>2019-09-29T16:22:54Z</time>
      </trkpt>
      <trkpt lat="59.158852" lon="18.118115">
        <ele>62</ele>
        <time>2019-09-29T16:22:55Z</time>
      </trkpt>
      <trkpt lat="59.158832" lon="18.118148">
        <ele>62</ele>
        <time>2019-09-29T16:22:56Z</time>
      </trkpt>
      <trkpt lat="59.158824" lon="18.118188">
        <ele>62</ele>
        <time>2019-09-29T16:22:57Z</time>
      </trkpt>
      <trkpt lat="59.158821" lon="18.118232">
        <ele>62</ele>
        <time>2019-09-29T16:22:58Z</time>
      </trkpt>
      <trkpt lat="59.158823" lon="18.118269">
        <ele>62</ele>
        <time>2019-09-29T16:22:59Z</time>
      </trkpt>
      <trkpt lat="59.158842" lon="18.118339">
        <ele>62</ele>
        <time>2019-09-29T16:23:01Z</time>
      </trkpt>
      <trkpt lat="59.158854" lon="18.118393">
        <ele>62</ele>
        <time>2019-09-29T16:23:02Z</time>
      </trkpt>
      <trkpt lat="59.158851" lon="18.118455">
        <ele>62</ele>
        <time>2019-09-29T16:23:03Z</time>
      </trkpt>
      <trkpt lat="59.15884" lon="18.118512">
        <ele>62</ele>
        <time>2019-09-29T16:23:04Z</time>
      </trkpt>
      <trkpt lat="59.158823" lon="18.118553">
        <ele>62</ele>
        <time>2019-09-29T16:23:05Z</time>
      </trkpt>
      <trkpt lat="59.158804" lon="18.118592">
        <ele>62</ele>
        <time>2019-09-29T16:23:06Z</time>
      </trkpt>
      <trkpt lat="59.158786" lon="18.118623">
        <ele>62</ele>
        <time>2019-09-29T16:23:07Z</time>
      </trkpt>
      <trkpt lat="59.158767" lon="18.118648">
        <ele>62</ele>
        <time>2019-09-29T16:23:08Z</time>
      </trkpt>
      <trkpt lat="59.158748" lon="18.118668">
        <ele>62</ele>
        <time>2019-09-29T16:23:09Z</time>
      </trkpt>
      <trkpt lat="59.15873" lon="18.118699">
        <ele>62</ele>
        <time>2019-09-29T16:23:11Z</time>
      </trkpt>
      <trkpt lat="59.158741" lon="18.118728">
        <ele>62</ele>
        <time>2019-09-29T16:23:14Z</time>
      </trkpt>
      <trkpt lat="59.158742" lon="18.118733">
        <ele>62</ele>
        <time>2019-09-29T16:23:18Z</time>
      </trkpt>
      <trkpt lat="59.158776" lon="18.118715">
        <ele>62</ele>
        <time>2019-09-29T16:27:53Z</time>
      </trkpt>
      <trkpt lat="59.158776" lon="18.118715">
        <ele>63</ele>
        <time>2019-09-29T16:27:58Z</time>
      </trkpt>
      <trkpt lat="59.158826" lon="18.118726">
        <ele>63</ele>
        <time>2019-09-29T16:31:59Z</time>
      </trkpt>
      <trkpt lat="59.158788" lon="18.118714">
        <ele>63</ele>
        <time>2019-09-29T16:32:01Z</time>
      </trkpt>
      <trkpt lat="59.158766" lon="18.118752">
        <ele>63</ele>
        <time>2019-09-29T16:32:03Z</time>
      </trkpt>
      <trkpt lat="59.158798" lon="18.11878">
        <ele>63</ele>
        <time>2019-09-29T16:32:05Z</time>
      </trkpt>
      <trkpt lat="59.158825" lon="18.118788">
        <ele>63</ele>
        <time>2019-09-29T16:32:06Z</time>
      </trkpt>
      <trkpt lat="59.158852" lon="18.118803">
        <ele>62</ele>
        <time>2019-09-29T16:32:07Z</time>
      </trkpt>
      <trkpt lat="59.15887" lon="18.11884">
        <ele>62</ele>
        <time>2019-09-29T16:32:08Z</time>
      </trkpt>
      <trkpt lat="59.158867" lon="18.118908">
        <ele>62</ele>
        <time>2019-09-29T16:32:09Z</time>
      </trkpt>
      <trkpt lat="59.15885" lon="18.118986">
        <ele>62</ele>
        <time>2019-09-29T16:32:10Z</time>
      </trkpt>
      <trkpt lat="59.158835" lon="18.11906">
        <ele>62</ele>
        <time>2019-09-29T16:32:11Z</time>
      </trkpt>
      <trkpt lat="59.158827" lon="18.119118">
        <ele>62</ele>
        <time>2019-09-29T16:32:12Z</time>
      </trkpt>
      <trkpt lat="59.158847" lon="18.119141">
        <ele>63</ele>
        <time>2019-09-29T16:32:14Z</time>
      </trkpt>
      <trkpt lat="59.158871" lon="18.119117">
        <ele>62</ele>
        <time>2019-09-29T16:32:15Z</time>
      </trkpt>
      <trkpt lat="59.1589" lon="18.119077">
        <ele>62</ele>
        <time>2019-09-29T16:32:16Z</time>
      </trkpt>
      <trkpt lat="59.15891" lon="18.118844">
        <ele>62</ele>
        <time>2019-09-29T16:32:20Z</time>
      </trkpt>
      <trkpt lat="59.158926" lon="18.118758">
        <ele>62</ele>
        <time>2019-09-29T16:32:21Z</time>
      </trkpt>
      <trkpt lat="59.158916" lon="18.118541">
        <ele>62</ele>
        <time>2019-09-29T16:32:24Z</time>
      </trkpt>
      <trkpt lat="59.158962" lon="18.118411">
        <ele>62</ele>
        <time>2019-09-29T16:32:26Z</time>
      </trkpt>
      <trkpt lat="59.159005" lon="18.118383">
        <ele>62</ele>
        <time>2019-09-29T16:32:27Z</time>
      </trkpt>
      <trkpt lat="59.159047" lon="18.118354">
        <ele>62</ele>
        <time>2019-09-29T16:32:28Z</time>
      </trkpt>
      <trkpt lat="59.159082" lon="18.118306">
        <ele>62</ele>
        <time>2019-09-29T16:32:29Z</time>
      </trkpt>
      <trkpt lat="59.159109" lon="18.118259">
        <ele>62</ele>
        <time>2019-09-29T16:32:30Z</time>
      </trkpt>
      <trkpt lat="59.159137" lon="18.118215">
        <ele>62</ele>
        <time>2019-09-29T16:32:31Z</time>
      </trkpt>
      <trkpt lat="59.159147" lon="18.117998">
        <ele>63</ele>
        <time>2019-09-29T16:32:36Z</time>
      </trkpt>
      <trkpt lat="59.159118" lon="18.117892">
        <ele>62</ele>
        <time>2019-09-29T16:32:38Z</time>
      </trkpt>
      <trkpt lat="59.1591" lon="18.117868">
        <ele>62</ele>
        <time>2019-09-29T16:32:39Z</time>
      </trkpt>
      <trkpt lat="59.159068" lon="18.117848">
        <ele>62</ele>
        <time>2019-09-29T16:32:41Z</time>
      </trkpt>
      <trkpt lat="59.15905" lon="18.117838">
        <ele>63</ele>
        <time>2019-09-29T16:32:44Z</time>
      </trkpt>
      <trkpt lat="59.159056" lon="18.117819">
        <ele>62</ele>
        <time>2019-09-29T16:32:51Z</time>
      </trkpt>
      <trkpt lat="59.158991" lon="18.117968">
        <ele>66</ele>
        <time>2019-09-29T16:34:09Z</time>
      </trkpt>
      <trkpt lat="59.158957" lon="18.118029">
        <ele>66</ele>
        <time>2019-09-29T16:34:09Z</time>
      </trkpt>
      <trkpt lat="59.158868" lon="18.118088">
        <ele>65</ele>
        <time>2019-09-29T16:34:11Z</time>
      </trkpt>
      <trkpt lat="59.158812" lon="18.118259">
        <ele>65</ele>
        <time>2019-09-29T16:34:14Z</time>
      </trkpt>
      <trkpt lat="59.158824" lon="18.118468">
        <ele>65</ele>
        <time>2019-09-29T16:34:17Z</time>
      </trkpt>
      <trkpt lat="59.158761" lon="18.118607">
        <ele>65</ele>
        <time>2019-09-29T16:34:19Z</time>
      </trkpt>
      <trkpt lat="59.158733" lon="18.118652">
        <ele>65</ele>
        <time>2019-09-29T16:34:20Z</time>
      </trkpt>
      <trkpt lat="59.158713" lon="18.118697">
        <ele>65</ele>
        <time>2019-09-29T16:34:21Z</time>
      </trkpt>
      <trkpt lat="59.158786" lon="18.11881">
        <ele>64</ele>
        <time>2019-09-29T16:34:25Z</time>
      </trkpt>
      <trkpt lat="59.158813" lon="18.118822">
        <ele>64</ele>
        <time>2019-09-29T16:34:26Z</time>
      </trkpt>
      <trkpt lat="59.15883" lon="18.118838">
        <ele>64</ele>
        <time>2019-09-29T16:34:27Z</time>
      </trkpt>
      <trkpt lat="59.158839" lon="18.118874">
        <ele>64</ele>
        <time>2019-09-29T16:34:28Z</time>
      </trkpt>
      <trkpt lat="59.158841" lon="18.118919">
        <ele>64</ele>
        <time>2019-09-29T16:34:29Z</time>
      </trkpt>
      <trkpt lat="59.158828" lon="18.119104">
        <ele>64</ele>
        <time>2019-09-29T16:34:33Z</time>
      </trkpt>
      <trkpt lat="59.158891" lon="18.119125">
        <ele>64</ele>
        <time>2019-09-29T16:34:38Z</time>
      </trkpt>
      <trkpt lat="59.158914" lon="18.119102">
        <ele>64</ele>
        <time>2019-09-29T16:34:39Z</time>
      </trkpt>
      <trkpt lat="59.158933" lon="18.119071">
        <ele>64</ele>
        <time>2019-09-29T16:34:40Z</time>
      </trkpt>
      <trkpt lat="59.15895" lon="18.119037">
        <ele>64</ele>
        <time>2019-09-29T16:34:41Z</time>
      </trkpt>
      <trkpt lat="59.158958" lon="18.119002">
        <ele>64</ele>
        <time>2019-09-29T16:34:42Z</time>
      </trkpt>
      <trkpt lat="59.158952" lon="18.118963">
        <ele>64</ele>
        <time>2019-09-29T16:34:43Z</time>
      </trkpt>
      <trkpt lat="59.158933" lon="18.118932">
        <ele>64</ele>
        <time>2019-09-29T16:34:44Z</time>
      </trkpt>
      <trkpt lat="59.158908" lon="18.118894">
        <ele>64</ele>
        <time>2019-09-29T16:34:45Z</time>
      </trkpt>
      <trkpt lat="59.1589" lon="18.118842">
        <ele>64</ele>
        <time>2019-09-29T16:34:46Z</time>
      </trkpt>
      <trkpt lat="59.158908" lon="18.118782">
        <ele>63</ele>
        <time>2019-09-29T16:34:47Z</time>
      </trkpt>
      <trkpt lat="59.158928" lon="18.118724">
        <ele>63</ele>
        <time>2019-09-29T16:34:48Z</time>
      </trkpt>
      <trkpt lat="59.158936" lon="18.118668">
        <ele>63</ele>
        <time>2019-09-29T16:34:49Z</time>
      </trkpt>
      <trkpt lat="59.158937" lon="18.118618">
        <ele>63</ele>
        <time>2019-09-29T16:34:50Z</time>
      </trkpt>
      <trkpt lat="59.158932" lon="18.118574">
        <ele>63</ele>
        <time>2019-09-29T16:34:51Z</time>
      </trkpt>
      <trkpt lat="59.158929" lon="18.118535">
        <ele>63</ele>
        <time>2019-09-29T16:34:52Z</time>
      </trkpt>
      <trkpt lat="59.158937" lon="18.118492">
        <ele>63</ele>
        <time>2019-09-29T16:34:53Z</time>
      </trkpt>
      <trkpt lat="59.158946" lon="18.118451">
        <ele>63</ele>
        <time>2019-09-29T16:34:54Z</time>
      </trkpt>
      <trkpt lat="59.158962" lon="18.118419">
        <ele>63</ele>
        <time>2019-09-29T16:34:55Z</time>
      </trkpt>
      <trkpt lat="59.158987" lon="18.118396">
        <ele>63</ele>
        <time>2019-09-29T16:34:56Z</time>
      </trkpt>
      <trkpt lat="59.159013" lon="18.11838">
        <ele>63</ele>
        <time>2019-09-29T16:34:57Z</time>
      </trkpt>
      <trkpt lat="59.159043" lon="18.118368">
        <ele>63</ele>
        <time>2019-09-29T16:34:58Z</time>
      </trkpt>
      <trkpt lat="59.15907" lon="18.118347">
        <ele>63</ele>
        <time>2019-09-29T16:34:59Z</time>
      </trkpt>
      <trkpt lat="59.159086" lon="18.118323">
        <ele>63</ele>
        <time>2019-09-29T16:35:00Z</time>
      </trkpt>
      <trkpt lat="59.1591" lon="18.118275">
        <ele>63</ele>
        <time>2019-09-29T16:35:03Z</time>
      </trkpt>
      <trkpt lat="59.159111" lon="18.118214">
        <ele>64</ele>
        <time>2019-09-29T16:35:09Z</time>
      </trkpt>
      <trkpt lat="59.159133" lon="18.118186">
        <ele>64</ele>
        <time>2019-09-29T16:35:11Z</time>
      </trkpt>
      <trkpt lat="59.159151" lon="18.118156">
        <ele>65</ele>
        <time>2019-09-29T16:35:14Z</time>
      </trkpt>
      <trkpt lat="59.159161" lon="18.1181">
        <ele>65</ele>
        <time>2019-09-29T16:35:16Z</time>
      </trkpt>
      <trkpt lat="59.159149" lon="18.11803">
        <ele>64</ele>
        <time>2019-09-29T16:35:18Z</time>
      </trkpt>
      <trkpt lat="59.159141" lon="18.117995">
        <ele>64</ele>
        <time>2019-09-29T16:35:19Z</time>
      </trkpt>
      <trkpt lat="59.159138" lon="18.117958">
        <ele>64</ele>
        <time>2019-09-29T16:35:20Z</time>
      </trkpt>
      <trkpt lat="59.159132" lon="18.117916">
        <ele>64</ele>
        <time>2019-09-29T16:35:21Z</time>
      </trkpt>
      <trkpt lat="59.159124" lon="18.117878">
        <ele>64</ele>
        <time>2019-09-29T16:35:22Z</time>
      </trkpt>
      <trkpt lat="59.159109" lon="18.117848">
        <ele>64</ele>
        <time>2019-09-29T16:35:23Z</time>
      </trkpt>
      <trkpt lat="59.159087" lon="18.117826">
        <ele>64</ele>
        <time>2019-09-29T16:35:27Z</time>
      </trkpt>
      <trkpt lat="59.159061" lon="18.117821">
        <ele>63</ele>
        <time>2019-09-29T16:35:29Z</time>
      </trkpt>
      <trkpt lat="59.159057" lon="18.117816">
        <ele>63</ele>
        <time>2019-09-29T16:35:34Z</time>
      </trkpt>
      <trkpt lat="59.15909" lon="18.117813">
        <ele>63</ele>
        <time>2019-09-29T16:36:45Z</time>
      </trkpt>
      <trkpt lat="59.15909" lon="18.117812">
        <ele>64</ele>
        <time>2019-09-29T16:36:49Z</time>
      </trkpt>
      <trkpt lat="59.15904" lon="18.117832">
        <ele>63</ele>
        <time>2019-09-29T16:40:55Z</time>
      </trkpt>
      <trkpt lat="59.159021" lon="18.11789">
        <ele>63</ele>
        <time>2019-09-29T16:40:57Z</time>
      </trkpt>
      <trkpt lat="59.159003" lon="18.117935">
        <ele>63</ele>
        <time>2019-09-29T16:40:58Z</time>
      </trkpt>
      <trkpt lat="59.158974" lon="18.11799">
        <ele>63</ele>
        <time>2019-09-29T16:40:59Z</time>
      </trkpt>
      <trkpt lat="59.158941" lon="18.118047">
        <ele>63</ele>
        <time>2019-09-29T16:41:00Z</time>
      </trkpt>
      <trkpt lat="59.158905" lon="18.118085">
        <ele>63</ele>
        <time>2019-09-29T16:41:01Z</time>
      </trkpt>
      <trkpt lat="59.158864" lon="18.118094">
        <ele>63</ele>
        <time>2019-09-29T16:41:02Z</time>
      </trkpt>
      <trkpt lat="59.158835" lon="18.11812">
        <ele>63</ele>
        <time>2019-09-29T16:41:03Z</time>
      </trkpt>
      <trkpt lat="59.158812" lon="18.118284">
        <ele>63</ele>
        <time>2019-09-29T16:41:06Z</time>
      </trkpt>
      <trkpt lat="59.158844" lon="18.118378">
        <ele>63</ele>
        <time>2019-09-29T16:41:08Z</time>
      </trkpt>
      <trkpt lat="59.15883" lon="18.118558">
        <ele>64</ele>
        <time>2019-09-29T16:41:11Z</time>
      </trkpt>
      <trkpt lat="59.15878" lon="18.11864">
        <ele>64</ele>
        <time>2019-09-29T16:41:13Z</time>
      </trkpt>
      <trkpt lat="59.158751" lon="18.118664">
        <ele>64</ele>
        <time>2019-09-29T16:41:14Z</time>
      </trkpt>
      <trkpt lat="59.158712" lon="18.118872">
        <ele>63</ele>
        <time>2019-09-29T16:41:18Z</time>
      </trkpt>
      <trkpt lat="59.15871" lon="18.119079">
        <ele>63</ele>
        <time>2019-09-29T16:41:22Z</time>
      </trkpt>
      <trkpt lat="59.158696" lon="18.119275">
        <ele>64</ele>
        <time>2019-09-29T16:41:27Z</time>
      </trkpt>
      <trkpt lat="59.158656" lon="18.119439">
        <ele>64</ele>
        <time>2019-09-29T16:41:31Z</time>
      </trkpt>
      <trkpt lat="59.158652" lon="18.119486">
        <ele>64</ele>
        <time>2019-09-29T16:41:32Z</time>
      </trkpt>
      <trkpt lat="59.158675" lon="18.119665">
        <ele>64</ele>
        <time>2019-09-29T16:41:36Z</time>
      </trkpt>
      <trkpt lat="59.158678" lon="18.119708">
        <ele>64</ele>
        <time>2019-09-29T16:41:37Z</time>
      </trkpt>
      <trkpt lat="59.15868" lon="18.119753">
        <ele>63</ele>
        <time>2019-09-29T16:41:38Z</time>
      </trkpt>
      <trkpt lat="59.158674" lon="18.119795">
        <ele>64</ele>
        <time>2019-09-29T16:41:39Z</time>
      </trkpt>
      <trkpt lat="59.158683" lon="18.120011">
        <ele>63</ele>
        <time>2019-09-29T16:41:43Z</time>
      </trkpt>
      <trkpt lat="59.158678" lon="18.120216">
        <ele>63</ele>
        <time>2019-09-29T16:41:47Z</time>
      </trkpt>
      <trkpt lat="59.15866" lon="18.12028">
        <ele>63</ele>
        <time>2019-09-29T16:41:50Z</time>
      </trkpt>
      <trkpt lat="59.158658" lon="18.120297">
        <ele>62</ele>
        <time>2019-09-29T16:41:57Z</time>
      </trkpt>
      <trkpt lat="59.158656" lon="18.120323">
        <ele>61</ele>
        <time>2019-09-29T16:42:55Z</time>
      </trkpt>
      <trkpt lat="59.158656" lon="18.120324">
        <ele>62</ele>
        <time>2019-09-29T16:42:59Z</time>
      </trkpt>
      <trkpt lat="59.15863" lon="18.12041">
        <ele>63</ele>
        <time>2019-09-29T16:44:15Z</time>
      </trkpt>
      <trkpt lat="59.158609" lon="18.120428">
        <ele>63</ele>
        <time>2019-09-29T16:44:15Z</time>
      </trkpt>
      <trkpt lat="59.158583" lon="18.120446">
        <ele>63</ele>
        <time>2019-09-29T16:44:16Z</time>
      </trkpt>
      <trkpt lat="59.158566" lon="18.120464">
        <ele>63</ele>
        <time>2019-09-29T16:44:17Z</time>
      </trkpt>
      <trkpt lat="59.15855" lon="18.120494">
        <ele>63</ele>
        <time>2019-09-29T16:44:19Z</time>
      </trkpt>
      <trkpt lat="59.158543" lon="18.1205">
        <ele>63</ele>
        <time>2019-09-29T16:44:24Z</time>
      </trkpt>
      <trkpt lat="59.15852" lon="18.120542">
        <ele>0</ele>
        <time>2019-09-29T16:44:31Z</time>
      </trkpt>
      <trkpt lat="59.158511" lon="18.120573">
        <ele>63</ele>
        <time>2019-09-29T16:44:32Z</time>
      </trkpt>
      <trkpt lat="59.158498" lon="18.120604">
        <ele>63</ele>
        <time>2019-09-29T16:44:33Z</time>
      </trkpt>
      <trkpt lat="59.158485" lon="18.12063">
        <ele>63</ele>
        <time>2019-09-29T16:44:34Z</time>
      </trkpt>
      <trkpt lat="59.158453" lon="18.12068">
        <ele>63</ele>
        <time>2019-09-29T16:44:36Z</time>
      </trkpt>
      <trkpt lat="59.158433" lon="18.1207">
        <ele>63</ele>
        <time>2019-09-29T16:44:37Z</time>
      </trkpt>
      <trkpt lat="59.158414" lon="18.12072">
        <ele>63</ele>
        <time>2019-09-29T16:44:38Z</time>
      </trkpt>
      <trkpt lat="59.158392" lon="18.120749">
        <ele>63</ele>
        <time>2019-09-29T16:44:39Z</time>
      </trkpt>
      <trkpt lat="59.158368" lon="18.120786">
        <ele>63</ele>
        <time>2019-09-29T16:44:40Z</time>
      </trkpt>
      <trkpt lat="59.158352" lon="18.120827">
        <ele>63</ele>
        <time>2019-09-29T16:44:41Z</time>
      </trkpt>
      <trkpt lat="59.158355" lon="18.120864">
        <ele>63</ele>
        <time>2019-09-29T16:44:42Z</time>
      </trkpt>
      <trkpt lat="59.158331" lon="18.121039">
        <ele>63</ele>
        <time>2019-09-29T16:44:46Z</time>
      </trkpt>
      <trkpt lat="59.158316" lon="18.121214">
        <ele>62</ele>
        <time>2019-09-29T16:44:50Z</time>
      </trkpt>
      <trkpt lat="59.158265" lon="18.121374">
        <ele>61</ele>
        <time>2019-09-29T16:44:58Z</time>
      </trkpt>
      <trkpt lat="59.158254" lon="18.121402">
        <ele>61</ele>
        <time>2019-09-29T16:45:02Z</time>
      </trkpt>
      <trkpt lat="59.158229" lon="18.121402">
        <ele>61</ele>
        <time>2019-09-29T16:45:06Z</time>
      </trkpt>
      <trkpt lat="59.15821" lon="18.121412">
        <ele>61</ele>
        <time>2019-09-29T16:45:08Z</time>
      </trkpt>
      <trkpt lat="59.158199" lon="18.121419">
        <ele>60</ele>
        <time>2019-09-29T16:45:14Z</time>
      </trkpt>
      <trkpt lat="59.158175" lon="18.121457">
        <ele>0</ele>
        <time>2019-09-29T16:45:41Z</time>
      </trkpt>
      <trkpt lat="59.158184" lon="18.121432">
        <ele>58</ele>
        <time>2019-09-29T16:45:43Z</time>
      </trkpt>
      <trkpt lat="59.158184" lon="18.121432">
        <ele>58</ele>
        <time>2019-09-29T16:45:46Z</time>
      </trkpt>
      <trkpt lat="59.158138" lon="18.121449">
        <ele>57</ele>
        <time>2019-09-29T16:46:15Z</time>
      </trkpt>
      <trkpt lat="59.158117" lon="18.121463">
        <ele>58</ele>
        <time>2019-09-29T16:46:16Z</time>
      </trkpt>
      <trkpt lat="59.158098" lon="18.121479">
        <ele>58</ele>
        <time>2019-09-29T16:46:17Z</time>
      </trkpt>
      <trkpt lat="59.15808" lon="18.1215">
        <ele>58</ele>
        <time>2019-09-29T16:46:18Z</time>
      </trkpt>
      <trkpt lat="59.158058" lon="18.12152">
        <ele>58</ele>
        <time>2019-09-29T16:46:19Z</time>
      </trkpt>
      <trkpt lat="59.158028" lon="18.121535">
        <ele>58</ele>
        <time>2019-09-29T16:46:20Z</time>
      </trkpt>
      <trkpt lat="59.157993" lon="18.121557">
        <ele>58</ele>
        <time>2019-09-29T16:46:21Z</time>
      </trkpt>
      <trkpt lat="59.157955" lon="18.121588">
        <ele>58</ele>
        <time>2019-09-29T16:46:22Z</time>
      </trkpt>
      <trkpt lat="59.157932" lon="18.121614">
        <ele>57</ele>
        <time>2019-09-29T16:46:23Z</time>
      </trkpt>
      <trkpt lat="59.157913" lon="18.121632">
        <ele>57</ele>
        <time>2019-09-29T16:46:25Z</time>
      </trkpt>
      <trkpt lat="59.157898" lon="18.121669">
        <ele>57</ele>
        <time>2019-09-29T16:46:28Z</time>
      </trkpt>
      <trkpt lat="59.157892" lon="18.121703">
        <ele>57</ele>
        <time>2019-09-29T16:46:29Z</time>
      </trkpt>
      <trkpt lat="59.157888" lon="18.121739">
        <ele>57</ele>
        <time>2019-09-29T16:46:30Z</time>
      </trkpt>
      <trkpt lat="59.157878" lon="18.121773">
        <ele>57</ele>
        <time>2019-09-29T16:46:31Z</time>
      </trkpt>
      <trkpt lat="59.157873" lon="18.121815">
        <ele>58</ele>
        <time>2019-09-29T16:46:32Z</time>
      </trkpt>
      <trkpt lat="59.15788" lon="18.121858">
        <ele>57</ele>
        <time>2019-09-29T16:46:33Z</time>
      </trkpt>
      <trkpt lat="59.157881" lon="18.121897">
        <ele>57</ele>
        <time>2019-09-29T16:46:34Z</time>
      </trkpt>
      <trkpt lat="59.157875" lon="18.121942">
        <ele>57</ele>
        <time>2019-09-29T16:46:35Z</time>
      </trkpt>
      <trkpt lat="59.157866" lon="18.121986">
        <ele>58</ele>
        <time>2019-09-29T16:46:36Z</time>
      </trkpt>
      <trkpt lat="59.157864" lon="18.122027">
        <ele>58</ele>
        <time>2019-09-29T16:46:37Z</time>
      </trkpt>
      <trkpt lat="59.157855" lon="18.122081">
        <ele>58</ele>
        <time>2019-09-29T16:46:38Z</time>
      </trkpt>
      <trkpt lat="59.157836" lon="18.122147">
        <ele>58</ele>
        <time>2019-09-29T16:46:39Z</time>
      </trkpt>
      <trkpt lat="59.15782" lon="18.122211">
        <ele>58</ele>
        <time>2019-09-29T16:46:40Z</time>
      </trkpt>
      <trkpt lat="59.157816" lon="18.122263">
        <ele>58</ele>
        <time>2019-09-29T16:46:41Z</time>
      </trkpt>
      <trkpt lat="59.157819" lon="18.122312">
        <ele>58</ele>
        <time>2019-09-29T16:46:42Z</time>
      </trkpt>
      <trkpt lat="59.15784" lon="18.122369">
        <ele>58</ele>
        <time>2019-09-29T16:46:44Z</time>
      </trkpt>
      <trkpt lat="59.157854" lon="18.122413">
        <ele>59</ele>
        <time>2019-09-29T16:46:46Z</time>
      </trkpt>
      <trkpt lat="59.157864" lon="18.122465">
        <ele>59</ele>
        <time>2019-09-29T16:46:48Z</time>
      </trkpt>
      <trkpt lat="59.157884" lon="18.122519">
        <ele>59</ele>
        <time>2019-09-29T16:46:50Z</time>
      </trkpt>
      <trkpt lat="59.157898" lon="18.12255">
        <ele>59</ele>
        <time>2019-09-29T16:46:51Z</time>
      </trkpt>
      <trkpt lat="59.15791" lon="18.122591">
        <ele>59</ele>
        <time>2019-09-29T16:46:52Z</time>
      </trkpt>
      <trkpt lat="59.157917" lon="18.122644">
        <ele>60</ele>
        <time>2019-09-29T16:46:53Z</time>
      </trkpt>
      <trkpt lat="59.157925" lon="18.122697">
        <ele>60</ele>
        <time>2019-09-29T16:46:54Z</time>
      </trkpt>
      <trkpt lat="59.157936" lon="18.122815">
        <ele>59</ele>
        <time>2019-09-29T16:46:57Z</time>
      </trkpt>
      <trkpt lat="59.157953" lon="18.122838">
        <ele>59</ele>
        <time>2019-09-29T16:47:01Z</time>
      </trkpt>
      <trkpt lat="59.157975" lon="18.122833">
        <ele>60</ele>
        <time>2019-09-29T16:47:05Z</time>
      </trkpt>
      <trkpt lat="59.157982" lon="18.12288">
        <ele>61</ele>
        <time>2019-09-29T16:47:11Z</time>
      </trkpt>
      <trkpt lat="59.157981" lon="18.122892">
        <ele>60</ele>
        <time>2019-09-29T16:47:16Z</time>
      </trkpt>
      <trkpt lat="59.158022" lon="18.122858">
        <ele>0</ele>
        <time>2019-09-29T16:48:03Z</time>
      </trkpt>
      <trkpt lat="59.15803" lon="18.122862">
        <ele>60</ele>
        <time>2019-09-29T16:48:07Z</time>
      </trkpt>
      <trkpt lat="59.158063" lon="18.122872">
        <ele>0</ele>
        <time>2019-09-29T16:48:09Z</time>
      </trkpt>
      <trkpt lat="59.158095" lon="18.122876">
        <ele>61</ele>
        <time>2019-09-29T16:48:10Z</time>
      </trkpt>
      <trkpt lat="59.15813" lon="18.122882">
        <ele>61</ele>
        <time>2019-09-29T16:48:11Z</time>
      </trkpt>
      <trkpt lat="59.158169" lon="18.122894">
        <ele>61</ele>
        <time>2019-09-29T16:48:12Z</time>
      </trkpt>
      <trkpt lat="59.15821" lon="18.122908">
        <ele>61</ele>
        <time>2019-09-29T16:48:13Z</time>
      </trkpt>
      <trkpt lat="59.158256" lon="18.12292">
        <ele>61</ele>
        <time>2019-09-29T16:48:14Z</time>
      </trkpt>
      <trkpt lat="59.158301" lon="18.122929">
        <ele>61</ele>
        <time>2019-09-29T16:48:15Z</time>
      </trkpt>
      <trkpt lat="59.158346" lon="18.122939">
        <ele>61</ele>
        <time>2019-09-29T16:48:16Z</time>
      </trkpt>
      <trkpt lat="59.158401" lon="18.122945">
        <ele>61</ele>
        <time>2019-09-29T16:48:17Z</time>
      </trkpt>
      <trkpt lat="59.158453" lon="18.12295">
        <ele>60</ele>
        <time>2019-09-29T16:48:18Z</time>
      </trkpt>
      <trkpt lat="59.158503" lon="18.122959">
        <ele>60</ele>
        <time>2019-09-29T16:48:19Z</time>
      </trkpt>
      <trkpt lat="59.158543" lon="18.122968">
        <ele>60</ele>
        <time>2019-09-29T16:48:20Z</time>
      </trkpt>
      <trkpt lat="59.15869" lon="18.122997">
        <ele>60</ele>
        <time>2019-09-29T16:48:23Z</time>
      </trkpt>
      <trkpt lat="59.158801" lon="18.123045">
        <ele>60</ele>
        <time>2019-09-29T16:48:25Z</time>
      </trkpt>
      <trkpt lat="59.158931" lon="18.1231">
        <ele>60</ele>
        <time>2019-09-29T16:48:27Z</time>
      </trkpt>
      <trkpt lat="59.159037" lon="18.123148">
        <ele>59</ele>
        <time>2019-09-29T16:48:29Z</time>
      </trkpt>
      <trkpt lat="59.15916" lon="18.123174">
        <ele>59</ele>
        <time>2019-09-29T16:48:31Z</time>
      </trkpt>
      <trkpt lat="59.159288" lon="18.123201">
        <ele>59</ele>
        <time>2019-09-29T16:48:33Z</time>
      </trkpt>
      <trkpt lat="59.159407" lon="18.123209">
        <ele>59</ele>
        <time>2019-09-29T16:48:35Z</time>
      </trkpt>
      <trkpt lat="59.159506" lon="18.123181">
        <ele>59</ele>
        <time>2019-09-29T16:48:37Z</time>
      </trkpt>
      <trkpt lat="59.159628" lon="18.123143">
        <ele>59</ele>
        <time>2019-09-29T16:48:40Z</time>
      </trkpt>
      <trkpt lat="59.159725" lon="18.123142">
        <ele>58</ele>
        <time>2019-09-29T16:48:43Z</time>
      </trkpt>
      <trkpt lat="59.159784" lon="18.123118">
        <ele>58</ele>
        <time>2019-09-29T16:48:45Z</time>
      </trkpt>
      <trkpt lat="59.15981" lon="18.123111">
        <ele>58</ele>
        <time>2019-09-29T16:48:46Z</time>
      </trkpt>
      <trkpt lat="59.159838" lon="18.123102">
        <ele>58</ele>
        <time>2019-09-29T16:48:47Z</time>
      </trkpt>
      <trkpt lat="59.159861" lon="18.123095">
        <ele>58</ele>
        <time>2019-09-29T16:48:48Z</time>
      </trkpt>
      <trkpt lat="59.15989" lon="18.12309">
        <ele>59</ele>
        <time>2019-09-29T16:48:50Z</time>
      </trkpt>
      <trkpt lat="59.159903" lon="18.123097">
        <ele>59</ele>
        <time>2019-09-29T16:48:56Z</time>
      </trkpt>
      <trkpt lat="59.159978" lon="18.123096">
        <ele>61</ele>
        <time>2019-09-29T16:49:41Z</time>
      </trkpt>
      <trkpt lat="59.159997" lon="18.123096">
        <ele>61</ele>
        <time>2019-09-29T16:49:42Z</time>
      </trkpt>
      <trkpt lat="59.160023" lon="18.123101">
        <ele>61</ele>
        <time>2019-09-29T16:49:43Z</time>
      </trkpt>
      <trkpt lat="59.160056" lon="18.123097">
        <ele>61</ele>
        <time>2019-09-29T16:49:44Z</time>
      </trkpt>
      <trkpt lat="59.160089" lon="18.1231">
        <ele>60</ele>
        <time>2019-09-29T16:49:45Z</time>
      </trkpt>
      <trkpt lat="59.160233" lon="18.123099">
        <ele>60</ele>
        <time>2019-09-29T16:49:48Z</time>
      </trkpt>
      <trkpt lat="59.160295" lon="18.123081">
        <ele>60</ele>
        <time>2019-09-29T16:49:49Z</time>
      </trkpt>
      <trkpt lat="59.160349" lon="18.123078">
        <ele>60</ele>
        <time>2019-09-29T16:49:50Z</time>
      </trkpt>
      <trkpt lat="59.160399" lon="18.123073">
        <ele>59</ele>
        <time>2019-09-29T16:49:51Z</time>
      </trkpt>
      <trkpt lat="59.160455" lon="18.123073">
        <ele>59</ele>
        <time>2019-09-29T16:49:52Z</time>
      </trkpt>
      <trkpt lat="59.16048" lon="18.12308">
        <ele>59</ele>
        <time>2019-09-29T16:49:53Z</time>
      </trkpt>
      <trkpt lat="59.160495" lon="18.123105">
        <ele>59</ele>
        <time>2019-09-29T16:49:54Z</time>
      </trkpt>
      <trkpt lat="59.160499" lon="18.123151">
        <ele>59</ele>
        <time>2019-09-29T16:49:55Z</time>
      </trkpt>
      <trkpt lat="59.1605" lon="18.123388">
        <ele>58</ele>
        <time>2019-09-29T16:49:59Z</time>
      </trkpt>
      <trkpt lat="59.160519" lon="18.123601">
        <ele>58</ele>
        <time>2019-09-29T16:50:02Z</time>
      </trkpt>
      <trkpt lat="59.160602" lon="18.123703">
        <ele>57</ele>
        <time>2019-09-29T16:50:07Z</time>
      </trkpt>
      <trkpt lat="59.160681" lon="18.123616">
        <ele>57</ele>
        <time>2019-09-29T16:50:10Z</time>
      </trkpt>
      <trkpt lat="59.160785" lon="18.12361">
        <ele>56</ele>
        <time>2019-09-29T16:50:16Z</time>
      </trkpt>
      <trkpt lat="59.160828" lon="18.12366">
        <ele>55</ele>
        <time>2019-09-29T16:50:19Z</time>
      </trkpt>
      <trkpt lat="59.160865" lon="18.123751">
        <ele>54</ele>
        <time>2019-09-29T16:50:22Z</time>
      </trkpt>
      <trkpt lat="59.160881" lon="18.123803">
        <ele>54</ele>
        <time>2019-09-29T16:50:23Z</time>
      </trkpt>
      <trkpt lat="59.160898" lon="18.123856">
        <ele>53</ele>
        <time>2019-09-29T16:50:24Z</time>
      </trkpt>
      <trkpt lat="59.160913" lon="18.123908">
        <ele>53</ele>
        <time>2019-09-29T16:50:25Z</time>
      </trkpt>
      <trkpt lat="59.160927" lon="18.123951">
        <ele>53</ele>
        <time>2019-09-29T16:50:26Z</time>
      </trkpt>
      <trkpt lat="59.160946" lon="18.123989">
        <ele>53</ele>
        <time>2019-09-29T16:50:27Z</time>
      </trkpt>
      <trkpt lat="59.160961" lon="18.124025">
        <ele>54</ele>
        <time>2019-09-29T16:50:28Z</time>
      </trkpt>
      <trkpt lat="59.161043" lon="18.124148">
        <ele>55</ele>
        <time>2019-09-29T16:50:34Z</time>
      </trkpt>
      <trkpt lat="59.161056" lon="18.124172">
        <ele>55</ele>
        <time>2019-09-29T16:50:35Z</time>
      </trkpt>
      <trkpt lat="59.16107" lon="18.124202">
        <ele>55</ele>
        <time>2019-09-29T16:50:36Z</time>
      </trkpt>
      <trkpt lat="59.161084" lon="18.124233">
        <ele>55</ele>
        <time>2019-09-29T16:50:37Z</time>
      </trkpt>
      <trkpt lat="59.161096" lon="18.124266">
        <ele>55</ele>
        <time>2019-09-29T16:50:38Z</time>
      </trkpt>
      <trkpt lat="59.161122" lon="18.124332">
        <ele>55</ele>
        <time>2019-09-29T16:50:40Z</time>
      </trkpt>
      <trkpt lat="59.161075" lon="18.124538">
        <ele>55</ele>
        <time>2019-09-29T16:50:46Z</time>
      </trkpt>
      <trkpt lat="59.161064" lon="18.124575">
        <ele>55</ele>
        <time>2019-09-29T16:50:47Z</time>
      </trkpt>
      <trkpt lat="59.160999" lon="18.124696">
        <ele>54</ele>
        <time>2019-09-29T16:50:51Z</time>
      </trkpt>
      <trkpt lat="59.160993" lon="18.124881">
        <ele>54</ele>
        <time>2019-09-29T16:50:58Z</time>
      </trkpt>
      <trkpt lat="59.161004" lon="18.125079">
        <ele>54</ele>
        <time>2019-09-29T16:51:03Z</time>
      </trkpt>
      <trkpt lat="59.161026" lon="18.125219">
        <ele>54</ele>
        <time>2019-09-29T16:51:07Z</time>
      </trkpt>
      <trkpt lat="59.16098" lon="18.125414">
        <ele>54</ele>
        <time>2019-09-29T16:51:11Z</time>
      </trkpt>
      <trkpt lat="59.160929" lon="18.125668">
        <ele>54</ele>
        <time>2019-09-29T16:51:14Z</time>
      </trkpt>
      <trkpt lat="59.160892" lon="18.125886">
        <ele>54</ele>
        <time>2019-09-29T16:51:17Z</time>
      </trkpt>
      <trkpt lat="59.160877" lon="18.126063">
        <ele>53</ele>
        <time>2019-09-29T16:51:21Z</time>
      </trkpt>
      <trkpt lat="59.160879" lon="18.126252">
        <ele>52</ele>
        <time>2019-09-29T16:51:26Z</time>
      </trkpt>
      <trkpt lat="59.160908" lon="18.12638">
        <ele>52</ele>
        <time>2019-09-29T16:51:30Z</time>
      </trkpt>
      <trkpt lat="59.160921" lon="18.126433">
        <ele>52</ele>
        <time>2019-09-29T16:51:32Z</time>
      </trkpt>
      <trkpt lat="59.16093" lon="18.126479">
        <ele>52</ele>
        <time>2019-09-29T16:51:34Z</time>
      </trkpt>
      <trkpt lat="59.160931" lon="18.126515">
        <ele>52</ele>
        <time>2019-09-29T16:51:35Z</time>
      </trkpt>
      <trkpt lat="59.160925" lon="18.126556">
        <ele>52</ele>
        <time>2019-09-29T16:51:36Z</time>
      </trkpt>
      <trkpt lat="59.160909" lon="18.126771">
        <ele>52</ele>
        <time>2019-09-29T16:51:40Z</time>
      </trkpt>
      <trkpt lat="59.160935" lon="18.127004">
        <ele>52</ele>
        <time>2019-09-29T16:51:44Z</time>
      </trkpt>
      <trkpt lat="59.160966" lon="18.127073">
        <ele>52</ele>
        <time>2019-09-29T16:51:45Z</time>
      </trkpt>
      <trkpt lat="59.160997" lon="18.127139">
        <ele>52</ele>
        <time>2019-09-29T16:51:46Z</time>
      </trkpt>
      <trkpt lat="59.161032" lon="18.127202">
        <ele>52</ele>
        <time>2019-09-29T16:51:47Z</time>
      </trkpt>
      <trkpt lat="59.161109" lon="18.127379">
        <ele>53</ele>
        <time>2019-09-29T16:51:50Z</time>
      </trkpt>
      <trkpt lat="59.161157" lon="18.127606">
        <ele>52</ele>
        <time>2019-09-29T16:51:53Z</time>
      </trkpt>
      <trkpt lat="59.161209" lon="18.127757">
        <ele>52</ele>
        <time>2019-09-29T16:51:55Z</time>
      </trkpt>
      <trkpt lat="59.161301" lon="18.127854">
        <ele>51</ele>
        <time>2019-09-29T16:51:58Z</time>
      </trkpt>
      <trkpt lat="59.161323" lon="18.1279">
        <ele>51</ele>
        <time>2019-09-29T16:51:59Z</time>
      </trkpt>
      <trkpt lat="59.161349" lon="18.127952">
        <ele>51</ele>
        <time>2019-09-29T16:52:00Z</time>
      </trkpt>
      <trkpt lat="59.161376" lon="18.127997">
        <ele>51</ele>
        <time>2019-09-29T16:52:01Z</time>
      </trkpt>
      <trkpt lat="59.161401" lon="18.12803">
        <ele>50</ele>
        <time>2019-09-29T16:52:02Z</time>
      </trkpt>
      <trkpt lat="59.161426" lon="18.128057">
        <ele>50</ele>
        <time>2019-09-29T16:52:03Z</time>
      </trkpt>
      <trkpt lat="59.161456" lon="18.128086">
        <ele>50</ele>
        <time>2019-09-29T16:52:04Z</time>
      </trkpt>
      <trkpt lat="59.161484" lon="18.128119">
        <ele>49</ele>
        <time>2019-09-29T16:52:05Z</time>
      </trkpt>
      <trkpt lat="59.16151" lon="18.128152">
        <ele>49</ele>
        <time>2019-09-29T16:52:06Z</time>
      </trkpt>
      <trkpt lat="59.161536" lon="18.128182">
        <ele>49</ele>
        <time>2019-09-29T16:52:07Z</time>
      </trkpt>
      <trkpt lat="59.161558" lon="18.128207">
        <ele>48</ele>
        <time>2019-09-29T16:52:08Z</time>
      </trkpt>
      <trkpt lat="59.161582" lon="18.128225">
        <ele>48</ele>
        <time>2019-09-29T16:52:09Z</time>
      </trkpt>
      <trkpt lat="59.161607" lon="18.128241">
        <ele>48</ele>
        <time>2019-09-29T16:52:10Z</time>
      </trkpt>
      <trkpt lat="59.161631" lon="18.128262">
        <ele>48</ele>
        <time>2019-09-29T16:52:11Z</time>
      </trkpt>
      <trkpt lat="59.161661" lon="18.12829">
        <ele>48</ele>
        <time>2019-09-29T16:52:12Z</time>
      </trkpt>
      <trkpt lat="59.161692" lon="18.128339">
        <ele>48</ele>
        <time>2019-09-29T16:52:13Z</time>
      </trkpt>
      <trkpt lat="59.161719" lon="18.128398">
        <ele>48</ele>
        <time>2019-09-29T16:52:14Z</time>
      </trkpt>
      <trkpt lat="59.161742" lon="18.128455">
        <ele>47</ele>
        <time>2019-09-29T16:52:15Z</time>
      </trkpt>
      <trkpt lat="59.161767" lon="18.128495">
        <ele>47</ele>
        <time>2019-09-29T16:52:16Z</time>
      </trkpt>
      <trkpt lat="59.161845" lon="18.128631">
        <ele>47</ele>
        <time>2019-09-29T16:52:19Z</time>
      </trkpt>
      <trkpt lat="59.16187" lon="18.128681">
        <ele>47</ele>
        <time>2019-09-29T16:52:20Z</time>
      </trkpt>
      <trkpt lat="59.161898" lon="18.128736">
        <ele>47</ele>
        <time>2019-09-29T16:52:21Z</time>
      </trkpt>
      <trkpt lat="59.161926" lon="18.128796">
        <ele>47</ele>
        <time>2019-09-29T16:52:22Z</time>
      </trkpt>
      <trkpt lat="59.161953" lon="18.128859">
        <ele>47</ele>
        <time>2019-09-29T16:52:23Z</time>
      </trkpt>
      <trkpt lat="59.16198" lon="18.128923">
        <ele>47</ele>
        <time>2019-09-29T16:52:24Z</time>
      </trkpt>
      <trkpt lat="59.162004" lon="18.12898">
        <ele>46</ele>
        <time>2019-09-29T16:52:25Z</time>
      </trkpt>
      <trkpt lat="59.162051" lon="18.129168">
        <ele>46</ele>
        <time>2019-09-29T16:52:28Z</time>
      </trkpt>
      <trkpt lat="59.162079" lon="18.129388">
        <ele>45</ele>
        <time>2019-09-29T16:52:31Z</time>
      </trkpt>
      <trkpt lat="59.16207" lon="18.129591">
        <ele>45</ele>
        <time>2019-09-29T16:52:34Z</time>
      </trkpt>
      <trkpt lat="59.162043" lon="18.129791">
        <ele>44</ele>
        <time>2019-09-29T16:52:37Z</time>
      </trkpt>
      <trkpt lat="59.162038" lon="18.129854">
        <ele>44</ele>
        <time>2019-09-29T16:52:38Z</time>
      </trkpt>
      <trkpt lat="59.162039" lon="18.129918">
        <ele>44</ele>
        <time>2019-09-29T16:52:39Z</time>
      </trkpt>
      <trkpt lat="59.162038" lon="18.129989">
        <ele>44</ele>
        <time>2019-09-29T16:52:40Z</time>
      </trkpt>
      <trkpt lat="59.162042" lon="18.130063">
        <ele>44</ele>
        <time>2019-09-29T16:52:41Z</time>
      </trkpt>
      <trkpt lat="59.162051" lon="18.130132">
        <ele>43</ele>
        <time>2019-09-29T16:52:42Z</time>
      </trkpt>
      <trkpt lat="59.162062" lon="18.130194">
        <ele>43</ele>
        <time>2019-09-29T16:52:43Z</time>
      </trkpt>
      <trkpt lat="59.162084" lon="18.130248">
        <ele>43</ele>
        <time>2019-09-29T16:52:44Z</time>
      </trkpt>
      <trkpt lat="59.16212" lon="18.130292">
        <ele>42</ele>
        <time>2019-09-29T16:52:45Z</time>
      </trkpt>
      <trkpt lat="59.162159" lon="18.130327">
        <ele>42</ele>
        <time>2019-09-29T16:52:46Z</time>
      </trkpt>
      <trkpt lat="59.1622" lon="18.130355">
        <ele>42</ele>
        <time>2019-09-29T16:52:47Z</time>
      </trkpt>
      <trkpt lat="59.16224" lon="18.130376">
        <ele>42</ele>
        <time>2019-09-29T16:52:48Z</time>
      </trkpt>
      <trkpt lat="59.162279" lon="18.130394">
        <ele>42</ele>
        <time>2019-09-29T16:52:49Z</time>
      </trkpt>
      <trkpt lat="59.162315" lon="18.130415">
        <ele>41</ele>
        <time>2019-09-29T16:52:50Z</time>
      </trkpt>
      <trkpt lat="59.162346" lon="18.130443">
        <ele>41</ele>
        <time>2019-09-29T16:52:51Z</time>
      </trkpt>
      <trkpt lat="59.162371" lon="18.130476">
        <ele>41</ele>
        <time>2019-09-29T16:52:52Z</time>
      </trkpt>
      <trkpt lat="59.162389" lon="18.130511">
        <ele>41</ele>
        <time>2019-09-29T16:52:53Z</time>
      </trkpt>
      <trkpt lat="59.162404" lon="18.130544">
        <ele>41</ele>
        <time>2019-09-29T16:52:54Z</time>
      </trkpt>
      <trkpt lat="59.16242" lon="18.1306">
        <ele>41</ele>
        <time>2019-09-29T16:52:56Z</time>
      </trkpt>
      <trkpt lat="59.16243" lon="18.130638">
        <ele>41</ele>
        <time>2019-09-29T16:52:57Z</time>
      </trkpt>
      <trkpt lat="59.162445" lon="18.130686">
        <ele>41</ele>
        <time>2019-09-29T16:52:58Z</time>
      </trkpt>
      <trkpt lat="59.162465" lon="18.130718">
        <ele>41</ele>
        <time>2019-09-29T16:52:59Z</time>
      </trkpt>
      <trkpt lat="59.162483" lon="18.130711">
        <ele>40</ele>
        <time>2019-09-29T16:53:00Z</time>
      </trkpt>
      <trkpt lat="59.162494" lon="18.130675">
        <ele>40</ele>
        <time>2019-09-29T16:53:01Z</time>
      </trkpt>
      <trkpt lat="59.162506" lon="18.130638">
        <ele>40</ele>
        <time>2019-09-29T16:53:02Z</time>
      </trkpt>
      <trkpt lat="59.16252" lon="18.130605">
        <ele>40</ele>
        <time>2019-09-29T16:53:03Z</time>
      </trkpt>
      <trkpt lat="59.162531" lon="18.130573">
        <ele>40</ele>
        <time>2019-09-29T16:53:04Z</time>
      </trkpt>
      <trkpt lat="59.162545" lon="18.130523">
        <ele>40</ele>
        <time>2019-09-29T16:53:06Z</time>
      </trkpt>
      <trkpt lat="59.162548" lon="18.130512">
        <ele>40</ele>
        <time>2019-09-29T16:53:12Z</time>
      </trkpt>
      <trkpt lat="59.162584" lon="18.130519">
        <ele>40</ele>
        <time>2019-09-29T16:53:25Z</time>
      </trkpt>
      <trkpt lat="59.162598" lon="18.130546">
        <ele>39</ele>
        <time>2019-09-29T16:53:28Z</time>
      </trkpt>
      <trkpt lat="59.162614" lon="18.130518">
        <ele>40</ele>
        <time>2019-09-29T16:53:31Z</time>
      </trkpt>
      <trkpt lat="59.162617" lon="18.130512">
        <ele>40</ele>
        <time>2019-09-29T16:53:36Z</time>
      </trkpt>
      <trkpt lat="59.162676" lon="18.130484">
        <ele>40</ele>
        <time>2019-09-29T16:53:47Z</time>
      </trkpt>
      <trkpt lat="59.162699" lon="18.130476">
        <ele>40</ele>
        <time>2019-09-29T16:53:48Z</time>
      </trkpt>
      <trkpt lat="59.162726" lon="18.13047">
        <ele>40</ele>
        <time>2019-09-29T16:53:49Z</time>
      </trkpt>
      <trkpt lat="59.162753" lon="18.130467">
        <ele>40</ele>
        <time>2019-09-29T16:53:50Z</time>
      </trkpt>
      <trkpt lat="59.162781" lon="18.130466">
        <ele>40</ele>
        <time>2019-09-29T16:53:51Z</time>
      </trkpt>
      <trkpt lat="59.162809" lon="18.130464">
        <ele>40</ele>
        <time>2019-09-29T16:53:52Z</time>
      </trkpt>
      <trkpt lat="59.162836" lon="18.130462">
        <ele>40</ele>
        <time>2019-09-29T16:53:53Z</time>
      </trkpt>
      <trkpt lat="59.162863" lon="18.130463">
        <ele>40</ele>
        <time>2019-09-29T16:53:54Z</time>
      </trkpt>
      <trkpt lat="59.162893" lon="18.130464">
        <ele>39</ele>
        <time>2019-09-29T16:53:55Z</time>
      </trkpt>
      <trkpt lat="59.162924" lon="18.130465">
        <ele>39</ele>
        <time>2019-09-29T16:53:56Z</time>
      </trkpt>
      <trkpt lat="59.162956" lon="18.130468">
        <ele>39</ele>
        <time>2019-09-29T16:53:57Z</time>
      </trkpt>
      <trkpt lat="59.162988" lon="18.130471">
        <ele>39</ele>
        <time>2019-09-29T16:53:58Z</time>
      </trkpt>
      <trkpt lat="59.16302" lon="18.130475">
        <ele>39</ele>
        <time>2019-09-29T16:53:59Z</time>
      </trkpt>
      <trkpt lat="59.163052" lon="18.130477">
        <ele>39</ele>
        <time>2019-09-29T16:54:00Z</time>
      </trkpt>
      <trkpt lat="59.163086" lon="18.130475">
        <ele>39</ele>
        <time>2019-09-29T16:54:01Z</time>
      </trkpt>
      <trkpt lat="59.163122" lon="18.130472">
        <ele>39</ele>
        <time>2019-09-29T16:54:02Z</time>
      </trkpt>
      <trkpt lat="59.163159" lon="18.130465">
        <ele>39</ele>
        <time>2019-09-29T16:54:03Z</time>
      </trkpt>
      <trkpt lat="59.163193" lon="18.130451">
        <ele>39</ele>
        <time>2019-09-29T16:54:04Z</time>
      </trkpt>
      <trkpt lat="59.163227" lon="18.130432">
        <ele>39</ele>
        <time>2019-09-29T16:54:05Z</time>
      </trkpt>
      <trkpt lat="59.16326" lon="18.130411">
        <ele>39</ele>
        <time>2019-09-29T16:54:06Z</time>
      </trkpt>
      <trkpt lat="59.163289" lon="18.130389">
        <ele>39</ele>
        <time>2019-09-29T16:54:07Z</time>
      </trkpt>
      <trkpt lat="59.163316" lon="18.130366">
        <ele>39</ele>
        <time>2019-09-29T16:54:08Z</time>
      </trkpt>
      <trkpt lat="59.163343" lon="18.130341">
        <ele>39</ele>
        <time>2019-09-29T16:54:09Z</time>
      </trkpt>
      <trkpt lat="59.16337" lon="18.130323">
        <ele>39</ele>
        <time>2019-09-29T16:54:10Z</time>
      </trkpt>
      <trkpt lat="59.163396" lon="18.130312">
        <ele>39</ele>
        <time>2019-09-29T16:54:11Z</time>
      </trkpt>
      <trkpt lat="59.163423" lon="18.130303">
        <ele>39</ele>
        <time>2019-09-29T16:54:12Z</time>
      </trkpt>
      <trkpt lat="59.16345" lon="18.130292">
        <ele>39</ele>
        <time>2019-09-29T16:54:13Z</time>
      </trkpt>
      <trkpt lat="59.163478" lon="18.130276">
        <ele>39</ele>
        <time>2019-09-29T16:54:14Z</time>
      </trkpt>
      <trkpt lat="59.163506" lon="18.130256">
        <ele>39</ele>
        <time>2019-09-29T16:54:15Z</time>
      </trkpt>
      <trkpt lat="59.163532" lon="18.130237">
        <ele>39</ele>
        <time>2019-09-29T16:54:16Z</time>
      </trkpt>
      <trkpt lat="59.163558" lon="18.13022">
        <ele>39</ele>
        <time>2019-09-29T16:54:17Z</time>
      </trkpt>
      <trkpt lat="59.163582" lon="18.130201">
        <ele>39</ele>
        <time>2019-09-29T16:54:18Z</time>
      </trkpt>
      <trkpt lat="59.163607" lon="18.130181">
        <ele>39</ele>
        <time>2019-09-29T16:54:19Z</time>
      </trkpt>
      <trkpt lat="59.163631" lon="18.130156">
        <ele>39</ele>
        <time>2019-09-29T16:54:20Z</time>
      </trkpt>
      <trkpt lat="59.163654" lon="18.130132">
        <ele>39</ele>
        <time>2019-09-29T16:54:21Z</time>
      </trkpt>
      <trkpt lat="59.163676" lon="18.130108">
        <ele>39</ele>
        <time>2019-09-29T16:54:22Z</time>
      </trkpt>
      <trkpt lat="59.163697" lon="18.130081">
        <ele>39</ele>
        <time>2019-09-29T16:54:23Z</time>
      </trkpt>
      <trkpt lat="59.163721" lon="18.130053">
        <ele>39</ele>
        <time>2019-09-29T16:54:24Z</time>
      </trkpt>
      <trkpt lat="59.163745" lon="18.130019">
        <ele>39</ele>
        <time>2019-09-29T16:54:25Z</time>
      </trkpt>
      <trkpt lat="59.163768" lon="18.129991">
        <ele>39</ele>
        <time>2019-09-29T16:54:26Z</time>
      </trkpt>
      <trkpt lat="59.163792" lon="18.129967">
        <ele>39</ele>
        <time>2019-09-29T16:54:27Z</time>
      </trkpt>
      <trkpt lat="59.163815" lon="18.12994">
        <ele>39</ele>
        <time>2019-09-29T16:54:28Z</time>
      </trkpt>
      <trkpt lat="59.163841" lon="18.129914">
        <ele>39</ele>
        <time>2019-09-29T16:54:29Z</time>
      </trkpt>
      <trkpt lat="59.163871" lon="18.12989">
        <ele>39</ele>
        <time>2019-09-29T16:54:30Z</time>
      </trkpt>
      <trkpt lat="59.163892" lon="18.129874">
        <ele>39</ele>
        <time>2019-09-29T16:54:31Z</time>
      </trkpt>
      <trkpt lat="59.163913" lon="18.12986">
        <ele>39</ele>
        <time>2019-09-29T16:54:32Z</time>
      </trkpt>
      <trkpt lat="59.163952" lon="18.12983">
        <ele>39</ele>
        <time>2019-09-29T16:54:34Z</time>
      </trkpt>
      <trkpt lat="59.163985" lon="18.129802">
        <ele>39</ele>
        <time>2019-09-29T16:54:36Z</time>
      </trkpt>
      <trkpt lat="59.164019" lon="18.129765">
        <ele>39</ele>
        <time>2019-09-29T16:54:38Z</time>
      </trkpt>
      <trkpt lat="59.16404" lon="18.129748">
        <ele>39</ele>
        <time>2019-09-29T16:54:39Z</time>
      </trkpt>
      <trkpt lat="59.164059" lon="18.12974">
        <ele>39</ele>
        <time>2019-09-29T16:54:40Z</time>
      </trkpt>
      <trkpt lat="59.164085" lon="18.129727">
        <ele>39</ele>
        <time>2019-09-29T16:54:42Z</time>
      </trkpt>
      <trkpt lat="59.16411" lon="18.129721">
        <ele>39</ele>
        <time>2019-09-29T16:54:46Z</time>
      </trkpt>
      <trkpt lat="59.164124" lon="18.129687">
        <ele>39</ele>
        <time>2019-09-29T16:54:49Z</time>
      </trkpt>
      <trkpt lat="59.164137" lon="18.129654">
        <ele>39</ele>
        <time>2019-09-29T16:54:52Z</time>
      </trkpt>
      <trkpt lat="59.164156" lon="18.129613">
        <ele>39</ele>
        <time>2019-09-29T16:54:55Z</time>
      </trkpt>
      <trkpt lat="59.164162" lon="18.129599">
        <ele>40</ele>
        <time>2019-09-29T16:55:02Z</time>
      </trkpt>
      <trkpt lat="59.164217" lon="18.129629">
        <ele>39</ele>
        <time>2019-09-29T16:56:22Z</time>
      </trkpt>
      <trkpt lat="59.164242" lon="18.129648">
        <ele>39</ele>
        <time>2019-09-29T16:56:24Z</time>
      </trkpt>
      <trkpt lat="59.164264" lon="18.129658">
        <ele>39</ele>
        <time>2019-09-29T16:56:24Z</time>
      </trkpt>
      <trkpt lat="59.164287" lon="18.129654">
        <ele>39</ele>
        <time>2019-09-29T16:56:25Z</time>
      </trkpt>
      <trkpt lat="59.164307" lon="18.129634">
        <ele>39</ele>
        <time>2019-09-29T16:56:26Z</time>
      </trkpt>
      <trkpt lat="59.16432" lon="18.1296">
        <ele>39</ele>
        <time>2019-09-29T16:56:27Z</time>
      </trkpt>
      <trkpt lat="59.164303" lon="18.129543">
        <ele>39</ele>
        <time>2019-09-29T16:56:29Z</time>
      </trkpt>
      <trkpt lat="59.16427" lon="18.129514">
        <ele>39</ele>
        <time>2019-09-29T16:56:31Z</time>
      </trkpt>
      <trkpt lat="59.164249" lon="18.129497">
        <ele>39</ele>
        <time>2019-09-29T16:56:32Z</time>
      </trkpt>
      <trkpt lat="59.164217" lon="18.129492">
        <ele>39</ele>
        <time>2019-09-29T16:56:33Z</time>
      </trkpt>
      <trkpt lat="59.164179" lon="18.129485">
        <ele>39</ele>
        <time>2019-09-29T16:56:34Z</time>
      </trkpt>
      <trkpt lat="59.164141" lon="18.129476">
        <ele>39</ele>
        <time>2019-09-29T16:56:35Z</time>
      </trkpt>
      <trkpt lat="59.164098" lon="18.12947">
        <ele>39</ele>
        <time>2019-09-29T16:56:36Z</time>
      </trkpt>
      <trkpt lat="59.164052" lon="18.129484">
        <ele>39</ele>
        <time>2019-09-29T16:56:37Z</time>
      </trkpt>
      <trkpt lat="59.16402" lon="18.129535">
        <ele>39</ele>
        <time>2019-09-29T16:56:38Z</time>
      </trkpt>
      <trkpt lat="59.16401" lon="18.129609">
        <ele>39</ele>
        <time>2019-09-29T16:56:39Z</time>
      </trkpt>
      <trkpt lat="59.164023" lon="18.129659">
        <ele>39</ele>
        <time>2019-09-29T16:56:40Z</time>
      </trkpt>
      <trkpt lat="59.164046" lon="18.129677">
        <ele>39</ele>
        <time>2019-09-29T16:56:41Z</time>
      </trkpt>
      <trkpt lat="59.164069" lon="18.129684">
        <ele>39</ele>
        <time>2019-09-29T16:56:42Z</time>
      </trkpt>
      <trkpt lat="59.164094" lon="18.12969">
        <ele>39</ele>
        <time>2019-09-29T16:56:43Z</time>
      </trkpt>
      <trkpt lat="59.164119" lon="18.1297">
        <ele>39</ele>
        <time>2019-09-29T16:56:44Z</time>
      </trkpt>
      <trkpt lat="59.164143" lon="18.129712">
        <ele>39</ele>
        <time>2019-09-29T16:56:45Z</time>
      </trkpt>
      <trkpt lat="59.164166" lon="18.129716">
        <ele>39</ele>
        <time>2019-09-29T16:56:46Z</time>
      </trkpt>
      <trkpt lat="59.164188" lon="18.12971">
        <ele>39</ele>
        <time>2019-09-29T16:56:47Z</time>
      </trkpt>
      <trkpt lat="59.164209" lon="18.1297">
        <ele>39</ele>
        <time>2019-09-29T16:56:48Z</time>
      </trkpt>
      <trkpt lat="59.164227" lon="18.129684">
        <ele>39</ele>
        <time>2019-09-29T16:56:49Z</time>
      </trkpt>
      <trkpt lat="59.164254" lon="18.129658">
        <ele>39</ele>
        <time>2019-09-29T16:56:51Z</time>
      </trkpt>
      <trkpt lat="59.164271" lon="18.129677">
        <ele>39</ele>
        <time>2019-09-29T16:56:53Z</time>
      </trkpt>
      <trkpt lat="59.164258" lon="18.129717">
        <ele>39</ele>
        <time>2019-09-29T16:56:55Z</time>
      </trkpt>
      <trkpt lat="59.164239" lon="18.129696">
        <ele>39</ele>
        <time>2019-09-29T16:56:57Z</time>
      </trkpt>
      <trkpt lat="59.164231" lon="18.129657">
        <ele>39</ele>
        <time>2019-09-29T16:57:00Z</time>
      </trkpt>
      <trkpt lat="59.164232" lon="18.129657">
        <ele>39</ele>
        <time>2019-09-29T16:57:04Z</time>
      </trkpt>
      <trkpt lat="59.164219" lon="18.12969">
        <ele>40</ele>
        <time>2019-09-29T16:57:52Z</time>
      </trkpt>
      <trkpt lat="59.164185" lon="18.129725">
        <ele>40</ele>
        <time>2019-09-29T16:57:54Z</time>
      </trkpt>
      <trkpt lat="59.164163" lon="18.129757">
        <ele>40</ele>
        <time>2019-09-29T16:57:55Z</time>
      </trkpt>
      <trkpt lat="59.164139" lon="18.129789">
        <ele>40</ele>
        <time>2019-09-29T16:57:56Z</time>
      </trkpt>
      <trkpt lat="59.164115" lon="18.129817">
        <ele>40</ele>
        <time>2019-09-29T16:57:57Z</time>
      </trkpt>
      <trkpt lat="59.164094" lon="18.129847">
        <ele>40</ele>
        <time>2019-09-29T16:57:58Z</time>
      </trkpt>
      <trkpt lat="59.164074" lon="18.129883">
        <ele>40</ele>
        <time>2019-09-29T16:57:59Z</time>
      </trkpt>
      <trkpt lat="59.164053" lon="18.129928">
        <ele>40</ele>
        <time>2019-09-29T16:58:00Z</time>
      </trkpt>
      <trkpt lat="59.164028" lon="18.129979">
        <ele>40</ele>
        <time>2019-09-29T16:58:01Z</time>
      </trkpt>
      <trkpt lat="59.164002" lon="18.130033">
        <ele>40</ele>
        <time>2019-09-29T16:58:02Z</time>
      </trkpt>
      <trkpt lat="59.163975" lon="18.130086">
        <ele>40</ele>
        <time>2019-09-29T16:58:03Z</time>
      </trkpt>
      <trkpt lat="59.163947" lon="18.130144">
        <ele>40</ele>
        <time>2019-09-29T16:58:04Z</time>
      </trkpt>
      <trkpt lat="59.163921" lon="18.130196">
        <ele>40</ele>
        <time>2019-09-29T16:58:05Z</time>
      </trkpt>
      <trkpt lat="59.163893" lon="18.130231">
        <ele>40</ele>
        <time>2019-09-29T16:58:06Z</time>
      </trkpt>
      <trkpt lat="59.16386" lon="18.130251">
        <ele>40</ele>
        <time>2019-09-29T16:58:07Z</time>
      </trkpt>
      <trkpt lat="59.163825" lon="18.130269">
        <ele>40</ele>
        <time>2019-09-29T16:58:08Z</time>
      </trkpt>
      <trkpt lat="59.16379" lon="18.130288">
        <ele>40</ele>
        <time>2019-09-29T16:58:09Z</time>
      </trkpt>
      <trkpt lat="59.163755" lon="18.130306">
        <ele>40</ele>
        <time>2019-09-29T16:58:10Z</time>
      </trkpt>
      <trkpt lat="59.163721" lon="18.130324">
        <ele>40</ele>
        <time>2019-09-29T16:58:11Z</time>
      </trkpt>
      <trkpt lat="59.163686" lon="18.13034">
        <ele>40</ele>
        <time>2019-09-29T16:58:12Z</time>
      </trkpt>
      <trkpt lat="59.163651" lon="18.130354">
        <ele>40</ele>
        <time>2019-09-29T16:58:13Z</time>
      </trkpt>
      <trkpt lat="59.163614" lon="18.130369">
        <ele>40</ele>
        <time>2019-09-29T16:58:14Z</time>
      </trkpt>
      <trkpt lat="59.163577" lon="18.130387">
        <ele>40</ele>
        <time>2019-09-29T16:58:15Z</time>
      </trkpt>
      <trkpt lat="59.163539" lon="18.130403">
        <ele>39</ele>
        <time>2019-09-29T16:58:16Z</time>
      </trkpt>
      <trkpt lat="59.163502" lon="18.130417">
        <ele>39</ele>
        <time>2019-09-29T16:58:17Z</time>
      </trkpt>
      <trkpt lat="59.163463" lon="18.130437">
        <ele>39</ele>
        <time>2019-09-29T16:58:18Z</time>
      </trkpt>
      <trkpt lat="59.163421" lon="18.130451">
        <ele>39</ele>
        <time>2019-09-29T16:58:19Z</time>
      </trkpt>
      <trkpt lat="59.163376" lon="18.130462">
        <ele>39</ele>
        <time>2019-09-29T16:58:20Z</time>
      </trkpt>
      <trkpt lat="59.163333" lon="18.130471">
        <ele>39</ele>
        <time>2019-09-29T16:58:21Z</time>
      </trkpt>
      <trkpt lat="59.16329" lon="18.130478">
        <ele>39</ele>
        <time>2019-09-29T16:58:22Z</time>
      </trkpt>
      <trkpt lat="59.16325" lon="18.130482">
        <ele>39</ele>
        <time>2019-09-29T16:58:23Z</time>
      </trkpt>
      <trkpt lat="59.163212" lon="18.130484">
        <ele>39</ele>
        <time>2019-09-29T16:58:24Z</time>
      </trkpt>
      <trkpt lat="59.163175" lon="18.130484">
        <ele>39</ele>
        <time>2019-09-29T16:58:25Z</time>
      </trkpt>
      <trkpt lat="59.163138" lon="18.130484">
        <ele>39</ele>
        <time>2019-09-29T16:58:26Z</time>
      </trkpt>
      <trkpt lat="59.163106" lon="18.130483">
        <ele>39</ele>
        <time>2019-09-29T16:58:27Z</time>
      </trkpt>
      <trkpt lat="59.163077" lon="18.130482">
        <ele>38</ele>
        <time>2019-09-29T16:58:28Z</time>
      </trkpt>
      <trkpt lat="59.163049" lon="18.130483">
        <ele>38</ele>
        <time>2019-09-29T16:58:29Z</time>
      </trkpt>
      <trkpt lat="59.163019" lon="18.130484">
        <ele>38</ele>
        <time>2019-09-29T16:58:30Z</time>
      </trkpt>
      <trkpt lat="59.162988" lon="18.130486">
        <ele>38</ele>
        <time>2019-09-29T16:58:31Z</time>
      </trkpt>
      <trkpt lat="59.162957" lon="18.130487">
        <ele>38</ele>
        <time>2019-09-29T16:58:32Z</time>
      </trkpt>
      <trkpt lat="59.162927" lon="18.130485">
        <ele>38</ele>
        <time>2019-09-29T16:58:33Z</time>
      </trkpt>
      <trkpt lat="59.162895" lon="18.130484">
        <ele>38</ele>
        <time>2019-09-29T16:58:34Z</time>
      </trkpt>
      <trkpt lat="59.162864" lon="18.130484">
        <ele>38</ele>
        <time>2019-09-29T16:58:35Z</time>
      </trkpt>
      <trkpt lat="59.162832" lon="18.130486">
        <ele>38</ele>
        <time>2019-09-29T16:58:36Z</time>
      </trkpt>
      <trkpt lat="59.1628" lon="18.130487">
        <ele>38</ele>
        <time>2019-09-29T16:58:37Z</time>
      </trkpt>
      <trkpt lat="59.162769" lon="18.130486">
        <ele>37</ele>
        <time>2019-09-29T16:58:38Z</time>
      </trkpt>
      <trkpt lat="59.162739" lon="18.130485">
        <ele>37</ele>
        <time>2019-09-29T16:58:39Z</time>
      </trkpt>
      <trkpt lat="59.16271" lon="18.130485">
        <ele>37</ele>
        <time>2019-09-29T16:58:40Z</time>
      </trkpt>
      <trkpt lat="59.162681" lon="18.130483">
        <ele>37</ele>
        <time>2019-09-29T16:58:41Z</time>
      </trkpt>
      <trkpt lat="59.162652" lon="18.13048">
        <ele>37</ele>
        <time>2019-09-29T16:58:42Z</time>
      </trkpt>
      <trkpt lat="59.162624" lon="18.130483">
        <ele>37</ele>
        <time>2019-09-29T16:58:43Z</time>
      </trkpt>
      <trkpt lat="59.162597" lon="18.130499">
        <ele>37</ele>
        <time>2019-09-29T16:58:44Z</time>
      </trkpt>
      <trkpt lat="59.162569" lon="18.130521">
        <ele>37</ele>
        <time>2019-09-29T16:58:45Z</time>
      </trkpt>
      <trkpt lat="59.162544" lon="18.130545">
        <ele>37</ele>
        <time>2019-09-29T16:58:46Z</time>
      </trkpt>
      <trkpt lat="59.162524" lon="18.130571">
        <ele>37</ele>
        <time>2019-09-29T16:58:47Z</time>
      </trkpt>
      <trkpt lat="59.162505" lon="18.130597">
        <ele>37</ele>
        <time>2019-09-29T16:58:48Z</time>
      </trkpt>
      <trkpt lat="59.162488" lon="18.13062">
        <ele>37</ele>
        <time>2019-09-29T16:58:49Z</time>
      </trkpt>
      <trkpt lat="59.162472" lon="18.13064">
        <ele>37</ele>
        <time>2019-09-29T16:58:50Z</time>
      </trkpt>
      <trkpt lat="59.162454" lon="18.130663">
        <ele>37</ele>
        <time>2019-09-29T16:58:52Z</time>
      </trkpt>
      <trkpt lat="59.162465" lon="18.130681">
        <ele>37</ele>
        <time>2019-09-29T16:58:59Z</time>
      </trkpt>
      <trkpt lat="59.162427" lon="18.130621">
        <ele>36</ele>
        <time>2019-09-29T17:05:02Z</time>
      </trkpt>
      <trkpt lat="59.162408" lon="18.13063">
        <ele>37</ele>
        <time>2019-09-29T17:05:04Z</time>
      </trkpt>
      <trkpt lat="59.162387" lon="18.130647">
        <ele>37</ele>
        <time>2019-09-29T17:05:04Z</time>
      </trkpt>
      <trkpt lat="59.162356" lon="18.130666">
        <ele>37</ele>
        <time>2019-09-29T17:05:05Z</time>
      </trkpt>
      <trkpt lat="59.162318" lon="18.130682">
        <ele>37</ele>
        <time>2019-09-29T17:05:06Z</time>
      </trkpt>
      <trkpt lat="59.162274" lon="18.130695">
        <ele>37</ele>
        <time>2019-09-29T17:05:07Z</time>
      </trkpt>
      <trkpt lat="59.16223" lon="18.130706">
        <ele>37</ele>
        <time>2019-09-29T17:05:08Z</time>
      </trkpt>
      <trkpt lat="59.162184" lon="18.130717">
        <ele>38</ele>
        <time>2019-09-29T17:05:09Z</time>
      </trkpt>
      <trkpt lat="59.162137" lon="18.130727">
        <ele>38</ele>
        <time>2019-09-29T17:05:10Z</time>
      </trkpt>
      <trkpt lat="59.162092" lon="18.130741">
        <ele>38</ele>
        <time>2019-09-29T17:05:11Z</time>
      </trkpt>
      <trkpt lat="59.162051" lon="18.130759">
        <ele>38</ele>
        <time>2019-09-29T17:05:12Z</time>
      </trkpt>
      <trkpt lat="59.162014" lon="18.130777">
        <ele>38</ele>
        <time>2019-09-29T17:05:13Z</time>
      </trkpt>
      <trkpt lat="59.161978" lon="18.130792">
        <ele>38</ele>
        <time>2019-09-29T17:05:14Z</time>
      </trkpt>
      <trkpt lat="59.161945" lon="18.130804">
        <ele>38</ele>
        <time>2019-09-29T17:05:15Z</time>
      </trkpt>
      <trkpt lat="59.161915" lon="18.130815">
        <ele>39</ele>
        <time>2019-09-29T17:05:16Z</time>
      </trkpt>
      <trkpt lat="59.161885" lon="18.130825">
        <ele>39</ele>
        <time>2019-09-29T17:05:17Z</time>
      </trkpt>
      <trkpt lat="59.161855" lon="18.130835">
        <ele>39</ele>
        <time>2019-09-29T17:05:18Z</time>
      </trkpt>
      <trkpt lat="59.16183" lon="18.130849">
        <ele>39</ele>
        <time>2019-09-29T17:05:19Z</time>
      </trkpt>
      <trkpt lat="59.161811" lon="18.130869">
        <ele>39</ele>
        <time>2019-09-29T17:05:20Z</time>
      </trkpt>
      <trkpt lat="59.161794" lon="18.130908">
        <ele>40</ele>
        <time>2019-09-29T17:05:22Z</time>
      </trkpt>
      <trkpt lat="59.161808" lon="18.130953">
        <ele>40</ele>
        <time>2019-09-29T17:05:25Z</time>
      </trkpt>
      <trkpt lat="59.161826" lon="18.130962">
        <ele>41</ele>
        <time>2019-09-29T17:05:27Z</time>
      </trkpt>
      <trkpt lat="59.161848" lon="18.130968">
        <ele>41</ele>
        <time>2019-09-29T17:05:29Z</time>
      </trkpt>
      <trkpt lat="59.161869" lon="18.130921">
        <ele>41</ele>
        <time>2019-09-29T17:05:31Z</time>
      </trkpt>
      <trkpt lat="59.161875" lon="18.130852">
        <ele>41</ele>
        <time>2019-09-29T17:05:33Z</time>
      </trkpt>
      <trkpt lat="59.161888" lon="18.13079">
        <ele>41</ele>
        <time>2019-09-29T17:05:35Z</time>
      </trkpt>
      <trkpt lat="59.161926" lon="18.130749">
        <ele>41</ele>
        <time>2019-09-29T17:05:37Z</time>
      </trkpt>
      <trkpt lat="59.161955" lon="18.130735">
        <ele>41</ele>
        <time>2019-09-29T17:05:38Z</time>
      </trkpt>
      <trkpt lat="59.161982" lon="18.130725">
        <ele>41</ele>
        <time>2019-09-29T17:05:39Z</time>
      </trkpt>
      <trkpt lat="59.162005" lon="18.130703">
        <ele>41</ele>
        <time>2019-09-29T17:05:40Z</time>
      </trkpt>
      <trkpt lat="59.162023" lon="18.130665">
        <ele>41</ele>
        <time>2019-09-29T17:05:41Z</time>
      </trkpt>
      <trkpt lat="59.162023" lon="18.130627">
        <ele>41</ele>
        <time>2019-09-29T17:05:42Z</time>
      </trkpt>
      <trkpt lat="59.162012" lon="18.130592">
        <ele>41</ele>
        <time>2019-09-29T17:05:43Z</time>
      </trkpt>
      <trkpt lat="59.162" lon="18.130564">
        <ele>41</ele>
        <time>2019-09-29T17:05:44Z</time>
      </trkpt>
      <trkpt lat="59.161983" lon="18.130541">
        <ele>40</ele>
        <time>2019-09-29T17:05:45Z</time>
      </trkpt>
      <trkpt lat="59.161959" lon="18.130529">
        <ele>40</ele>
        <time>2019-09-29T17:05:46Z</time>
      </trkpt>
      <trkpt lat="59.161936" lon="18.13053">
        <ele>40</ele>
        <time>2019-09-29T17:05:47Z</time>
      </trkpt>
      <trkpt lat="59.161914" lon="18.130538">
        <ele>40</ele>
        <time>2019-09-29T17:05:48Z</time>
      </trkpt>
      <trkpt lat="59.161895" lon="18.130549">
        <ele>40</ele>
        <time>2019-09-29T17:05:49Z</time>
      </trkpt>
      <trkpt lat="59.161873" lon="18.130557">
        <ele>40</ele>
        <time>2019-09-29T17:05:50Z</time>
      </trkpt>
      <trkpt lat="59.161847" lon="18.130565">
        <ele>40</ele>
        <time>2019-09-29T17:05:51Z</time>
      </trkpt>
      <trkpt lat="59.161824" lon="18.130583">
        <ele>40</ele>
        <time>2019-09-29T17:05:52Z</time>
      </trkpt>
      <trkpt lat="59.161798" lon="18.1306">
        <ele>40</ele>
        <time>2019-09-29T17:05:53Z</time>
      </trkpt>
      <trkpt lat="59.161773" lon="18.130607">
        <ele>40</ele>
        <time>2019-09-29T17:05:54Z</time>
      </trkpt>
      <trkpt lat="59.161755" lon="18.130644">
        <ele>40</ele>
        <time>2019-09-29T17:05:56Z</time>
      </trkpt>
      <trkpt lat="59.16178" lon="18.130657">
        <ele>40</ele>
        <time>2019-09-29T17:05:58Z</time>
      </trkpt>
      <trkpt lat="59.161796" lon="18.13063">
        <ele>40</ele>
        <time>2019-09-29T17:05:59Z</time>
      </trkpt>
      <trkpt lat="59.161698" lon="18.130751">
        <ele>41</ele>
        <time>2019-09-29T17:06:09Z</time>
      </trkpt>
      <trkpt lat="59.161622" lon="18.130902">
        <ele>41</ele>
        <time>2019-09-29T17:06:13Z</time>
      </trkpt>
      <trkpt lat="59.161601" lon="18.131058">
        <ele>42</ele>
        <time>2019-09-29T17:06:19Z</time>
      </trkpt>
      <trkpt lat="59.161608" lon="18.13106">
        <ele>43</ele>
        <time>2019-09-29T17:06:25Z</time>
      </trkpt>
      <trkpt lat="59.161643" lon="18.131016">
        <ele>0</ele>
        <time>2019-09-29T17:06:46Z</time>
      </trkpt>
      <trkpt lat="59.161649" lon="18.130973">
        <ele>43</ele>
        <time>2019-09-29T17:06:47Z</time>
      </trkpt>
      <trkpt lat="59.161665" lon="18.130914">
        <ele>43</ele>
        <time>2019-09-29T17:06:48Z</time>
      </trkpt>
      <trkpt lat="59.161677" lon="18.130851">
        <ele>43</ele>
        <time>2019-09-29T17:06:49Z</time>
      </trkpt>
      <trkpt lat="59.161695" lon="18.130785">
        <ele>43</ele>
        <time>2019-09-29T17:06:50Z</time>
      </trkpt>
      <trkpt lat="59.161715" lon="18.130719">
        <ele>43</ele>
        <time>2019-09-29T17:06:51Z</time>
      </trkpt>
      <trkpt lat="59.161741" lon="18.130655">
        <ele>43</ele>
        <time>2019-09-29T17:06:52Z</time>
      </trkpt>
      <trkpt lat="59.161778" lon="18.130597">
        <ele>43</ele>
        <time>2019-09-29T17:06:53Z</time>
      </trkpt>
      <trkpt lat="59.161815" lon="18.130544">
        <ele>43</ele>
        <time>2019-09-29T17:06:54Z</time>
      </trkpt>
      <trkpt lat="59.161859" lon="18.130481">
        <ele>43</ele>
        <time>2019-09-29T17:06:55Z</time>
      </trkpt>
      <trkpt lat="59.161959" lon="18.130359">
        <ele>42</ele>
        <time>2019-09-29T17:06:57Z</time>
      </trkpt>
      <trkpt lat="59.162019" lon="18.130322">
        <ele>42</ele>
        <time>2019-09-29T17:06:58Z</time>
      </trkpt>
      <trkpt lat="59.162075" lon="18.130303">
        <ele>42</ele>
        <time>2019-09-29T17:06:59Z</time>
      </trkpt>
      <trkpt lat="59.16213" lon="18.130303">
        <ele>42</ele>
        <time>2019-09-29T17:07:00Z</time>
      </trkpt>
      <trkpt lat="59.162234" lon="18.130343">
        <ele>41</ele>
        <time>2019-09-29T17:07:02Z</time>
      </trkpt>
      <trkpt lat="59.162283" lon="18.130378">
        <ele>41</ele>
        <time>2019-09-29T17:07:03Z</time>
      </trkpt>
      <trkpt lat="59.162328" lon="18.130427">
        <ele>40</ele>
        <time>2019-09-29T17:07:04Z</time>
      </trkpt>
      <trkpt lat="59.162366" lon="18.13048">
        <ele>40</ele>
        <time>2019-09-29T17:07:05Z</time>
      </trkpt>
      <trkpt lat="59.162394" lon="18.130522">
        <ele>41</ele>
        <time>2019-09-29T17:07:06Z</time>
      </trkpt>
      <trkpt lat="59.162418" lon="18.130546">
        <ele>40</ele>
        <time>2019-09-29T17:07:07Z</time>
      </trkpt>
      <trkpt lat="59.162438" lon="18.13056">
        <ele>40</ele>
        <time>2019-09-29T17:07:08Z</time>
      </trkpt>
      <trkpt lat="59.162456" lon="18.13057">
        <ele>40</ele>
        <time>2019-09-29T17:07:09Z</time>
      </trkpt>
      <trkpt lat="59.162464" lon="18.130574">
        <ele>40</ele>
        <time>2019-09-29T17:07:15Z</time>
      </trkpt>
      <trkpt lat="59.162508" lon="18.130635">
        <ele>37</ele>
        <time>2019-09-29T17:17:06Z</time>
      </trkpt>
      <trkpt lat="59.16254" lon="18.13067">
        <ele>37</ele>
        <time>2019-09-29T17:17:07Z</time>
      </trkpt>
      <trkpt lat="59.162563" lon="18.130696">
        <ele>37</ele>
        <time>2019-09-29T17:17:08Z</time>
      </trkpt>
      <trkpt lat="59.162584" lon="18.130708">
        <ele>37</ele>
        <time>2019-09-29T17:17:09Z</time>
      </trkpt>
      <trkpt lat="59.162603" lon="18.130717">
        <ele>37</ele>
        <time>2019-09-29T17:17:10Z</time>
      </trkpt>
      <trkpt lat="59.162635" lon="18.130744">
        <ele>37</ele>
        <time>2019-09-29T17:17:12Z</time>
      </trkpt>
      <trkpt lat="59.162668" lon="18.130766">
        <ele>36</ele>
        <time>2019-09-29T17:17:14Z</time>
      </trkpt>
      <trkpt lat="59.162686" lon="18.130773">
        <ele>36</ele>
        <time>2019-09-29T17:17:15Z</time>
      </trkpt>
      <trkpt lat="59.162723" lon="18.130786">
        <ele>36</ele>
        <time>2019-09-29T17:17:17Z</time>
      </trkpt>
      <trkpt lat="59.162751" lon="18.130804">
        <ele>36</ele>
        <time>2019-09-29T17:17:18Z</time>
      </trkpt>
      <trkpt lat="59.162781" lon="18.130821">
        <ele>36</ele>
        <time>2019-09-29T17:17:19Z</time>
      </trkpt>
      <trkpt lat="59.162806" lon="18.130832">
        <ele>36</ele>
        <time>2019-09-29T17:17:20Z</time>
      </trkpt>
      <trkpt lat="59.162827" lon="18.130834">
        <ele>36</ele>
        <time>2019-09-29T17:17:21Z</time>
      </trkpt>
      <trkpt lat="59.162848" lon="18.130834">
        <ele>36</ele>
        <time>2019-09-29T17:17:22Z</time>
      </trkpt>
      <trkpt lat="59.162871" lon="18.130841">
        <ele>36</ele>
        <time>2019-09-29T17:17:23Z</time>
      </trkpt>
      <trkpt lat="59.162898" lon="18.130852">
        <ele>36</ele>
        <time>2019-09-29T17:17:24Z</time>
      </trkpt>
      <trkpt lat="59.162924" lon="18.130863">
        <ele>36</ele>
        <time>2019-09-29T17:17:25Z</time>
      </trkpt>
      <trkpt lat="59.162951" lon="18.130869">
        <ele>36</ele>
        <time>2019-09-29T17:17:26Z</time>
      </trkpt>
      <trkpt lat="59.162979" lon="18.130872">
        <ele>36</ele>
        <time>2019-09-29T17:17:27Z</time>
      </trkpt>
      <trkpt lat="59.163088" lon="18.130844">
        <ele>36</ele>
        <time>2019-09-29T17:17:31Z</time>
      </trkpt>
      <trkpt lat="59.163176" lon="18.130808">
        <ele>36</ele>
        <time>2019-09-29T17:17:34Z</time>
      </trkpt>
      <trkpt lat="59.163266" lon="18.130803">
        <ele>36</ele>
        <time>2019-09-29T17:17:37Z</time>
      </trkpt>
      <trkpt lat="59.163362" lon="18.130853">
        <ele>36</ele>
        <time>2019-09-29T17:17:40Z</time>
      </trkpt>
      <trkpt lat="59.163424" lon="18.130904">
        <ele>36</ele>
        <time>2019-09-29T17:17:42Z</time>
      </trkpt>
      <trkpt lat="59.163454" lon="18.130929">
        <ele>36</ele>
        <time>2019-09-29T17:17:43Z</time>
      </trkpt>
      <trkpt lat="59.163485" lon="18.130953">
        <ele>36</ele>
        <time>2019-09-29T17:17:44Z</time>
      </trkpt>
      <trkpt lat="59.163518" lon="18.130984">
        <ele>36</ele>
        <time>2019-09-29T17:17:45Z</time>
      </trkpt>
      <trkpt lat="59.163551" lon="18.131017">
        <ele>36</ele>
        <time>2019-09-29T17:17:46Z</time>
      </trkpt>
      <trkpt lat="59.163585" lon="18.131048">
        <ele>36</ele>
        <time>2019-09-29T17:17:47Z</time>
      </trkpt>
      <trkpt lat="59.163619" lon="18.131079">
        <ele>36</ele>
        <time>2019-09-29T17:17:48Z</time>
      </trkpt>
      <trkpt lat="59.163653" lon="18.131114">
        <ele>36</ele>
        <time>2019-09-29T17:17:49Z</time>
      </trkpt>
      <trkpt lat="59.163687" lon="18.131146">
        <ele>37</ele>
        <time>2019-09-29T17:17:50Z</time>
      </trkpt>
      <trkpt lat="59.163721" lon="18.131176">
        <ele>37</ele>
        <time>2019-09-29T17:17:51Z</time>
      </trkpt>
      <trkpt lat="59.163754" lon="18.131207">
        <ele>37</ele>
        <time>2019-09-29T17:17:52Z</time>
      </trkpt>
      <trkpt lat="59.163786" lon="18.13124">
        <ele>37</ele>
        <time>2019-09-29T17:17:53Z</time>
      </trkpt>
      <trkpt lat="59.16382" lon="18.131275">
        <ele>37</ele>
        <time>2019-09-29T17:17:54Z</time>
      </trkpt>
      <trkpt lat="59.163854" lon="18.131309">
        <ele>37</ele>
        <time>2019-09-29T17:17:55Z</time>
      </trkpt>
      <trkpt lat="59.163889" lon="18.131343">
        <ele>37</ele>
        <time>2019-09-29T17:17:56Z</time>
      </trkpt>
      <trkpt lat="59.163924" lon="18.131379">
        <ele>37</ele>
        <time>2019-09-29T17:17:57Z</time>
      </trkpt>
      <trkpt lat="59.16396" lon="18.131418">
        <ele>37</ele>
        <time>2019-09-29T17:17:58Z</time>
      </trkpt>
      <trkpt lat="59.163993" lon="18.131461">
        <ele>37</ele>
        <time>2019-09-29T17:17:59Z</time>
      </trkpt>
      <trkpt lat="59.164025" lon="18.131507">
        <ele>37</ele>
        <time>2019-09-29T17:18:00Z</time>
      </trkpt>
      <trkpt lat="59.164054" lon="18.131555">
        <ele>37</ele>
        <time>2019-09-29T17:18:01Z</time>
      </trkpt>
      <trkpt lat="59.164081" lon="18.131604">
        <ele>37</ele>
        <time>2019-09-29T17:18:02Z</time>
      </trkpt>
      <trkpt lat="59.164109" lon="18.13165">
        <ele>38</ele>
        <time>2019-09-29T17:18:03Z</time>
      </trkpt>
      <trkpt lat="59.164136" lon="18.131697">
        <ele>38</ele>
        <time>2019-09-29T17:18:04Z</time>
      </trkpt>
      <trkpt lat="59.164162" lon="18.131748">
        <ele>38</ele>
        <time>2019-09-29T17:18:05Z</time>
      </trkpt>
      <trkpt lat="59.164186" lon="18.131804">
        <ele>38</ele>
        <time>2019-09-29T17:18:06Z</time>
      </trkpt>
      <trkpt lat="59.164233" lon="18.131994">
        <ele>38</ele>
        <time>2019-09-29T17:18:09Z</time>
      </trkpt>
      <trkpt lat="59.16424" lon="18.132261">
        <ele>38</ele>
        <time>2019-09-29T17:18:12Z</time>
      </trkpt>
      <trkpt lat="59.164298" lon="18.132441">
        <ele>38</ele>
        <time>2019-09-29T17:18:15Z</time>
      </trkpt>
      <trkpt lat="59.164403" lon="18.132504">
        <ele>38</ele>
        <time>2019-09-29T17:18:18Z</time>
      </trkpt>
      <trkpt lat="59.164514" lon="18.132557">
        <ele>38</ele>
        <time>2019-09-29T17:18:21Z</time>
      </trkpt>
      <trkpt lat="59.16462" lon="18.13258">
        <ele>38</ele>
        <time>2019-09-29T17:18:24Z</time>
      </trkpt>
      <trkpt lat="59.164748" lon="18.13262">
        <ele>38</ele>
        <time>2019-09-29T17:18:27Z</time>
      </trkpt>
      <trkpt lat="59.164789" lon="18.13264">
        <ele>38</ele>
        <time>2019-09-29T17:18:28Z</time>
      </trkpt>
      <trkpt lat="59.16483" lon="18.13266">
        <ele>38</ele>
        <time>2019-09-29T17:18:29Z</time>
      </trkpt>
      <trkpt lat="59.164907" lon="18.1327">
        <ele>38</ele>
        <time>2019-09-29T17:18:31Z</time>
      </trkpt>
      <trkpt lat="59.164942" lon="18.132723">
        <ele>38</ele>
        <time>2019-09-29T17:18:32Z</time>
      </trkpt>
      <trkpt lat="59.164967" lon="18.132721">
        <ele>38</ele>
        <time>2019-09-29T17:18:33Z</time>
      </trkpt>
      <trkpt lat="59.165079" lon="18.132747">
        <ele>37</ele>
        <time>2019-09-29T17:18:40Z</time>
      </trkpt>
      <trkpt lat="59.16498" lon="18.132768">
        <ele>37</ele>
        <time>2019-09-29T17:18:48Z</time>
      </trkpt>
      <trkpt lat="59.165049" lon="18.132714">
        <ele>41</ele>
        <time>2019-09-29T17:18:55Z</time>
      </trkpt>
      <trkpt lat="59.165081" lon="18.132747">
        <ele>42</ele>
        <time>2019-09-29T17:18:56Z</time>
      </trkpt>
      <trkpt lat="59.165106" lon="18.132785">
        <ele>42</ele>
        <time>2019-09-29T17:18:57Z</time>
      </trkpt>
      <trkpt lat="59.165126" lon="18.132818">
        <ele>42</ele>
        <time>2019-09-29T17:18:58Z</time>
      </trkpt>
      <trkpt lat="59.165029" lon="18.132913">
        <ele>45</ele>
        <time>2019-09-29T17:19:05Z</time>
      </trkpt>
      <trkpt lat="59.164997" lon="18.132907">
        <ele>46</ele>
        <time>2019-09-29T17:19:06Z</time>
      </trkpt>
      <trkpt lat="59.164969" lon="18.132903">
        <ele>47</ele>
        <time>2019-09-29T17:19:07Z</time>
      </trkpt>
      <trkpt lat="59.164944" lon="18.132896">
        <ele>47</ele>
        <time>2019-09-29T17:19:08Z</time>
      </trkpt>
      <trkpt lat="59.164921" lon="18.132893">
        <ele>47</ele>
        <time>2019-09-29T17:19:09Z</time>
      </trkpt>
      <trkpt lat="59.164845" lon="18.133013">
        <ele>47</ele>
        <time>2019-09-29T17:19:18Z</time>
      </trkpt>
      <trkpt lat="59.164773" lon="18.133158">
        <ele>46</ele>
        <time>2019-09-29T17:19:23Z</time>
      </trkpt>
      <trkpt lat="59.164721" lon="18.133346">
        <ele>44</ele>
        <time>2019-09-29T17:19:27Z</time>
      </trkpt>
      <trkpt lat="59.164708" lon="18.133524">
        <ele>43</ele>
        <time>2019-09-29T17:19:30Z</time>
      </trkpt>
      <trkpt lat="59.164722" lon="18.133811">
        <ele>42</ele>
        <time>2019-09-29T17:19:35Z</time>
      </trkpt>
      <trkpt lat="59.164648" lon="18.133949">
        <ele>45</ele>
        <time>2019-09-29T17:19:39Z</time>
      </trkpt>
      <trkpt lat="59.164617" lon="18.134085">
        <ele>46</ele>
        <time>2019-09-29T17:19:42Z</time>
      </trkpt>
      <trkpt lat="59.164618" lon="18.134151">
        <ele>46</ele>
        <time>2019-09-29T17:19:43Z</time>
      </trkpt>
      <trkpt lat="59.16461" lon="18.134211">
        <ele>47</ele>
        <time>2019-09-29T17:19:44Z</time>
      </trkpt>
      <trkpt lat="59.164602" lon="18.134264">
        <ele>47</ele>
        <time>2019-09-29T17:19:45Z</time>
      </trkpt>
      <trkpt lat="59.164595" lon="18.134317">
        <ele>47</ele>
        <time>2019-09-29T17:19:46Z</time>
      </trkpt>
      <trkpt lat="59.164587" lon="18.134365">
        <ele>48</ele>
        <time>2019-09-29T17:19:47Z</time>
      </trkpt>
      <trkpt lat="59.164577" lon="18.134414">
        <ele>48</ele>
        <time>2019-09-29T17:19:48Z</time>
      </trkpt>
      <trkpt lat="59.164567" lon="18.134454">
        <ele>49</ele>
        <time>2019-09-29T17:19:49Z</time>
      </trkpt>
      <trkpt lat="59.16456" lon="18.134494">
        <ele>49</ele>
        <time>2019-09-29T17:19:50Z</time>
      </trkpt>
      <trkpt lat="59.164555" lon="18.134543">
        <ele>50</ele>
        <time>2019-09-29T17:19:51Z</time>
      </trkpt>
      <trkpt lat="59.164552" lon="18.134593">
        <ele>50</ele>
        <time>2019-09-29T17:19:52Z</time>
      </trkpt>
      <trkpt lat="59.164549" lon="18.134643">
        <ele>50</ele>
        <time>2019-09-29T17:19:53Z</time>
      </trkpt>
      <trkpt lat="59.164547" lon="18.134698">
        <ele>50</ele>
        <time>2019-09-29T17:19:54Z</time>
      </trkpt>
      <trkpt lat="59.164543" lon="18.134752">
        <ele>50</ele>
        <time>2019-09-29T17:19:55Z</time>
      </trkpt>
      <trkpt lat="59.164538" lon="18.1348">
        <ele>50</ele>
        <time>2019-09-29T17:19:56Z</time>
      </trkpt>
      <trkpt lat="59.164525" lon="18.134839">
        <ele>51</ele>
        <time>2019-09-29T17:19:57Z</time>
      </trkpt>
      <trkpt lat="59.164502" lon="18.134857">
        <ele>51</ele>
        <time>2019-09-29T17:19:58Z</time>
      </trkpt>
      <trkpt lat="59.164472" lon="18.134853">
        <ele>51</ele>
        <time>2019-09-29T17:19:59Z</time>
      </trkpt>
      <trkpt lat="59.16444" lon="18.134843">
        <ele>51</ele>
        <time>2019-09-29T17:20:00Z</time>
      </trkpt>
      <trkpt lat="59.164405" lon="18.134836">
        <ele>51</ele>
        <time>2019-09-29T17:20:01Z</time>
      </trkpt>
      <trkpt lat="59.164366" lon="18.134827">
        <ele>51</ele>
        <time>2019-09-29T17:20:02Z</time>
      </trkpt>
      <trkpt lat="59.164327" lon="18.13482">
        <ele>51</ele>
        <time>2019-09-29T17:20:03Z</time>
      </trkpt>
      <trkpt lat="59.164286" lon="18.134816">
        <ele>51</ele>
        <time>2019-09-29T17:20:04Z</time>
      </trkpt>
      <trkpt lat="59.164244" lon="18.134813">
        <ele>51</ele>
        <time>2019-09-29T17:20:05Z</time>
      </trkpt>
      <trkpt lat="59.164205" lon="18.134801">
        <ele>51</ele>
        <time>2019-09-29T17:20:06Z</time>
      </trkpt>
      <trkpt lat="59.164171" lon="18.13478">
        <ele>50</ele>
        <time>2019-09-29T17:20:07Z</time>
      </trkpt>
      <trkpt lat="59.164143" lon="18.134746">
        <ele>50</ele>
        <time>2019-09-29T17:20:08Z</time>
      </trkpt>
      <trkpt lat="59.164123" lon="18.134692">
        <ele>50</ele>
        <time>2019-09-29T17:20:09Z</time>
      </trkpt>
      <trkpt lat="59.164113" lon="18.134625">
        <ele>50</ele>
        <time>2019-09-29T17:20:10Z</time>
      </trkpt>
      <trkpt lat="59.164109" lon="18.13455">
        <ele>50</ele>
        <time>2019-09-29T17:20:11Z</time>
      </trkpt>
      <trkpt lat="59.164104" lon="18.134469">
        <ele>50</ele>
        <time>2019-09-29T17:20:12Z</time>
      </trkpt>
      <trkpt lat="59.164097" lon="18.134381">
        <ele>50</ele>
        <time>2019-09-29T17:20:13Z</time>
      </trkpt>
      <trkpt lat="59.164086" lon="18.134286">
        <ele>50</ele>
        <time>2019-09-29T17:20:14Z</time>
      </trkpt>
      <trkpt lat="59.164069" lon="18.134189">
        <ele>50</ele>
        <time>2019-09-29T17:20:16Z</time>
      </trkpt>
      <trkpt lat="59.164026" lon="18.133977">
        <ele>50</ele>
        <time>2019-09-29T17:20:17Z</time>
      </trkpt>
      <trkpt lat="59.163999" lon="18.13387">
        <ele>49</ele>
        <time>2019-09-29T17:20:18Z</time>
      </trkpt>
      <trkpt lat="59.163975" lon="18.133762">
        <ele>49</ele>
        <time>2019-09-29T17:20:19Z</time>
      </trkpt>
      <trkpt lat="59.163984" lon="18.133643">
        <ele>49</ele>
        <time>2019-09-29T17:20:20Z</time>
      </trkpt>
      <trkpt lat="59.164078" lon="18.133454">
        <ele>48</ele>
        <time>2019-09-29T17:20:22Z</time>
      </trkpt>
      <trkpt lat="59.164223" lon="18.133355">
        <ele>48</ele>
        <time>2019-09-29T17:20:24Z</time>
      </trkpt>
      <trkpt lat="59.164391" lon="18.133349">
        <ele>47</ele>
        <time>2019-09-29T17:20:26Z</time>
      </trkpt>
      <trkpt lat="59.164481" lon="18.133377">
        <ele>46</ele>
        <time>2019-09-29T17:20:27Z</time>
      </trkpt>
      <trkpt lat="59.164577" lon="18.133411">
        <ele>45</ele>
        <time>2019-09-29T17:20:28Z</time>
      </trkpt>
      <trkpt lat="59.164672" lon="18.13346">
        <ele>45</ele>
        <time>2019-09-29T17:20:29Z</time>
      </trkpt>
      <trkpt lat="59.164765" lon="18.133511">
        <ele>44</ele>
        <time>2019-09-29T17:20:30Z</time>
      </trkpt>
      <trkpt lat="59.164859" lon="18.133555">
        <ele>44</ele>
        <time>2019-09-29T17:20:31Z</time>
      </trkpt>
      <trkpt lat="59.164952" lon="18.133586">
        <ele>44</ele>
        <time>2019-09-29T17:20:32Z</time>
      </trkpt>
      <trkpt lat="59.165041" lon="18.13363">
        <ele>44</ele>
        <time>2019-09-29T17:20:33Z</time>
      </trkpt>
      <trkpt lat="59.165129" lon="18.133683">
        <ele>44</ele>
        <time>2019-09-29T17:20:34Z</time>
      </trkpt>
      <trkpt lat="59.165296" lon="18.133776">
        <ele>44</ele>
        <time>2019-09-29T17:20:36Z</time>
      </trkpt>
      <trkpt lat="59.165446" lon="18.133856">
        <ele>45</ele>
        <time>2019-09-29T17:20:38Z</time>
      </trkpt>
      <trkpt lat="59.165507" lon="18.133893">
        <ele>45</ele>
        <time>2019-09-29T17:20:39Z</time>
      </trkpt>
      <trkpt lat="59.165572" lon="18.133923">
        <ele>45</ele>
        <time>2019-09-29T17:20:40Z</time>
      </trkpt>
      <trkpt lat="59.165625" lon="18.13397">
        <ele>45</ele>
        <time>2019-09-29T17:20:41Z</time>
      </trkpt>
      <trkpt lat="59.165679" lon="18.134019">
        <ele>45</ele>
        <time>2019-09-29T17:20:42Z</time>
      </trkpt>
      <trkpt lat="59.165742" lon="18.134058">
        <ele>45</ele>
        <time>2019-09-29T17:20:43Z</time>
      </trkpt>
      <trkpt lat="59.165806" lon="18.134093">
        <ele>45</ele>
        <time>2019-09-29T17:20:44Z</time>
      </trkpt>
      <trkpt lat="59.165871" lon="18.134127">
        <ele>45</ele>
        <time>2019-09-29T17:20:45Z</time>
      </trkpt>
      <trkpt lat="59.165939" lon="18.134169">
        <ele>45</ele>
        <time>2019-09-29T17:20:46Z</time>
      </trkpt>
      <trkpt lat="59.166007" lon="18.134216">
        <ele>46</ele>
        <time>2019-09-29T17:20:47Z</time>
      </trkpt>
      <trkpt lat="59.166143" lon="18.134309">
        <ele>46</ele>
        <time>2019-09-29T17:20:49Z</time>
      </trkpt>
      <trkpt lat="59.166275" lon="18.134389">
        <ele>45</ele>
        <time>2019-09-29T17:20:51Z</time>
      </trkpt>
      <trkpt lat="59.16634" lon="18.134422">
        <ele>45</ele>
        <time>2019-09-29T17:20:52Z</time>
      </trkpt>
      <trkpt lat="59.166405" lon="18.134455">
        <ele>46</ele>
        <time>2019-09-29T17:20:53Z</time>
      </trkpt>
      <trkpt lat="59.166539" lon="18.134525">
        <ele>45</ele>
        <time>2019-09-29T17:20:55Z</time>
      </trkpt>
      <trkpt lat="59.166671" lon="18.134587">
        <ele>45</ele>
        <time>2019-09-29T17:20:57Z</time>
      </trkpt>
      <trkpt lat="59.166792" lon="18.134667">
        <ele>45</ele>
        <time>2019-09-29T17:20:59Z</time>
      </trkpt>
      <trkpt lat="59.166852" lon="18.134716">
        <ele>46</ele>
        <time>2019-09-29T17:21:00Z</time>
      </trkpt>
      <trkpt lat="59.166913" lon="18.134761">
        <ele>45</ele>
        <time>2019-09-29T17:21:01Z</time>
      </trkpt>
      <trkpt lat="59.166975" lon="18.134807">
        <ele>46</ele>
        <time>2019-09-29T17:21:02Z</time>
      </trkpt>
      <trkpt lat="59.167114" lon="18.134883">
        <ele>46</ele>
        <time>2019-09-29T17:21:04Z</time>
      </trkpt>
      <trkpt lat="59.167257" lon="18.134962">
        <ele>46</ele>
        <time>2019-09-29T17:21:06Z</time>
      </trkpt>
      <trkpt lat="59.167391" lon="18.135049">
        <ele>45</ele>
        <time>2019-09-29T17:21:08Z</time>
      </trkpt>
      <trkpt lat="59.167516" lon="18.135135">
        <ele>45</ele>
        <time>2019-09-29T17:21:10Z</time>
      </trkpt>
      <trkpt lat="59.16763" lon="18.135226">
        <ele>45</ele>
        <time>2019-09-29T17:21:12Z</time>
      </trkpt>
      <trkpt lat="59.167739" lon="18.135314">
        <ele>45</ele>
        <time>2019-09-29T17:21:14Z</time>
      </trkpt>
      <trkpt lat="59.16786" lon="18.135401">
        <ele>45</ele>
        <time>2019-09-29T17:21:16Z</time>
      </trkpt>
      <trkpt lat="59.167979" lon="18.135474">
        <ele>45</ele>
        <time>2019-09-29T17:21:18Z</time>
      </trkpt>
      <trkpt lat="59.168029" lon="18.135521">
        <ele>45</ele>
        <time>2019-09-29T17:21:19Z</time>
      </trkpt>
      <trkpt lat="59.168146" lon="18.135595">
        <ele>45</ele>
        <time>2019-09-29T17:21:21Z</time>
      </trkpt>
      <trkpt lat="59.168271" lon="18.135679">
        <ele>45</ele>
        <time>2019-09-29T17:21:23Z</time>
      </trkpt>
      <trkpt lat="59.168397" lon="18.135763">
        <ele>45</ele>
        <time>2019-09-29T17:21:25Z</time>
      </trkpt>
      <trkpt lat="59.168532" lon="18.135839">
        <ele>44</ele>
        <time>2019-09-29T17:21:27Z</time>
      </trkpt>
      <trkpt lat="59.168664" lon="18.135906">
        <ele>44</ele>
        <time>2019-09-29T17:21:29Z</time>
      </trkpt>
      <trkpt lat="59.168804" lon="18.13596">
        <ele>44</ele>
        <time>2019-09-29T17:21:31Z</time>
      </trkpt>
      <trkpt lat="59.168935" lon="18.135997">
        <ele>44</ele>
        <time>2019-09-29T17:21:33Z</time>
      </trkpt>
      <trkpt lat="59.168995" lon="18.136028">
        <ele>44</ele>
        <time>2019-09-29T17:21:34Z</time>
      </trkpt>
      <trkpt lat="59.16906" lon="18.136061">
        <ele>44</ele>
        <time>2019-09-29T17:21:35Z</time>
      </trkpt>
      <trkpt lat="59.169123" lon="18.136089">
        <ele>44</ele>
        <time>2019-09-29T17:21:36Z</time>
      </trkpt>
      <trkpt lat="59.169184" lon="18.136118">
        <ele>44</ele>
        <time>2019-09-29T17:21:37Z</time>
      </trkpt>
      <trkpt lat="59.1693" lon="18.136169">
        <ele>43</ele>
        <time>2019-09-29T17:21:39Z</time>
      </trkpt>
      <trkpt lat="59.169411" lon="18.136222">
        <ele>43</ele>
        <time>2019-09-29T17:21:41Z</time>
      </trkpt>
      <trkpt lat="59.169519" lon="18.136282">
        <ele>43</ele>
        <time>2019-09-29T17:21:43Z</time>
      </trkpt>
      <trkpt lat="59.169626" lon="18.136343">
        <ele>42</ele>
        <time>2019-09-29T17:21:45Z</time>
      </trkpt>
      <trkpt lat="59.169738" lon="18.136395">
        <ele>42</ele>
        <time>2019-09-29T17:21:47Z</time>
      </trkpt>
      <trkpt lat="59.169851" lon="18.136453">
        <ele>42</ele>
        <time>2019-09-29T17:21:49Z</time>
      </trkpt>
      <trkpt lat="59.169965" lon="18.136505">
        <ele>41</ele>
        <time>2019-09-29T17:21:51Z</time>
      </trkpt>
      <trkpt lat="59.170076" lon="18.136568">
        <ele>42</ele>
        <time>2019-09-29T17:21:53Z</time>
      </trkpt>
      <trkpt lat="59.170191" lon="18.136624">
        <ele>42</ele>
        <time>2019-09-29T17:21:55Z</time>
      </trkpt>
      <trkpt lat="59.170309" lon="18.136676">
        <ele>42</ele>
        <time>2019-09-29T17:21:57Z</time>
      </trkpt>
      <trkpt lat="59.170415" lon="18.136743">
        <ele>42</ele>
        <time>2019-09-29T17:21:59Z</time>
      </trkpt>
      <trkpt lat="59.170539" lon="18.136812">
        <ele>41</ele>
        <time>2019-09-29T17:22:01Z</time>
      </trkpt>
      <trkpt lat="59.170664" lon="18.136873">
        <ele>41</ele>
        <time>2019-09-29T17:22:03Z</time>
      </trkpt>
      <trkpt lat="59.170727" lon="18.136906">
        <ele>41</ele>
        <time>2019-09-29T17:22:04Z</time>
      </trkpt>
      <trkpt lat="59.17079" lon="18.136939">
        <ele>41</ele>
        <time>2019-09-29T17:22:05Z</time>
      </trkpt>
      <trkpt lat="59.17085" lon="18.136973">
        <ele>41</ele>
        <time>2019-09-29T17:22:06Z</time>
      </trkpt>
      <trkpt lat="59.170908" lon="18.137008">
        <ele>41</ele>
        <time>2019-09-29T17:22:07Z</time>
      </trkpt>
      <trkpt lat="59.170965" lon="18.137045">
        <ele>41</ele>
        <time>2019-09-29T17:22:08Z</time>
      </trkpt>
      <trkpt lat="59.171028" lon="18.13708">
        <ele>41</ele>
        <time>2019-09-29T17:22:09Z</time>
      </trkpt>
      <trkpt lat="59.171092" lon="18.137109">
        <ele>41</ele>
        <time>2019-09-29T17:22:10Z</time>
      </trkpt>
      <trkpt lat="59.171214" lon="18.137186">
        <ele>41</ele>
        <time>2019-09-29T17:22:12Z</time>
      </trkpt>
      <trkpt lat="59.171328" lon="18.13727">
        <ele>41</ele>
        <time>2019-09-29T17:22:14Z</time>
      </trkpt>
      <trkpt lat="59.171442" lon="18.137333">
        <ele>40</ele>
        <time>2019-09-29T17:22:16Z</time>
      </trkpt>
      <trkpt lat="59.1715" lon="18.137364">
        <ele>40</ele>
        <time>2019-09-29T17:22:17Z</time>
      </trkpt>
      <trkpt lat="59.171556" lon="18.137393">
        <ele>40</ele>
        <time>2019-09-29T17:22:18Z</time>
      </trkpt>
      <trkpt lat="59.171616" lon="18.137422">
        <ele>40</ele>
        <time>2019-09-29T17:22:19Z</time>
      </trkpt>
      <trkpt lat="59.171674" lon="18.137453">
        <ele>40</ele>
        <time>2019-09-29T17:22:20Z</time>
      </trkpt>
      <trkpt lat="59.171731" lon="18.137484">
        <ele>41</ele>
        <time>2019-09-29T17:22:21Z</time>
      </trkpt>
      <trkpt lat="59.17179" lon="18.137513">
        <ele>41</ele>
        <time>2019-09-29T17:22:22Z</time>
      </trkpt>
      <trkpt lat="59.171848" lon="18.137538">
        <ele>41</ele>
        <time>2019-09-29T17:22:23Z</time>
      </trkpt>
      <trkpt lat="59.171906" lon="18.13756">
        <ele>41</ele>
        <time>2019-09-29T17:22:24Z</time>
      </trkpt>
      <trkpt lat="59.172019" lon="18.137602">
        <ele>41</ele>
        <time>2019-09-29T17:22:26Z</time>
      </trkpt>
      <trkpt lat="59.172128" lon="18.137653">
        <ele>41</ele>
        <time>2019-09-29T17:22:28Z</time>
      </trkpt>
      <trkpt lat="59.17224" lon="18.137706">
        <ele>41</ele>
        <time>2019-09-29T17:22:30Z</time>
      </trkpt>
      <trkpt lat="59.172292" lon="18.137741">
        <ele>41</ele>
        <time>2019-09-29T17:22:31Z</time>
      </trkpt>
      <trkpt lat="59.172392" lon="18.137805">
        <ele>41</ele>
        <time>2019-09-29T17:22:33Z</time>
      </trkpt>
      <trkpt lat="59.172488" lon="18.137863">
        <ele>41</ele>
        <time>2019-09-29T17:22:35Z</time>
      </trkpt>
      <trkpt lat="59.172576" lon="18.137928">
        <ele>41</ele>
        <time>2019-09-29T17:22:37Z</time>
      </trkpt>
      <trkpt lat="59.172672" lon="18.137972">
        <ele>41</ele>
        <time>2019-09-29T17:22:39Z</time>
      </trkpt>
      <trkpt lat="59.172776" lon="18.138021">
        <ele>42</ele>
        <time>2019-09-29T17:22:41Z</time>
      </trkpt>
      <trkpt lat="59.17287" lon="18.138072">
        <ele>42</ele>
        <time>2019-09-29T17:22:43Z</time>
      </trkpt>
      <trkpt lat="59.172958" lon="18.138107">
        <ele>43</ele>
        <time>2019-09-29T17:22:45Z</time>
      </trkpt>
      <trkpt lat="59.173059" lon="18.13816">
        <ele>43</ele>
        <time>2019-09-29T17:22:47Z</time>
      </trkpt>
      <trkpt lat="59.173148" lon="18.138217">
        <ele>44</ele>
        <time>2019-09-29T17:22:49Z</time>
      </trkpt>
      <trkpt lat="59.173243" lon="18.138282">
        <ele>44</ele>
        <time>2019-09-29T17:22:51Z</time>
      </trkpt>
      <trkpt lat="59.173348" lon="18.13836">
        <ele>45</ele>
        <time>2019-09-29T17:22:53Z</time>
      </trkpt>
      <trkpt lat="59.173435" lon="18.138446">
        <ele>45</ele>
        <time>2019-09-29T17:22:55Z</time>
      </trkpt>
      <trkpt lat="59.173552" lon="18.138566">
        <ele>46</ele>
        <time>2019-09-29T17:22:58Z</time>
      </trkpt>
      <trkpt lat="59.173675" lon="18.138667">
        <ele>46</ele>
        <time>2019-09-29T17:23:01Z</time>
      </trkpt>
      <trkpt lat="59.173725" lon="18.138887">
        <ele>47</ele>
        <time>2019-09-29T17:23:04Z</time>
      </trkpt>
      <trkpt lat="59.173719" lon="18.139148">
        <ele>47</ele>
        <time>2019-09-29T17:23:07Z</time>
      </trkpt>
      <trkpt lat="59.173771" lon="18.13936">
        <ele>48</ele>
        <time>2019-09-29T17:23:10Z</time>
      </trkpt>
      <trkpt lat="59.173884" lon="18.139404">
        <ele>48</ele>
        <time>2019-09-29T17:23:12Z</time>
      </trkpt>
      <trkpt lat="59.173982" lon="18.139433">
        <ele>48</ele>
        <time>2019-09-29T17:23:14Z</time>
      </trkpt>
      <trkpt lat="59.174071" lon="18.139522">
        <ele>49</ele>
        <time>2019-09-29T17:23:16Z</time>
      </trkpt>
      <trkpt lat="59.174082" lon="18.139711">
        <ele>50</ele>
        <time>2019-09-29T17:23:18Z</time>
      </trkpt>
      <trkpt lat="59.174145" lon="18.139927">
        <ele>50</ele>
        <time>2019-09-29T17:23:21Z</time>
      </trkpt>
      <trkpt lat="59.174248" lon="18.139987">
        <ele>51</ele>
        <time>2019-09-29T17:23:24Z</time>
      </trkpt>
      <trkpt lat="59.174363" lon="18.140056">
        <ele>50</ele>
        <time>2019-09-29T17:23:27Z</time>
      </trkpt>
      <trkpt lat="59.174455" lon="18.140094">
        <ele>49</ele>
        <time>2019-09-29T17:23:30Z</time>
      </trkpt>
      <trkpt lat="59.174467" lon="18.140297">
        <ele>49</ele>
        <time>2019-09-29T17:23:35Z</time>
      </trkpt>
      <trkpt lat="59.174466" lon="18.140518">
        <ele>49</ele>
        <time>2019-09-29T17:23:38Z</time>
      </trkpt>
      <trkpt lat="59.17451" lon="18.140679">
        <ele>49</ele>
        <time>2019-09-29T17:23:40Z</time>
      </trkpt>
      <trkpt lat="59.174517" lon="18.140939">
        <ele>49</ele>
        <time>2019-09-29T17:23:43Z</time>
      </trkpt>
      <trkpt lat="59.174439" lon="18.141143">
        <ele>48</ele>
        <time>2019-09-29T17:23:46Z</time>
      </trkpt>
      <trkpt lat="59.174385" lon="18.141297">
        <ele>48</ele>
        <time>2019-09-29T17:23:49Z</time>
      </trkpt>
      <trkpt lat="59.174352" lon="18.141467">
        <ele>47</ele>
        <time>2019-09-29T17:23:52Z</time>
      </trkpt>
      <trkpt lat="59.174299" lon="18.141619">
        <ele>47</ele>
        <time>2019-09-29T17:23:55Z</time>
      </trkpt>
      <trkpt lat="59.174242" lon="18.141758">
        <ele>47</ele>
        <time>2019-09-29T17:23:58Z</time>
      </trkpt>
      <trkpt lat="59.174209" lon="18.141926">
        <ele>47</ele>
        <time>2019-09-29T17:24:01Z</time>
      </trkpt>
      <trkpt lat="59.174197" lon="18.142153">
        <ele>48</ele>
        <time>2019-09-29T17:24:04Z</time>
      </trkpt>
      <trkpt lat="59.174171" lon="18.142362">
        <ele>49</ele>
        <time>2019-09-29T17:24:07Z</time>
      </trkpt>
      <trkpt lat="59.174106" lon="18.142486">
        <ele>50</ele>
        <time>2019-09-29T17:24:11Z</time>
      </trkpt>
      <trkpt lat="59.174069" lon="18.142682">
        <ele>51</ele>
        <time>2019-09-29T17:24:15Z</time>
      </trkpt>
      <trkpt lat="59.174024" lon="18.142906">
        <ele>51</ele>
        <time>2019-09-29T17:24:18Z</time>
      </trkpt>
      <trkpt lat="59.173955" lon="18.143036">
        <ele>51</ele>
        <time>2019-09-29T17:24:22Z</time>
      </trkpt>
      <trkpt lat="59.173916" lon="18.143232">
        <ele>51</ele>
        <time>2019-09-29T17:24:25Z</time>
      </trkpt>
      <trkpt lat="59.17391" lon="18.14342">
        <ele>51</ele>
        <time>2019-09-29T17:24:28Z</time>
      </trkpt>
      <trkpt lat="59.173822" lon="18.143478">
        <ele>52</ele>
        <time>2019-09-29T17:24:31Z</time>
      </trkpt>
      <trkpt lat="59.173721" lon="18.143462">
        <ele>53</ele>
        <time>2019-09-29T17:24:35Z</time>
      </trkpt>
      <trkpt lat="59.17362" lon="18.143475">
        <ele>52</ele>
        <time>2019-09-29T17:24:37Z</time>
      </trkpt>
      <trkpt lat="59.173522" lon="18.143468">
        <ele>54</ele>
        <time>2019-09-29T17:24:40Z</time>
      </trkpt>
    </trkseg>
  </trk>
</gpx>